﻿<?xml version="1.0" encoding="utf-8"?><gpx creator="Garmin Desktop App" version="1.1" xsi:schemaLocation="http://www.topografix.com/GPX/1/1 http://www.topografix.com/GPX/1/1/gpx.xsd http://www.garmin.com/xmlschemas/WaypointExtension/v1 http://www8.garmin.com/xmlschemas/WaypointExtensionv1.xsd http://www.garmin.com/xmlschemas/TrackPointExtension/v1 http://www.garmin.com/xmlschemas/TrackPointExtensionv1.xsd http://www.garmin.com/xmlschemas/GpxExtensions/v3 http://www8.garmin.com/xmlschemas/GpxExtensionsv3.xsd http://www.garmin.com/xmlschemas/ActivityExtension/v1 http://www8.garmin.com/xmlschemas/ActivityExtensionv1.xsd http://www.garmin.com/xmlschemas/AdventuresExtensions/v1 http://www8.garmin.com/xmlschemas/AdventuresExtensionv1.xsd http://www.garmin.com/xmlschemas/PressureExtension/v1 http://www.garmin.com/xmlschemas/PressureExtensionv1.xsd http://www.garmin.com/xmlschemas/TripExtensions/v1 http://www.garmin.com/xmlschemas/TripExtensionsv1.xsd http://www.garmin.com/xmlschemas/TripMetaDataExtensions/v1 http://www.garmin.com/xmlschemas/TripMetaDataExtensionsv1.xsd http://www.garmin.com/xmlschemas/ViaPointTransportationModeExtensions/v1 http://www.garmin.com/xmlschemas/ViaPointTransportationModeExtensionsv1.xsd http://www.garmin.com/xmlschemas/CreationTimeExtension/v1 http://www.garmin.com/xmlschemas/CreationTimeExtensionsv1.xsd http://www.garmin.com/xmlschemas/AccelerationExtension/v1 http://www.garmin.com/xmlschemas/AccelerationExtensionv1.xsd http://www.garmin.com/xmlschemas/PowerExtension/v1 http://www.garmin.com/xmlschemas/PowerExtensionv1.xsd http://www.garmin.com/xmlschemas/VideoExtension/v1 http://www.garmin.com/xmlschemas/VideoExtensionv1.xsd" xmlns="http://www.topografix.com/GPX/1/1" xmlns:xsi="http://www.w3.org/2001/XMLSchema-instance" xmlns:wptx1="http://www.garmin.com/xmlschemas/WaypointExtension/v1" xmlns:gpxtrx="http://www.garmin.com/xmlschemas/GpxExtensions/v3" xmlns:gpxtpx="http://www.garmin.com/xmlschemas/TrackPointExtension/v1" xmlns:gpxx="http://www.garmin.com/xmlschemas/GpxExtensions/v3" xmlns:trp="http://www.garmin.com/xmlschemas/TripExtensions/v1" xmlns:adv="http://www.garmin.com/xmlschemas/AdventuresExtensions/v1" xmlns:prs="http://www.garmin.com/xmlschemas/PressureExtension/v1" xmlns:tmd="http://www.garmin.com/xmlschemas/TripMetaDataExtensions/v1" xmlns:vptm="http://www.garmin.com/xmlschemas/ViaPointTransportationModeExtensions/v1" xmlns:ctx="http://www.garmin.com/xmlschemas/CreationTimeExtension/v1" xmlns:gpxacc="http://www.garmin.com/xmlschemas/AccelerationExtension/v1" xmlns:gpxpx="http://www.garmin.com/xmlschemas/PowerExtension/v1" xmlns:vidx1="http://www.garmin.com/xmlschemas/VideoExtension/v1">

  <metadata>
    <link href="http://www.garmin.com">
      <text>Garmin International</text>
    </link>
    <time>2017-11-13T16:53:46Z</time>
    <bounds maxlat="45.914679961279035" maxlon="8.489028168842197" minlat="45.907841082662344" minlon="8.473023930564523" />
  </metadata>

  <trk>
    <name>monte camoscio2017-11-12</name>
    <extensions>
      <gpxx:TrackExtension>
        <gpxx:DisplayColor>Yellow</gpxx:DisplayColor>
      </gpxx:TrackExtension>
      <gpxtrkx:TrackStatsExtension xmlns:gpxtrkx="http://www.garmin.com/xmlschemas/TrackStatsExtension/v1">
        <gpxtrkx:Distance>7480</gpxtrkx:Distance>
        <gpxtrkx:TotalElapsedTime>22420</gpxtrkx:TotalElapsedTime>
        <gpxtrkx:MovingTime>9806</gpxtrkx:MovingTime>
        <gpxtrkx:StoppedTime>12603</gpxtrkx:StoppedTime>
        <gpxtrkx:MovingSpeed>1</gpxtrkx:MovingSpeed>
        <gpxtrkx:MaxSpeed>2</gpxtrkx:MaxSpeed>
        <gpxtrkx:MaxElevation>884</gpxtrkx:MaxElevation>
        <gpxtrkx:MinElevation>294</gpxtrkx:MinElevation>
        <gpxtrkx:Ascent>621</gpxtrkx:Ascent>
        <gpxtrkx:Descent>620</gpxtrkx:Descent>
        <gpxtrkx:AvgAscentRate>0</gpxtrkx:AvgAscentRate>
        <gpxtrkx:MaxAscentRate>0</gpxtrkx:MaxAscentRate>
        <gpxtrkx:AvgDescentRate>0</gpxtrkx:AvgDescentRate>
        <gpxtrkx:MaxDescentRate>-0</gpxtrkx:MaxDescentRate>
      </gpxtrkx:TrackStatsExtension>
    </extensions>
    <trkseg>
      <trkpt lat="45.911644455045462" lon="8.488958515226841">
        <ele>296.22000000000003</ele>
        <time>2017-11-12T07:48:43Z</time>
      </trkpt>
      <trkpt lat="45.911644957959652" lon="8.488956922665238">
        <ele>296.22000000000003</ele>
        <time>2017-11-12T07:48:44Z</time>
      </trkpt>
      <trkpt lat="45.911628361791372" lon="8.488950384780765">
        <ele>295.25999999999999</ele>
        <time>2017-11-12T07:49:01Z</time>
      </trkpt>
      <trkpt lat="45.91161604039371" lon="8.488960862159729">
        <ele>295.74000000000001</ele>
        <time>2017-11-12T07:49:24Z</time>
      </trkpt>
      <trkpt lat="45.911615621298552" lon="8.488956335932016">
        <ele>295.74000000000001</ele>
        <time>2017-11-12T07:49:39Z</time>
      </trkpt>
      <trkpt lat="45.911589469760656" lon="8.488961784169078">
        <ele>295.74000000000001</ele>
        <time>2017-11-12T07:49:51Z</time>
      </trkpt>
      <trkpt lat="45.911592403426766" lon="8.488944685086608">
        <ele>295.74000000000001</ele>
        <time>2017-11-12T07:49:59Z</time>
      </trkpt>
      <trkpt lat="45.911625595763326" lon="8.488957844674587">
        <ele>295.74000000000001</ele>
        <time>2017-11-12T07:50:12Z</time>
      </trkpt>
      <trkpt lat="45.911641856655478" lon="8.48899070173502">
        <ele>295.74000000000001</ele>
        <time>2017-11-12T07:50:21Z</time>
      </trkpt>
      <trkpt lat="45.911661554127932" lon="8.489027414470911">
        <ele>295.25999999999999</ele>
        <time>2017-11-12T07:50:30Z</time>
      </trkpt>
      <trkpt lat="45.911705307662487" lon="8.489028168842197">
        <ele>294.77999999999997</ele>
        <time>2017-11-12T07:50:40Z</time>
      </trkpt>
      <trkpt lat="45.911701871082187" lon="8.489020289853215">
        <ele>294.30000000000001</ele>
        <time>2017-11-12T07:50:48Z</time>
      </trkpt>
      <trkpt lat="45.911721652373672" lon="8.489014338701963">
        <ele>294.77999999999997</ele>
        <time>2017-11-12T07:50:50Z</time>
      </trkpt>
      <trkpt lat="45.911795161664486" lon="8.48898584023118">
        <ele>294.30000000000001</ele>
        <time>2017-11-12T07:50:56Z</time>
      </trkpt>
      <trkpt lat="45.911815110594034" lon="8.488877965137363">
        <ele>294.30000000000001</ele>
        <time>2017-11-12T07:51:03Z</time>
      </trkpt>
      <trkpt lat="45.911808488890529" lon="8.488842425867915">
        <ele>294.77999999999997</ele>
        <time>2017-11-12T07:51:05Z</time>
      </trkpt>
      <trkpt lat="45.911773955449462" lon="8.488649222999811">
        <ele>296.22000000000003</ele>
        <time>2017-11-12T07:51:16Z</time>
      </trkpt>
      <trkpt lat="45.911763729527593" lon="8.488465743139386">
        <ele>297.67000000000002</ele>
        <time>2017-11-12T07:51:27Z</time>
      </trkpt>
      <trkpt lat="45.911756604909897" lon="8.488323502242565">
        <ele>299.11000000000001</ele>
        <time>2017-11-12T07:51:37Z</time>
      </trkpt>
      <trkpt lat="45.911753587424755" lon="8.48828511312604">
        <ele>299.58999999999997</ele>
        <time>2017-11-12T07:51:40Z</time>
      </trkpt>
      <trkpt lat="45.911740679293871" lon="8.488134909421206">
        <ele>301.02999999999997</ele>
        <time>2017-11-12T07:51:51Z</time>
      </trkpt>
      <trkpt lat="45.911760292947292" lon="8.488103142008185">
        <ele>301.99000000000001</ele>
        <time>2017-11-12T07:52:03Z</time>
      </trkpt>
      <trkpt lat="45.911762388423085" lon="8.48809115588665">
        <ele>302.47000000000003</ele>
        <time>2017-11-12T07:52:12Z</time>
      </trkpt>
      <trkpt lat="45.911760544404387" lon="8.488087886944413">
        <ele>302.47000000000003</ele>
        <time>2017-11-12T07:52:22Z</time>
      </trkpt>
      <trkpt lat="45.911775631830096" lon="8.488047067075968">
        <ele>302.94999999999999</ele>
        <time>2017-11-12T07:52:36Z</time>
      </trkpt>
      <trkpt lat="45.911790719255805" lon="8.487967858090997">
        <ele>303.91000000000003</ele>
        <time>2017-11-12T07:52:43Z</time>
      </trkpt>
      <trkpt lat="45.911802118644118" lon="8.487832406535745">
        <ele>305.83999999999997</ele>
        <time>2017-11-12T07:52:54Z</time>
      </trkpt>
      <trkpt lat="45.911799939349294" lon="8.487773481756449">
        <ele>305.83999999999997</ele>
        <time>2017-11-12T07:52:58Z</time>
      </trkpt>
      <trkpt lat="45.911825252696872" lon="8.487656554207206">
        <ele>307.27999999999997</ele>
        <time>2017-11-12T07:53:08Z</time>
      </trkpt>
      <trkpt lat="45.911840591579676" lon="8.487530490383506">
        <ele>309.19999999999999</ele>
        <time>2017-11-12T07:53:18Z</time>
      </trkpt>
      <trkpt lat="45.911836149170995" lon="8.487471397966147">
        <ele>309.68000000000001</ele>
        <time>2017-11-12T07:53:22Z</time>
      </trkpt>
      <trkpt lat="45.911821313202381" lon="8.487426890060306">
        <ele>310.16000000000003</ele>
        <time>2017-11-12T07:53:25Z</time>
      </trkpt>
      <trkpt lat="45.911807902157307" lon="8.487378694117069">
        <ele>310.63999999999999</ele>
        <time>2017-11-12T07:53:29Z</time>
      </trkpt>
      <trkpt lat="45.911776889115572" lon="8.487329408526421">
        <ele>312.08999999999997</ele>
        <time>2017-11-12T07:53:39Z</time>
      </trkpt>
      <trkpt lat="45.911705559119582" lon="8.487300910055637">
        <ele>314.49000000000001</ele>
        <time>2017-11-12T07:53:49Z</time>
      </trkpt>
      <trkpt lat="45.911659123376012" lon="8.487239889800549">
        <ele>315.44999999999999</ele>
        <time>2017-11-12T07:53:59Z</time>
      </trkpt>
      <trkpt lat="45.911651412025094" lon="8.487227652221918">
        <ele>315.93000000000001</ele>
        <time>2017-11-12T07:54:01Z</time>
      </trkpt>
      <trkpt lat="45.911631714552641" lon="8.487103264778853">
        <ele>317.37</ele>
        <time>2017-11-12T07:54:11Z</time>
      </trkpt>
      <trkpt lat="45.911606652662158" lon="8.48701860755682">
        <ele>318.32999999999998</ele>
        <time>2017-11-12T07:54:19Z</time>
      </trkpt>
      <trkpt lat="45.911594498902559" lon="8.486985079944134">
        <ele>319.77999999999997</ele>
        <time>2017-11-12T07:54:27Z</time>
      </trkpt>
      <trkpt lat="45.911550661548972" lon="8.486958090215921">
        <ele>320.74000000000001</ele>
        <time>2017-11-12T07:54:33Z</time>
      </trkpt>
      <trkpt lat="45.911459466442466" lon="8.486957503482699">
        <ele>322.18000000000001</ele>
        <time>2017-11-12T07:54:44Z</time>
      </trkpt>
      <trkpt lat="45.911404900252819" lon="8.487017937004566">
        <ele>323.62</ele>
        <time>2017-11-12T07:54:53Z</time>
      </trkpt>
      <trkpt lat="45.911347484216094" lon="8.487117430195212">
        <ele>325.54000000000002</ele>
        <time>2017-11-12T07:55:05Z</time>
      </trkpt>
      <trkpt lat="45.911283195018768" lon="8.487190185114741">
        <ele>326.99000000000001</ele>
        <time>2017-11-12T07:55:16Z</time>
      </trkpt>
      <trkpt lat="45.911247152835131" lon="8.487265706062317">
        <ele>327.94999999999999</ele>
        <time>2017-11-12T07:55:24Z</time>
      </trkpt>
      <trkpt lat="45.911234579980373" lon="8.487281212583184">
        <ele>328.43000000000001</ele>
        <time>2017-11-12T07:55:26Z</time>
      </trkpt>
      <trkpt lat="45.911183953285217" lon="8.487349776551127">
        <ele>328.91000000000003</ele>
        <time>2017-11-12T07:55:32Z</time>
      </trkpt>
      <trkpt lat="45.911168362945318" lon="8.487361343577504">
        <ele>329.38999999999999</ele>
        <time>2017-11-12T07:55:34Z</time>
      </trkpt>
      <trkpt lat="45.911114551126957" lon="8.487445833161473">
        <ele>331.31</ele>
        <time>2017-11-12T07:55:44Z</time>
      </trkpt>
      <trkpt lat="45.91105118393898" lon="8.487446084618568">
        <ele>332.75</ele>
        <time>2017-11-12T07:55:53Z</time>
      </trkpt>
      <trkpt lat="45.911031737923622" lon="8.487415658310056">
        <ele>333.70999999999998</ele>
        <time>2017-11-12T07:55:57Z</time>
      </trkpt>
      <trkpt lat="45.911015141755342" lon="8.487326893955469">
        <ele>334.68000000000001</ele>
        <time>2017-11-12T07:56:04Z</time>
      </trkpt>
      <trkpt lat="45.910996366292238" lon="8.487227903679013">
        <ele>336.12</ele>
        <time>2017-11-12T07:56:14Z</time>
      </trkpt>
      <trkpt lat="45.910977758467197" lon="8.487215917557478">
        <ele>336.60000000000002</ele>
        <time>2017-11-12T07:56:16Z</time>
      </trkpt>
      <trkpt lat="45.91090265661478" lon="8.487236704677343">
        <ele>337.07999999999998</ele>
        <time>2017-11-12T07:56:23Z</time>
      </trkpt>
      <trkpt lat="45.910809449851513" lon="8.48731474019587">
        <ele>339</ele>
        <time>2017-11-12T07:56:35Z</time>
      </trkpt>
      <trkpt lat="45.910741472616792" lon="8.487395541742444">
        <ele>340.44</ele>
        <time>2017-11-12T07:56:45Z</time>
      </trkpt>
      <trkpt lat="45.910689169541001" lon="8.487465614452958">
        <ele>341.88999999999999</ele>
        <time>2017-11-12T07:56:53Z</time>
      </trkpt>
      <trkpt lat="45.910651870071888" lon="8.487532585859299">
        <ele>342.85000000000002</ele>
        <time>2017-11-12T07:57:01Z</time>
      </trkpt>
      <trkpt lat="45.910599399358034" lon="8.487597545608878">
        <ele>344.29000000000002</ele>
        <time>2017-11-12T07:57:09Z</time>
      </trkpt>
      <trkpt lat="45.91052982956171" lon="8.48758983425796">
        <ele>345.73000000000002</ele>
        <time>2017-11-12T07:57:18Z</time>
      </trkpt>
      <trkpt lat="45.910465456545353" lon="8.487522695213556">
        <ele>346.69</ele>
        <time>2017-11-12T07:57:28Z</time>
      </trkpt>
      <trkpt lat="45.91040225699544" lon="8.48746812902391">
        <ele>347.64999999999998</ele>
        <time>2017-11-12T07:57:37Z</time>
      </trkpt>
      <trkpt lat="45.910337381064892" lon="8.487399816513062">
        <ele>349.10000000000002</ele>
        <time>2017-11-12T07:57:47Z</time>
      </trkpt>
      <trkpt lat="45.910296896472573" lon="8.487312057986856">
        <ele>351.01999999999998</ele>
        <time>2017-11-12T07:57:57Z</time>
      </trkpt>
      <trkpt lat="45.910271918401122" lon="8.487216671928763">
        <ele>352.94</ele>
        <time>2017-11-12T07:58:06Z</time>
      </trkpt>
      <trkpt lat="45.910245766863227" lon="8.487132098525763">
        <ele>353.42000000000002</ele>
        <time>2017-11-12T07:58:13Z</time>
      </trkpt>
      <trkpt lat="45.910205449908972" lon="8.48704987205565">
        <ele>354.86000000000001</ele>
        <time>2017-11-12T07:58:22Z</time>
      </trkpt>
      <trkpt lat="45.910104531794786" lon="8.487087758257985">
        <ele>356.31</ele>
        <time>2017-11-12T07:58:34Z</time>
      </trkpt>
      <trkpt lat="45.910051222890615" lon="8.487119106575847">
        <ele>356.31</ele>
        <time>2017-11-12T07:58:40Z</time>
      </trkpt>
      <trkpt lat="45.909967487677932" lon="8.487231507897377">
        <ele>357.26999999999998</ele>
        <time>2017-11-12T07:58:52Z</time>
      </trkpt>
      <trkpt lat="45.909895654767752" lon="8.487349357455969">
        <ele>358.70999999999998</ele>
        <time>2017-11-12T07:59:04Z</time>
      </trkpt>
      <trkpt lat="45.90983890928328" lon="8.487424459308386">
        <ele>359.67000000000002</ele>
        <time>2017-11-12T07:59:15Z</time>
      </trkpt>
      <trkpt lat="45.909787444397807" lon="8.487515235319734">
        <ele>361.11000000000001</ele>
        <time>2017-11-12T07:59:26Z</time>
      </trkpt>
      <trkpt lat="45.909718545153737" lon="8.487572316080332">
        <ele>362.55000000000001</ele>
        <time>2017-11-12T07:59:37Z</time>
      </trkpt>
      <trkpt lat="45.909652076661587" lon="8.487593857571483">
        <ele>364</ele>
        <time>2017-11-12T07:59:48Z</time>
      </trkpt>
      <trkpt lat="45.90960044413805" lon="8.487606514245272">
        <ele>365.92000000000002</ele>
        <time>2017-11-12T07:59:59Z</time>
      </trkpt>
      <trkpt lat="45.90953640639782" lon="8.487621434032917">
        <ele>367.83999999999997</ele>
        <time>2017-11-12T08:00:09Z</time>
      </trkpt>
      <trkpt lat="45.909456694498658" lon="8.487634090706706">
        <ele>369.75999999999999</ele>
        <time>2017-11-12T08:00:20Z</time>
      </trkpt>
      <trkpt lat="45.909400368109345" lon="8.487632498145104">
        <ele>370.73000000000002</ele>
        <time>2017-11-12T08:00:31Z</time>
      </trkpt>
      <trkpt lat="45.909395925700665" lon="8.487637862563133">
        <ele>371.20999999999998</ele>
        <time>2017-11-12T08:00:44Z</time>
      </trkpt>
      <trkpt lat="45.909398775547743" lon="8.487614309415221">
        <ele>371.20999999999998</ele>
        <time>2017-11-12T08:00:54Z</time>
      </trkpt>
      <trkpt lat="45.90937958098948" lon="8.487569633871317">
        <ele>371.20999999999998</ele>
        <time>2017-11-12T08:01:11Z</time>
      </trkpt>
      <trkpt lat="45.909382430836558" lon="8.487543314695358">
        <ele>371.69</ele>
        <time>2017-11-12T08:01:25Z</time>
      </trkpt>
      <trkpt lat="45.909411683678627" lon="8.487482713535428">
        <ele>372.64999999999998</ele>
        <time>2017-11-12T08:01:35Z</time>
      </trkpt>
      <trkpt lat="45.909440685063601" lon="8.48746812902391">
        <ele>373.13</ele>
        <time>2017-11-12T08:01:49Z</time>
      </trkpt>
      <trkpt lat="45.909454599022865" lon="8.487411634996533">
        <ele>373.13</ele>
        <time>2017-11-12T08:02:02Z</time>
      </trkpt>
      <trkpt lat="45.90947387740016" lon="8.487345669418573">
        <ele>374.08999999999997</ele>
        <time>2017-11-12T08:02:14Z</time>
      </trkpt>
      <trkpt lat="45.909493239596486" lon="8.487218013033271">
        <ele>375.52999999999997</ele>
        <time>2017-11-12T08:02:25Z</time>
      </trkpt>
      <trkpt lat="45.909508243203163" lon="8.487077029421926">
        <ele>377.44999999999999</ele>
        <time>2017-11-12T08:02:38Z</time>
      </trkpt>
      <trkpt lat="45.909519139677286" lon="8.486966136842966">
        <ele>379.38</ele>
        <time>2017-11-12T08:02:51Z</time>
      </trkpt>
      <trkpt lat="45.909533137455583" lon="8.486879635602236">
        <ele>381.30000000000001</ele>
        <time>2017-11-12T08:03:02Z</time>
      </trkpt>
      <trkpt lat="45.909536490216851" lon="8.486747033894062">
        <ele>384.18000000000001</ele>
        <time>2017-11-12T08:03:17Z</time>
      </trkpt>
      <trkpt lat="45.909534730017185" lon="8.48662231117487">
        <ele>386.11000000000001</ele>
        <time>2017-11-12T08:03:30Z</time>
      </trkpt>
      <trkpt lat="45.90958041138947" lon="8.486525248736143">
        <ele>387.55000000000001</ele>
        <time>2017-11-12T08:03:43Z</time>
      </trkpt>
      <trkpt lat="45.909575549885631" lon="8.486449643969536">
        <ele>389.47000000000003</ele>
        <time>2017-11-12T08:03:56Z</time>
      </trkpt>
      <trkpt lat="45.909589296206832" lon="8.486349312588573">
        <ele>390.91000000000003</ele>
        <time>2017-11-12T08:04:08Z</time>
      </trkpt>
      <trkpt lat="45.909601952880621" lon="8.486264823004603">
        <ele>392.83999999999997</ele>
        <time>2017-11-12T08:04:18Z</time>
      </trkpt>
      <trkpt lat="45.909592900425196" lon="8.486160971224308">
        <ele>394.75999999999999</ele>
        <time>2017-11-12T08:04:31Z</time>
      </trkpt>
      <trkpt lat="45.909564904868603" lon="8.486075391992927">
        <ele>396.68000000000001</ele>
        <time>2017-11-12T08:04:42Z</time>
      </trkpt>
      <trkpt lat="45.909570436924696" lon="8.486027950420976">
        <ele>398.12</ele>
        <time>2017-11-12T08:04:53Z</time>
      </trkpt>
      <trkpt lat="45.909549817442894" lon="8.485979335382581">
        <ele>399.56999999999999</ele>
        <time>2017-11-12T08:05:02Z</time>
      </trkpt>
      <trkpt lat="45.90954621322453" lon="8.485901383683085">
        <ele>400.52999999999997</ele>
        <time>2017-11-12T08:05:11Z</time>
      </trkpt>
      <trkpt lat="45.909537160769105" lon="8.485793508589268">
        <ele>402.93000000000001</ele>
        <time>2017-11-12T08:05:23Z</time>
      </trkpt>
      <trkpt lat="45.909518385306001" lon="8.485726034268737">
        <ele>403.88999999999999</ele>
        <time>2017-11-12T08:05:32Z</time>
      </trkpt>
      <trkpt lat="45.909523079171777" lon="8.485641209408641">
        <ele>405.81</ele>
        <time>2017-11-12T08:05:43Z</time>
      </trkpt>
      <trkpt lat="45.909521738067269" lon="8.485562335699797">
        <ele>407.74000000000001</ele>
        <time>2017-11-12T08:05:55Z</time>
      </trkpt>
      <trkpt lat="45.909514026716352" lon="8.485471643507481">
        <ele>410.13999999999999</ele>
        <time>2017-11-12T08:06:09Z</time>
      </trkpt>
      <trkpt lat="45.909496089443564" lon="8.485310794785619">
        <ele>412.06</ele>
        <time>2017-11-12T08:06:24Z</time>
      </trkpt>
      <trkpt lat="45.909513272345066" lon="8.485225215554237">
        <ele>414.47000000000003</ele>
        <time>2017-11-12T08:06:37Z</time>
      </trkpt>
      <trkpt lat="45.90949198231101" lon="8.485113400965929">
        <ele>416.38999999999999</ele>
        <time>2017-11-12T08:06:50Z</time>
      </trkpt>
      <trkpt lat="45.909469351172447" lon="8.485077191144228">
        <ele>417.35000000000002</ele>
        <time>2017-11-12T08:07:01Z</time>
      </trkpt>
      <trkpt lat="45.909433644264936" lon="8.485046429559588">
        <ele>418.79000000000002</ele>
        <time>2017-11-12T08:07:11Z</time>
      </trkpt>
      <trkpt lat="45.909393075853586" lon="8.485000748187304">
        <ele>420.23000000000002</ele>
        <time>2017-11-12T08:07:22Z</time>
      </trkpt>
      <trkpt lat="45.909341359511018" lon="8.484886586666107">
        <ele>422.16000000000003</ele>
        <time>2017-11-12T08:07:35Z</time>
      </trkpt>
      <trkpt lat="45.909292828291655" lon="8.484808802604675">
        <ele>423.60000000000002</ele>
        <time>2017-11-12T08:07:46Z</time>
      </trkpt>
      <trkpt lat="45.909258462488651" lon="8.48472255282104">
        <ele>425.04000000000002</ele>
        <time>2017-11-12T08:07:58Z</time>
      </trkpt>
      <trkpt lat="45.909233149141073" lon="8.48463261500001">
        <ele>426.48000000000002</ele>
        <time>2017-11-12T08:08:08Z</time>
      </trkpt>
      <trkpt lat="45.90918461792171" lon="8.484581233933568">
        <ele>427.92000000000002</ele>
        <time>2017-11-12T08:08:19Z</time>
      </trkpt>
      <trkpt lat="45.909149581566453" lon="8.484517280012369">
        <ele>429.37</ele>
        <time>2017-11-12T08:08:31Z</time>
      </trkpt>
      <trkpt lat="45.909156035631895" lon="8.484453745186329">
        <ele>430.81</ele>
        <time>2017-11-12T08:08:42Z</time>
      </trkpt>
      <trkpt lat="45.90915528126061" lon="8.484325166791678">
        <ele>433.20999999999998</ele>
        <time>2017-11-12T08:08:56Z</time>
      </trkpt>
      <trkpt lat="45.909104403108358" lon="8.484177980571985">
        <ele>435.13</ele>
        <time>2017-11-12T08:09:10Z</time>
      </trkpt>
      <trkpt lat="45.909071797505021" lon="8.484106902033091">
        <ele>437.06</ele>
        <time>2017-11-12T08:09:21Z</time>
      </trkpt>
      <trkpt lat="45.909052770584822" lon="8.484005145728588">
        <ele>438.5</ele>
        <time>2017-11-12T08:09:32Z</time>
      </trkpt>
      <trkpt lat="45.90904782526195" lon="8.483894839882851">
        <ele>440.42000000000002</ele>
        <time>2017-11-12T08:09:44Z</time>
      </trkpt>
      <trkpt lat="45.909039527177811" lon="8.483790317550302">
        <ele>442.33999999999997</ele>
        <time>2017-11-12T08:09:58Z</time>
      </trkpt>
      <trkpt lat="45.9090262837708" lon="8.483799118548632">
        <ele>442.81999999999999</ele>
        <time>2017-11-12T08:10:09Z</time>
      </trkpt>
      <trkpt lat="45.909009771421552" lon="8.483809512108564">
        <ele>443.31</ele>
        <time>2017-11-12T08:10:13Z</time>
      </trkpt>
      <trkpt lat="45.909048998728395" lon="8.483769614249468">
        <ele>442.33999999999997</ele>
        <time>2017-11-12T08:10:22Z</time>
      </trkpt>
      <trkpt lat="45.909039862453938" lon="8.483781851828098">
        <ele>442.33999999999997</ele>
        <time>2017-11-12T08:10:32Z</time>
      </trkpt>
      <trkpt lat="45.909035168588161" lon="8.483823174610734">
        <ele>442.33999999999997</ele>
        <time>2017-11-12T08:10:45Z</time>
      </trkpt>
      <trkpt lat="45.909032318741083" lon="8.483823174610734">
        <ele>442.81999999999999</ele>
        <time>2017-11-12T08:10:54Z</time>
      </trkpt>
      <trkpt lat="45.909040113911033" lon="8.483773302286863">
        <ele>443.31</ele>
        <time>2017-11-12T08:11:04Z</time>
      </trkpt>
      <trkpt lat="45.909071043133736" lon="8.483750335872173">
        <ele>443.31</ele>
        <time>2017-11-12T08:11:18Z</time>
      </trkpt>
      <trkpt lat="45.909067606553435" lon="8.483754945918918">
        <ele>443.79000000000002</ele>
        <time>2017-11-12T08:11:28Z</time>
      </trkpt>
      <trkpt lat="45.909082526341081" lon="8.483721166849136">
        <ele>445.70999999999998</ele>
        <time>2017-11-12T08:11:37Z</time>
      </trkpt>
      <trkpt lat="45.909060314297676" lon="8.483723681420088">
        <ele>445.23000000000002</ele>
        <time>2017-11-12T08:11:50Z</time>
      </trkpt>
      <trkpt lat="45.90904338285327" lon="8.483759388327599">
        <ele>444.75</ele>
        <time>2017-11-12T08:12:00Z</time>
      </trkpt>
      <trkpt lat="45.909042041748762" lon="8.483824348077178">
        <ele>443.79000000000002</ele>
        <time>2017-11-12T08:12:09Z</time>
      </trkpt>
      <trkpt lat="45.909054195508361" lon="8.483814457431436">
        <ele>443.79000000000002</ele>
        <time>2017-11-12T08:12:24Z</time>
      </trkpt>
      <trkpt lat="45.909047406166792" lon="8.4838283713907">
        <ele>443.79000000000002</ele>
        <time>2017-11-12T08:12:37Z</time>
      </trkpt>
      <trkpt lat="45.909060565754771" lon="8.48389140330255">
        <ele>443.79000000000002</ele>
        <time>2017-11-12T08:12:58Z</time>
      </trkpt>
      <trkpt lat="45.909102223813534" lon="8.483805572614074">
        <ele>443.79000000000002</ele>
        <time>2017-11-12T08:13:17Z</time>
      </trkpt>
      <trkpt lat="45.909094680100679" lon="8.483734913170338">
        <ele>444.26999999999998</ele>
        <time>2017-11-12T08:13:31Z</time>
      </trkpt>
      <trkpt lat="45.909091662615538" lon="8.483757795765996">
        <ele>444.26999999999998</ele>
        <time>2017-11-12T08:13:54Z</time>
      </trkpt>
      <trkpt lat="45.909089231863618" lon="8.48363826982677">
        <ele>446.19</ele>
        <time>2017-11-12T08:14:05Z</time>
      </trkpt>
      <trkpt lat="45.90914455242455" lon="8.483613794669509">
        <ele>448.11000000000001</ele>
        <time>2017-11-12T08:14:16Z</time>
      </trkpt>
      <trkpt lat="45.90917531400919" lon="8.483583368360996">
        <ele>449.06999999999999</ele>
        <time>2017-11-12T08:14:24Z</time>
      </trkpt>
      <trkpt lat="45.909220911562443" lon="8.483607592061162">
        <ele>451</ele>
        <time>2017-11-12T08:14:35Z</time>
      </trkpt>
      <trkpt lat="45.909285955131054" lon="8.483606083318591">
        <ele>452.44</ele>
        <time>2017-11-12T08:14:43Z</time>
      </trkpt>
      <trkpt lat="45.909366086125374" lon="8.483563167974353">
        <ele>453.88</ele>
        <time>2017-11-12T08:14:55Z</time>
      </trkpt>
      <trkpt lat="45.909352507442236" lon="8.48346090875566">
        <ele>456.27999999999997</ele>
        <time>2017-11-12T08:15:07Z</time>
      </trkpt>
      <trkpt lat="45.909333815798163" lon="8.48348144441843">
        <ele>456.75999999999999</ele>
        <time>2017-11-12T08:15:18Z</time>
      </trkpt>
      <trkpt lat="45.909315124154091" lon="8.483480354771018">
        <ele>456.75999999999999</ele>
        <time>2017-11-12T08:15:27Z</time>
      </trkpt>
      <trkpt lat="45.909319818019867" lon="8.483483456075192">
        <ele>457.24000000000001</ele>
        <time>2017-11-12T08:15:39Z</time>
      </trkpt>
      <trkpt lat="45.909359799697995" lon="8.483455963432789">
        <ele>456.75999999999999</ele>
        <time>2017-11-12T08:15:57Z</time>
      </trkpt>
      <trkpt lat="45.909375473856926" lon="8.483459819108248">
        <ele>457.24000000000001</ele>
        <time>2017-11-12T08:16:16Z</time>
      </trkpt>
      <trkpt lat="45.909400787204504" lon="8.483465015888214">
        <ele>457.72000000000003</ele>
        <time>2017-11-12T08:16:34Z</time>
      </trkpt>
      <trkpt lat="45.909395171329379" lon="8.483458058908582">
        <ele>457.72000000000003</ele>
        <time>2017-11-12T08:16:53Z</time>
      </trkpt>
      <trkpt lat="45.909376395866275" lon="8.483439618721604">
        <ele>457.72000000000003</ele>
        <time>2017-11-12T08:17:07Z</time>
      </trkpt>
      <trkpt lat="45.909362733364105" lon="8.48342914134264">
        <ele>457.72000000000003</ele>
        <time>2017-11-12T08:17:28Z</time>
      </trkpt>
      <trkpt lat="45.909329792484641" lon="8.483420088887215">
        <ele>458.69</ele>
        <time>2017-11-12T08:17:37Z</time>
      </trkpt>
      <trkpt lat="45.909257289022207" lon="8.483444396406412">
        <ele>459.64999999999998</ele>
        <time>2017-11-12T08:17:47Z</time>
      </trkpt>
      <trkpt lat="45.909223342314363" lon="8.483410365879536">
        <ele>460.61000000000001</ele>
        <time>2017-11-12T08:17:58Z</time>
      </trkpt>
      <trkpt lat="45.909183360636234" lon="8.483411958441138">
        <ele>460.61000000000001</ele>
        <time>2017-11-12T08:18:15Z</time>
      </trkpt>
      <trkpt lat="45.909151928499341" lon="8.483401816338301">
        <ele>460.61000000000001</ele>
        <time>2017-11-12T08:18:19Z</time>
      </trkpt>
      <trkpt lat="45.909077078104019" lon="8.483393518254161">
        <ele>461.56999999999999</ele>
        <time>2017-11-12T08:18:28Z</time>
      </trkpt>
      <trkpt lat="45.909033576026559" lon="8.483368372544646">
        <ele>462.52999999999997</ele>
        <time>2017-11-12T08:18:37Z</time>
      </trkpt>
      <trkpt lat="45.908970711752772" lon="8.483363008126617">
        <ele>463.49000000000001</ele>
        <time>2017-11-12T08:18:45Z</time>
      </trkpt>
      <trkpt lat="45.908900052309036" lon="8.483330234885216">
        <ele>465.42000000000002</ele>
        <time>2017-11-12T08:18:59Z</time>
      </trkpt>
      <trkpt lat="45.90886015444994" lon="8.48331430926919">
        <ele>466.86000000000001</ele>
        <time>2017-11-12T08:19:07Z</time>
      </trkpt>
      <trkpt lat="45.908760577440262" lon="8.483298970386386">
        <ele>467.81999999999999</ele>
        <time>2017-11-12T08:19:20Z</time>
      </trkpt>
      <trkpt lat="45.908683212473989" lon="8.483356637880206">
        <ele>469.25999999999999</ele>
        <time>2017-11-12T08:19:31Z</time>
      </trkpt>
      <trkpt lat="45.908623868599534" lon="8.483403408899903">
        <ele>470.69999999999999</ele>
        <time>2017-11-12T08:19:40Z</time>
      </trkpt>
      <trkpt lat="45.908564608544111" lon="8.483433499932289">
        <ele>472.13999999999999</ele>
        <time>2017-11-12T08:19:51Z</time>
      </trkpt>
      <trkpt lat="45.908513059839606" lon="8.483449593186379">
        <ele>473.11000000000001</ele>
        <time>2017-11-12T08:20:03Z</time>
      </trkpt>
      <trkpt lat="45.908449692651629" lon="8.483459567651153">
        <ele>475.02999999999997</ele>
        <time>2017-11-12T08:20:14Z</time>
      </trkpt>
      <trkpt lat="45.908419182524085" lon="8.483391171321273">
        <ele>476.47000000000003</ele>
        <time>2017-11-12T08:20:24Z</time>
      </trkpt>
      <trkpt lat="45.90845949947834" lon="8.483289331197739">
        <ele>477.91000000000003</ele>
        <time>2017-11-12T08:20:37Z</time>
      </trkpt>
      <trkpt lat="45.908474083989859" lon="8.483211463317275">
        <ele>479.83999999999997</ele>
        <time>2017-11-12T08:20:49Z</time>
      </trkpt>
      <trkpt lat="45.908447345718741" lon="8.483132505789399">
        <ele>482.24000000000001</ele>
        <time>2017-11-12T08:21:03Z</time>
      </trkpt>
      <trkpt lat="45.908466959372163" lon="8.483022954314947">
        <ele>483.68000000000001</ele>
        <time>2017-11-12T08:21:14Z</time>
      </trkpt>
      <trkpt lat="45.908482717350125" lon="8.482937626540661">
        <ele>485.12</ele>
        <time>2017-11-12T08:21:25Z</time>
      </trkpt>
      <trkpt lat="45.908477436751127" lon="8.482785494998097">
        <ele>487.52999999999997</ele>
        <time>2017-11-12T08:21:44Z</time>
      </trkpt>
      <trkpt lat="45.908539714291692" lon="8.482761858031154">
        <ele>488.00999999999999</ele>
        <time>2017-11-12T08:21:54Z</time>
      </trkpt>
      <trkpt lat="45.908543905243278" lon="8.482755068689585">
        <ele>489.93000000000001</ele>
        <time>2017-11-12T08:21:57Z</time>
      </trkpt>
      <trkpt lat="45.90856603346765" lon="8.48268055357039">
        <ele>491.85000000000002</ele>
        <time>2017-11-12T08:22:11Z</time>
      </trkpt>
      <trkpt lat="45.908568799495697" lon="8.482610397040844">
        <ele>493.76999999999998</ele>
        <time>2017-11-12T08:22:23Z</time>
      </trkpt>
      <trkpt lat="45.908581623807549" lon="8.482546107843518">
        <ele>495.22000000000003</ele>
        <time>2017-11-12T08:22:33Z</time>
      </trkpt>
      <trkpt lat="45.908594448119402" lon="8.482422390952706">
        <ele>497.13999999999999</ele>
        <time>2017-11-12T08:22:47Z</time>
      </trkpt>
      <trkpt lat="45.908620180562139" lon="8.482346283271909">
        <ele>499.54000000000002</ele>
        <time>2017-11-12T08:23:01Z</time>
      </trkpt>
      <trkpt lat="45.908645829185843" lon="8.48229406401515">
        <ele>501.45999999999998</ele>
        <time>2017-11-12T08:23:13Z</time>
      </trkpt>
      <trkpt lat="45.908681284636259" lon="8.482197504490614">
        <ele>503.87</ele>
        <time>2017-11-12T08:23:27Z</time>
      </trkpt>
      <trkpt lat="45.908684218302369" lon="8.482138244435191">
        <ele>505.31</ele>
        <time>2017-11-12T08:23:39Z</time>
      </trkpt>
      <trkpt lat="45.90874046087265" lon="8.48214210011065">
        <ele>506.75</ele>
        <time>2017-11-12T08:23:51Z</time>
      </trkpt>
      <trkpt lat="45.908782789483666" lon="8.482051994651556">
        <ele>508.67000000000002</ele>
        <time>2017-11-12T08:24:03Z</time>
      </trkpt>
      <trkpt lat="45.908765187487006" lon="8.481993153691292">
        <ele>510.60000000000002</ele>
        <time>2017-11-12T08:24:14Z</time>
      </trkpt>
      <trkpt lat="45.908705927431583" lon="8.481979826465249">
        <ele>512.03999999999996</ele>
        <time>2017-11-12T08:24:25Z</time>
      </trkpt>
      <trkpt lat="45.908661419525743" lon="8.481967840343714">
        <ele>513.48000000000002</ele>
        <time>2017-11-12T08:24:36Z</time>
      </trkpt>
      <trkpt lat="45.908670471981168" lon="8.482014443725348">
        <ele>513.96000000000004</ele>
        <time>2017-11-12T08:24:54Z</time>
      </trkpt>
      <trkpt lat="45.908700479194522" lon="8.48199306987226">
        <ele>513.96000000000004</ele>
        <time>2017-11-12T08:25:17Z</time>
      </trkpt>
      <trkpt lat="45.90868815779686" lon="8.482012683525682">
        <ele>514.44000000000005</ele>
        <time>2017-11-12T08:25:38Z</time>
      </trkpt>
      <trkpt lat="45.908623281866312" lon="8.482061047106981">
        <ele>515.88</ele>
        <time>2017-11-12T08:25:48Z</time>
      </trkpt>
      <trkpt lat="45.908615486696362" lon="8.482066495344043">
        <ele>516.85000000000002</ele>
        <time>2017-11-12T08:26:00Z</time>
      </trkpt>
      <trkpt lat="45.908586904406548" lon="8.482099436223507">
        <ele>516.85000000000002</ele>
        <time>2017-11-12T08:26:14Z</time>
      </trkpt>
      <trkpt lat="45.90858262963593" lon="8.48206783644855">
        <ele>517.80999999999995</ele>
        <time>2017-11-12T08:26:25Z</time>
      </trkpt>
      <trkpt lat="45.908516580238938" lon="8.482106141746044">
        <ele>519.25</ele>
        <time>2017-11-12T08:26:37Z</time>
      </trkpt>
      <trkpt lat="45.908510629087687" lon="8.482029950246215">
        <ele>520.69000000000005</ele>
        <time>2017-11-12T08:26:46Z</time>
      </trkpt>
      <trkpt lat="45.908499984070659" lon="8.481948729604483">
        <ele>523.58000000000004</ele>
        <time>2017-11-12T08:26:58Z</time>
      </trkpt>
      <trkpt lat="45.908460337668657" lon="8.481899527832866">
        <ele>524.05999999999995</ele>
        <time>2017-11-12T08:27:08Z</time>
      </trkpt>
      <trkpt lat="45.908438544720411" lon="8.481868179515004">
        <ele>525.98000000000002</ele>
        <time>2017-11-12T08:27:18Z</time>
      </trkpt>
      <trkpt lat="45.908380039036274" lon="8.481877148151398">
        <ele>526.46000000000004</ele>
        <time>2017-11-12T08:27:31Z</time>
      </trkpt>
      <trkpt lat="45.908356318250299" lon="8.481913944706321">
        <ele>527.41999999999996</ele>
        <time>2017-11-12T08:27:45Z</time>
      </trkpt>
      <trkpt lat="45.908351121470332" lon="8.481959458440542">
        <ele>527.89999999999998</ele>
        <time>2017-11-12T08:27:59Z</time>
      </trkpt>
      <trkpt lat="45.908314576372504" lon="8.481940934434533">
        <ele>528.38</ele>
        <time>2017-11-12T08:28:15Z</time>
      </trkpt>
      <trkpt lat="45.908281216397882" lon="8.481868347153068">
        <ele>530.29999999999995</ele>
        <time>2017-11-12T08:28:27Z</time>
      </trkpt>
      <trkpt lat="45.908254394307733" lon="8.48178637214005">
        <ele>531.75</ele>
        <time>2017-11-12T08:28:38Z</time>
      </trkpt>
      <trkpt lat="45.908200750127435" lon="8.481773966923356">
        <ele>533.66999999999996</ele>
        <time>2017-11-12T08:28:50Z</time>
      </trkpt>
      <trkpt lat="45.908166719600558" lon="8.481684867292643">
        <ele>535.11000000000001</ele>
        <time>2017-11-12T08:29:03Z</time>
      </trkpt>
      <trkpt lat="45.908102514222264" lon="8.481643041595817">
        <ele>537.02999999999997</ele>
        <time>2017-11-12T08:29:15Z</time>
      </trkpt>
      <trkpt lat="45.908056832849979" lon="8.481592750176787">
        <ele>538.96000000000004</ele>
        <time>2017-11-12T08:29:26Z</time>
      </trkpt>
      <trkpt lat="45.908032525330782" lon="8.481533322483301">
        <ele>540.39999999999998</ele>
        <time>2017-11-12T08:29:35Z</time>
      </trkpt>
      <trkpt lat="45.907991705462337" lon="8.481481606140733">
        <ele>541.84000000000003</ele>
        <time>2017-11-12T08:29:46Z</time>
      </trkpt>
      <trkpt lat="45.908027580007911" lon="8.481444558128715">
        <ele>543.75999999999999</ele>
        <time>2017-11-12T08:29:57Z</time>
      </trkpt>
      <trkpt lat="45.908084912225604" lon="8.481400385499001">
        <ele>544.72000000000003</ele>
        <time>2017-11-12T08:30:07Z</time>
      </trkpt>
      <trkpt lat="45.908119864761829" lon="8.481356045231223">
        <ele>545.20000000000005</ele>
        <time>2017-11-12T08:30:23Z</time>
      </trkpt>
      <trkpt lat="45.90813847258687" lon="8.481302401050925">
        <ele>547.13</ele>
        <time>2017-11-12T08:30:36Z</time>
      </trkpt>
      <trkpt lat="45.908175939694047" lon="8.481238195672631">
        <ele>548.57000000000005</ele>
        <time>2017-11-12T08:30:46Z</time>
      </trkpt>
      <trkpt lat="45.908194044604897" lon="8.481174996122718">
        <ele>552.40999999999997</ele>
        <time>2017-11-12T08:31:00Z</time>
      </trkpt>
      <trkpt lat="45.908228829503059" lon="8.481131829321384">
        <ele>552.40999999999997</ele>
        <time>2017-11-12T08:31:10Z</time>
      </trkpt>
      <trkpt lat="45.908241150900722" lon="8.481063265353441">
        <ele>554.34000000000003</ele>
        <time>2017-11-12T08:31:24Z</time>
      </trkpt>
      <trkpt lat="45.908295633271337" lon="8.481041891500354">
        <ele>556.25999999999999</ele>
        <time>2017-11-12T08:31:35Z</time>
      </trkpt>
      <trkpt lat="45.90829529799521" lon="8.480979446321726">
        <ele>557.70000000000005</ele>
        <time>2017-11-12T08:31:45Z</time>
      </trkpt>
      <trkpt lat="45.908306865021586" lon="8.480913899838924">
        <ele>559.13999999999999</ele>
        <time>2017-11-12T08:31:56Z</time>
      </trkpt>
      <trkpt lat="45.908253639936447" lon="8.480895040556788">
        <ele>561.07000000000005</ele>
        <time>2017-11-12T08:32:08Z</time>
      </trkpt>
      <trkpt lat="45.908209467306733" lon="8.480858579277992">
        <ele>562.99000000000001</ele>
        <time>2017-11-12T08:32:19Z</time>
      </trkpt>
      <trkpt lat="45.908181220293045" lon="8.480819771066308">
        <ele>564.42999999999995</ele>
        <time>2017-11-12T08:32:28Z</time>
      </trkpt>
      <trkpt lat="45.90812087059021" lon="8.480776520445943">
        <ele>566.83000000000004</ele>
        <time>2017-11-12T08:32:43Z</time>
      </trkpt>
      <trkpt lat="45.908104609698057" lon="8.48071432672441">
        <ele>567.79999999999995</ele>
        <time>2017-11-12T08:32:52Z</time>
      </trkpt>
      <trkpt lat="45.908072926104069" lon="8.480695802718401">
        <ele>569.72000000000003</ele>
        <time>2017-11-12T08:33:02Z</time>
      </trkpt>
      <trkpt lat="45.908036129549146" lon="8.480713153257966">
        <ele>570.20000000000005</ele>
        <time>2017-11-12T08:33:12Z</time>
      </trkpt>
      <trkpt lat="45.908029926940799" lon="8.480612486600876">
        <ele>572.60000000000002</ele>
        <time>2017-11-12T08:33:25Z</time>
      </trkpt>
      <trkpt lat="45.908074686303735" lon="8.48052573390305">
        <ele>574.52999999999997</ele>
        <time>2017-11-12T08:33:39Z</time>
      </trkpt>
      <trkpt lat="45.908079631626606" lon="8.480457924306393">
        <ele>575.97000000000003</ele>
        <time>2017-11-12T08:33:52Z</time>
      </trkpt>
      <trkpt lat="45.908073596656322" lon="8.480472676455975">
        <ele>577.40999999999997</ele>
        <time>2017-11-12T08:34:02Z</time>
      </trkpt>
      <trkpt lat="45.908083990216255" lon="8.480390617623925">
        <ele>579.33000000000004</ele>
        <time>2017-11-12T08:34:15Z</time>
      </trkpt>
      <trkpt lat="45.908060856163502" lon="8.4803556650877">
        <ele>581.25</ele>
        <time>2017-11-12T08:34:28Z</time>
      </trkpt>
      <trkpt lat="45.908013498410583" lon="8.480335967615247">
        <ele>582.70000000000005</ele>
        <time>2017-11-12T08:34:39Z</time>
      </trkpt>
      <trkpt lat="45.907972427085042" lon="8.480297327041626">
        <ele>584.62</ele>
        <time>2017-11-12T08:34:52Z</time>
      </trkpt>
      <trkpt lat="45.907905707135797" lon="8.480263380333781">
        <ele>586.53999999999996</ele>
        <time>2017-11-12T08:35:06Z</time>
      </trkpt>
      <trkpt lat="45.907888440415263" lon="8.480165312066674">
        <ele>587.98000000000002</ele>
        <time>2017-11-12T08:35:17Z</time>
      </trkpt>
      <trkpt lat="45.907891038805246" lon="8.480090545490384">
        <ele>589.90999999999997</ele>
        <time>2017-11-12T08:35:30Z</time>
      </trkpt>
      <trkpt lat="45.90793814510107" lon="8.480059616267681">
        <ele>591.35000000000002</ele>
        <time>2017-11-12T08:35:41Z</time>
      </trkpt>
      <trkpt lat="45.907914927229285" lon="8.480018880218267">
        <ele>593.26999999999998</ele>
        <time>2017-11-12T08:35:52Z</time>
      </trkpt>
      <trkpt lat="45.907887769863009" lon="8.479978647083044">
        <ele>594.71000000000004</ele>
        <time>2017-11-12T08:36:01Z</time>
      </trkpt>
      <trkpt lat="45.907886093482375" lon="8.479919889941812">
        <ele>596.63999999999999</ele>
        <time>2017-11-12T08:36:12Z</time>
      </trkpt>
      <trkpt lat="45.907933032140136" lon="8.479890218004584">
        <ele>597.12</ele>
        <time>2017-11-12T08:36:26Z</time>
      </trkpt>
      <trkpt lat="45.907934959977865" lon="8.479889715090394">
        <ele>597.60000000000002</ele>
        <time>2017-11-12T08:36:44Z</time>
      </trkpt>
      <trkpt lat="45.907901851460338" lon="8.479862725362182">
        <ele>598.08000000000004</ele>
        <time>2017-11-12T08:37:02Z</time>
      </trkpt>
      <trkpt lat="45.907864971086383" lon="8.479830035939813">
        <ele>597.60000000000002</ele>
        <time>2017-11-12T08:37:20Z</time>
      </trkpt>
      <trkpt lat="45.907853068783879" lon="8.479836406186223">
        <ele>597.60000000000002</ele>
        <time>2017-11-12T08:37:34Z</time>
      </trkpt>
      <trkpt lat="45.907883998006582" lon="8.479852499440312">
        <ele>598.55999999999995</ele>
        <time>2017-11-12T08:37:50Z</time>
      </trkpt>
      <trkpt lat="45.907904198393226" lon="8.479864401742816">
        <ele>598.55999999999995</ele>
        <time>2017-11-12T08:38:01Z</time>
      </trkpt>
      <trkpt lat="45.907919369637966" lon="8.479861048981547">
        <ele>598.55999999999995</ele>
        <time>2017-11-12T08:38:20Z</time>
      </trkpt>
      <trkpt lat="45.907906293869019" lon="8.47988510504365">
        <ele>598.55999999999995</ele>
        <time>2017-11-12T08:38:38Z</time>
      </trkpt>
      <trkpt lat="45.90790931135416" lon="8.479916453361511">
        <ele>598.55999999999995</ele>
        <time>2017-11-12T08:39:02Z</time>
      </trkpt>
      <trkpt lat="45.907886764034629" lon="8.47989683970809">
        <ele>598.55999999999995</ele>
        <time>2017-11-12T08:39:17Z</time>
      </trkpt>
      <trkpt lat="45.907882740721107" lon="8.479900946840644">
        <ele>599.03999999999996</ele>
        <time>2017-11-12T08:39:33Z</time>
      </trkpt>
      <trkpt lat="45.907887434586883" lon="8.479909831658006">
        <ele>599.03999999999996</ele>
        <time>2017-11-12T08:39:52Z</time>
      </trkpt>
      <trkpt lat="45.907883327454329" lon="8.479912681505084">
        <ele>599.03999999999996</ele>
        <time>2017-11-12T08:40:10Z</time>
      </trkpt>
      <trkpt lat="45.907891793176532" lon="8.479918548837304">
        <ele>599.03999999999996</ele>
        <time>2017-11-12T08:40:29Z</time>
      </trkpt>
      <trkpt lat="45.907889027148485" lon="8.479915615171194">
        <ele>599.03999999999996</ele>
        <time>2017-11-12T08:40:46Z</time>
      </trkpt>
      <trkpt lat="45.90787754394114" lon="8.479887451976538">
        <ele>599.03999999999996</ele>
        <time>2017-11-12T08:41:01Z</time>
      </trkpt>
      <trkpt lat="45.907883159816265" lon="8.479876387864351">
        <ele>599.51999999999998</ele>
        <time>2017-11-12T08:41:25Z</time>
      </trkpt>
      <trkpt lat="45.907886093482375" lon="8.47989784553647">
        <ele>599.51999999999998</ele>
        <time>2017-11-12T08:41:43Z</time>
      </trkpt>
      <trkpt lat="45.907905036583543" lon="8.479931373149157">
        <ele>599.51999999999998</ele>
        <time>2017-11-12T08:42:05Z</time>
      </trkpt>
      <trkpt lat="45.907886931672692" lon="8.479907736182213">
        <ele>599.51999999999998</ele>
        <time>2017-11-12T08:42:26Z</time>
      </trkpt>
      <trkpt lat="45.907889865338802" lon="8.479886529967189">
        <ele>599.51999999999998</ele>
        <time>2017-11-12T08:42:46Z</time>
      </trkpt>
      <trkpt lat="45.907877376303077" lon="8.479899438098073">
        <ele>599.51999999999998</ele>
        <time>2017-11-12T08:43:04Z</time>
      </trkpt>
      <trkpt lat="45.907866898924112" lon="8.479848224669695">
        <ele>600</ele>
        <time>2017-11-12T08:43:22Z</time>
      </trkpt>
      <trkpt lat="45.907885422930121" lon="8.47981913946569">
        <ele>600</ele>
        <time>2017-11-12T08:43:37Z</time>
      </trkpt>
      <trkpt lat="45.907886093482375" lon="8.479782929643989">
        <ele>601.44000000000005</ele>
        <time>2017-11-12T08:43:47Z</time>
      </trkpt>
      <trkpt lat="45.907883830368519" lon="8.479785276576877">
        <ele>602.39999999999998</ele>
        <time>2017-11-12T08:43:56Z</time>
      </trkpt>
      <trkpt lat="45.90785164386034" lon="8.479774296283722">
        <ele>603.85000000000002</ele>
        <time>2017-11-12T08:44:05Z</time>
      </trkpt>
      <trkpt lat="45.907858768478036" lon="8.479702128097415">
        <ele>604.80999999999995</ele>
        <time>2017-11-12T08:44:15Z</time>
      </trkpt>
      <trkpt lat="45.907863797619939" lon="8.479610849171877">
        <ele>607.21000000000004</ele>
        <time>2017-11-12T08:44:28Z</time>
      </trkpt>
      <trkpt lat="45.907884081825614" lon="8.479543374851346">
        <ele>609.13</ele>
        <time>2017-11-12T08:44:40Z</time>
      </trkpt>
      <trkpt lat="45.90792833827436" lon="8.479509176686406">
        <ele>610.57000000000005</ele>
        <time>2017-11-12T08:44:51Z</time>
      </trkpt>
      <trkpt lat="45.907901097089052" lon="8.479438936337829">
        <ele>612.5</ele>
        <time>2017-11-12T08:45:01Z</time>
      </trkpt>
      <trkpt lat="45.907862121239305" lon="8.479347908869386">
        <ele>614.41999999999996</ele>
        <time>2017-11-12T08:45:14Z</time>
      </trkpt>
      <trkpt lat="45.907841082662344" lon="8.479266101494432">
        <ele>616.34000000000003</ele>
        <time>2017-11-12T08:45:26Z</time>
      </trkpt>
      <trkpt lat="45.907885087653995" lon="8.479174822568893">
        <ele>618.25999999999999</ele>
        <time>2017-11-12T08:45:39Z</time>
      </trkpt>
      <trkpt lat="45.907889362424612" lon="8.479084381833673">
        <ele>619.71000000000004</ele>
        <time>2017-11-12T08:45:49Z</time>
      </trkpt>
      <trkpt lat="45.907896403223276" lon="8.478982541710138">
        <ele>621.63</ele>
        <time>2017-11-12T08:46:02Z</time>
      </trkpt>
      <trkpt lat="45.907918028533459" lon="8.478919174522162">
        <ele>623.07000000000005</ele>
        <time>2017-11-12T08:46:13Z</time>
      </trkpt>
      <trkpt lat="45.90796111151576" lon="8.478826386854053">
        <ele>624.99000000000001</ele>
        <time>2017-11-12T08:46:25Z</time>
      </trkpt>
      <trkpt lat="45.907967146486044" lon="8.478751117363572">
        <ele>626.91999999999996</ele>
        <time>2017-11-12T08:46:39Z</time>
      </trkpt>
      <trkpt lat="45.907990531995893" lon="8.478679955005646">
        <ele>628.84000000000003</ele>
        <time>2017-11-12T08:46:50Z</time>
      </trkpt>
      <trkpt lat="45.908025735989213" lon="8.478606278076768">
        <ele>630.27999999999997</ele>
        <time>2017-11-12T08:47:01Z</time>
      </trkpt>
      <trkpt lat="45.908044427633286" lon="8.478515921160579">
        <ele>632.20000000000005</ele>
        <time>2017-11-12T08:47:14Z</time>
      </trkpt>
      <trkpt lat="45.908081056550145" lon="8.478462360799313">
        <ele>633.64999999999998</ele>
        <time>2017-11-12T08:47:23Z</time>
      </trkpt>
      <trkpt lat="45.908155236393213" lon="8.47842950373888">
        <ele>635.57000000000005</ele>
        <time>2017-11-12T08:47:36Z</time>
      </trkpt>
      <trkpt lat="45.908220615237951" lon="8.478413913398981">
        <ele>637.00999999999999</ele>
        <time>2017-11-12T08:47:48Z</time>
      </trkpt>
      <trkpt lat="45.908251041546464" lon="8.478396479040384">
        <ele>638.45000000000005</ele>
        <time>2017-11-12T08:47:58Z</time>
      </trkpt>
      <trkpt lat="45.908324383199215" lon="8.478424893692136">
        <ele>640.38</ele>
        <time>2017-11-12T08:48:10Z</time>
      </trkpt>
      <trkpt lat="45.908361934125423" lon="8.478373428806663">
        <ele>641.82000000000005</ele>
        <time>2017-11-12T08:48:20Z</time>
      </trkpt>
      <trkpt lat="45.908390516415238" lon="8.478353647515178">
        <ele>643.25999999999999</ele>
        <time>2017-11-12T08:48:33Z</time>
      </trkpt>
      <trkpt lat="45.908364448696375" lon="8.478339146822691">
        <ele>643.25999999999999</ele>
        <time>2017-11-12T08:48:47Z</time>
      </trkpt>
      <trkpt lat="45.908399149775505" lon="8.478327160701156">
        <ele>644.22000000000003</ele>
        <time>2017-11-12T08:49:01Z</time>
      </trkpt>
      <trkpt lat="45.908452207222581" lon="8.478299165144563">
        <ele>647.10000000000002</ele>
        <time>2017-11-12T08:49:10Z</time>
      </trkpt>
      <trkpt lat="45.908495038747787" lon="8.478264631703496">
        <ele>647.59000000000003</ele>
        <time>2017-11-12T08:49:22Z</time>
      </trkpt>
      <trkpt lat="45.908535188063979" lon="8.478209394961596">
        <ele>649.02999999999997</ele>
        <time>2017-11-12T08:49:33Z</time>
      </trkpt>
      <trkpt lat="45.908541977405548" lon="8.478147704154253">
        <ele>651.42999999999995</ele>
        <time>2017-11-12T08:49:45Z</time>
      </trkpt>
      <trkpt lat="45.908545330166817" lon="8.478101016953588">
        <ele>652.38999999999999</ele>
        <time>2017-11-12T08:49:55Z</time>
      </trkpt>
      <trkpt lat="45.908534768968821" lon="8.478069668635726">
        <ele>653.83000000000004</ele>
        <time>2017-11-12T08:50:05Z</time>
      </trkpt>
      <trkpt lat="45.908522363752127" lon="8.478064639493823">
        <ele>654.30999999999995</ele>
        <time>2017-11-12T08:50:14Z</time>
      </trkpt>
      <trkpt lat="45.908565195277333" lon="8.478073440492153">
        <ele>653.35000000000002</ele>
        <time>2017-11-12T08:50:27Z</time>
      </trkpt>
      <trkpt lat="45.908577935770154" lon="8.478112835437059">
        <ele>652.87</ele>
        <time>2017-11-12T08:50:40Z</time>
      </trkpt>
      <trkpt lat="45.908589251339436" lon="8.478110488504171">
        <ele>652.38999999999999</ele>
        <time>2017-11-12T08:50:49Z</time>
      </trkpt>
      <trkpt lat="45.908590508624911" lon="8.478082660585642">
        <ele>652.38999999999999</ele>
        <time>2017-11-12T08:50:59Z</time>
      </trkpt>
      <trkpt lat="45.908557903021574" lon="8.478070674464107">
        <ele>652.38999999999999</ele>
        <time>2017-11-12T08:51:11Z</time>
      </trkpt>
      <trkpt lat="45.908547341823578" lon="8.47805324010551">
        <ele>652.38999999999999</ele>
        <time>2017-11-12T08:51:24Z</time>
      </trkpt>
      <trkpt lat="45.908553628250957" lon="8.478090120479465">
        <ele>652.87</ele>
        <time>2017-11-12T08:51:38Z</time>
      </trkpt>
      <trkpt lat="45.908551448956132" lon="8.478088779374957">
        <ele>653.35000000000002</ele>
        <time>2017-11-12T08:51:56Z</time>
      </trkpt>
      <trkpt lat="45.908519010990858" lon="8.478098418563604">
        <ele>654.30999999999995</ele>
        <time>2017-11-12T08:52:07Z</time>
      </trkpt>
      <trkpt lat="45.908474838361144" lon="8.478054665029049">
        <ele>656.24000000000001</ele>
        <time>2017-11-12T08:52:19Z</time>
      </trkpt>
      <trkpt lat="45.908451704308391" lon="8.478036224842072">
        <ele>657.67999999999995</ele>
        <time>2017-11-12T08:52:30Z</time>
      </trkpt>
      <trkpt lat="45.908459331840277" lon="8.477963805198669">
        <ele>659.12</ele>
        <time>2017-11-12T08:52:42Z</time>
      </trkpt>
      <trkpt lat="45.908462097868323" lon="8.477934049442411">
        <ele>659.12</ele>
        <time>2017-11-12T08:52:58Z</time>
      </trkpt>
      <trkpt lat="45.908483136445284" lon="8.477949304506183">
        <ele>659.60000000000002</ele>
        <time>2017-11-12T08:53:17Z</time>
      </trkpt>
      <trkpt lat="45.908498810604215" lon="8.477861965075135">
        <ele>661.51999999999998</ele>
        <time>2017-11-12T08:53:30Z</time>
      </trkpt>
      <trkpt lat="45.908486740663648" lon="8.477795161306858">
        <ele>663.45000000000005</ele>
        <time>2017-11-12T08:53:41Z</time>
      </trkpt>
      <trkpt lat="45.908515406772494" lon="8.477716036140919">
        <ele>665.37</ele>
        <time>2017-11-12T08:53:54Z</time>
      </trkpt>
      <trkpt lat="45.908515155315399" lon="8.477656189352274">
        <ele>668.25</ele>
        <time>2017-11-12T08:54:07Z</time>
      </trkpt>
      <trkpt lat="45.90853032656014" lon="8.477578824386001">
        <ele>670.17999999999995</ele>
        <time>2017-11-12T08:54:18Z</time>
      </trkpt>
      <trkpt lat="45.908578103408217" lon="8.477495005354285">
        <ele>672.10000000000002</ele>
        <time>2017-11-12T08:54:30Z</time>
      </trkpt>
      <trkpt lat="45.908630741760135" lon="8.477418310940266">
        <ele>672.58000000000004</ele>
        <time>2017-11-12T08:54:39Z</time>
      </trkpt>
      <trkpt lat="45.908699976280332" lon="8.477315129712224">
        <ele>673.53999999999996</ele>
        <time>2017-11-12T08:54:50Z</time>
      </trkpt>
      <trkpt lat="45.908738616853952" lon="8.477216642349958">
        <ele>675.94000000000005</ele>
        <time>2017-11-12T08:55:02Z</time>
      </trkpt>
      <trkpt lat="45.908797206357121" lon="8.477200632914901">
        <ele>677.38999999999999</ele>
        <time>2017-11-12T08:55:13Z</time>
      </trkpt>
      <trkpt lat="45.908781448379159" lon="8.477151347324252">
        <ele>679.30999999999995</ele>
        <time>2017-11-12T08:55:22Z</time>
      </trkpt>
      <trkpt lat="45.908792093396187" lon="8.477111365646124">
        <ele>681.23000000000002</ele>
        <time>2017-11-12T08:55:33Z</time>
      </trkpt>
      <trkpt lat="45.908857388421893" lon="8.477052273228765">
        <ele>683.14999999999998</ele>
        <time>2017-11-12T08:55:47Z</time>
      </trkpt>
      <trkpt lat="45.908903069794178" lon="8.476922102272511">
        <ele>685.08000000000004</ele>
        <time>2017-11-12T08:56:01Z</time>
      </trkpt>
      <trkpt lat="45.908968616276979" lon="8.476873990148306">
        <ele>686.51999999999998</ele>
        <time>2017-11-12T08:56:12Z</time>
      </trkpt>
      <trkpt lat="45.909058637917042" lon="8.476791009306908">
        <ele>687.48000000000002</ele>
        <time>2017-11-12T08:56:26Z</time>
      </trkpt>
      <trkpt lat="45.909110773354769" lon="8.476726720109582">
        <ele>689.39999999999998</ele>
        <time>2017-11-12T08:56:36Z</time>
      </trkpt>
      <trkpt lat="45.909209260717034" lon="8.476715236902237">
        <ele>691.33000000000004</ele>
        <time>2017-11-12T08:56:48Z</time>
      </trkpt>
      <trkpt lat="45.909257959574461" lon="8.476661425083876">
        <ele>693.73000000000002</ele>
        <time>2017-11-12T08:57:01Z</time>
      </trkpt>
      <trkpt lat="45.909312525764108" lon="8.476584814488888">
        <ele>695.64999999999998</ele>
        <time>2017-11-12T08:57:11Z</time>
      </trkpt>
      <trkpt lat="45.909325182437897" lon="8.476464869454503">
        <ele>698.04999999999995</ele>
        <time>2017-11-12T08:57:25Z</time>
      </trkpt>
      <trkpt lat="45.909356027841568" lon="8.476433856412768">
        <ele>699.98000000000002</ele>
        <time>2017-11-12T08:57:36Z</time>
      </trkpt>
      <trkpt lat="45.909343622624874" lon="8.47639974206686">
        <ele>700.46000000000004</ele>
        <time>2017-11-12T08:57:50Z</time>
      </trkpt>
      <trkpt lat="45.909341359511018" lon="8.476306786760688">
        <ele>702.86000000000001</ele>
        <time>2017-11-12T08:58:01Z</time>
      </trkpt>
      <trkpt lat="45.909333564341068" lon="8.476239647716284">
        <ele>704.77999999999997</ele>
        <time>2017-11-12T08:58:11Z</time>
      </trkpt>
      <trkpt lat="45.909358793869615" lon="8.47616764716804">
        <ele>707.19000000000005</ele>
        <time>2017-11-12T08:58:24Z</time>
      </trkpt>
      <trkpt lat="45.909411096945405" lon="8.476160187274218">
        <ele>708.63</ele>
        <time>2017-11-12T08:58:36Z</time>
      </trkpt>
      <trkpt lat="45.909464238211513" lon="8.476119702681899">
        <ele>709.59000000000003</ele>
        <time>2017-11-12T08:58:48Z</time>
      </trkpt>
      <trkpt lat="45.909487958997488" lon="8.476076954975724">
        <ele>711.50999999999999</ele>
        <time>2017-11-12T08:58:58Z</time>
      </trkpt>
      <trkpt lat="45.909520899876952" lon="8.476030183956027">
        <ele>712.47000000000003</ele>
        <time>2017-11-12T08:59:08Z</time>
      </trkpt>
      <trkpt lat="45.909539088606834" lon="8.475942760705948">
        <ele>714.39999999999998</ele>
        <time>2017-11-12T08:59:19Z</time>
      </trkpt>
      <trkpt lat="45.909604551270604" lon="8.475858774036169">
        <ele>713.44000000000005</ele>
        <time>2017-11-12T08:59:29Z</time>
      </trkpt>
      <trkpt lat="45.909608406946063" lon="8.475850140675902">
        <ele>713.44000000000005</ele>
        <time>2017-11-12T08:59:32Z</time>
      </trkpt>
      <trkpt lat="45.909680742770433" lon="8.475799765437841">
        <ele>714.39999999999998</ele>
        <time>2017-11-12T08:59:44Z</time>
      </trkpt>
      <trkpt lat="45.909731537103653" lon="8.475819630548358">
        <ele>714.88</ele>
        <time>2017-11-12T08:59:55Z</time>
      </trkpt>
      <trkpt lat="45.909783337265253" lon="8.475797669962049">
        <ele>716.79999999999995</ele>
        <time>2017-11-12T09:00:05Z</time>
      </trkpt>
      <trkpt lat="45.90975584462285" lon="8.475749390199781">
        <ele>718.72000000000003</ele>
        <time>2017-11-12T09:00:16Z</time>
      </trkpt>
      <trkpt lat="45.909763053059578" lon="8.475689459592104">
        <ele>720.15999999999997</ele>
        <time>2017-11-12T09:00:28Z</time>
      </trkpt>
      <trkpt lat="45.909795574843884" lon="8.475612178444862">
        <ele>721.61000000000001</ele>
        <time>2017-11-12T09:00:39Z</time>
      </trkpt>
      <trkpt lat="45.909821474924684" lon="8.475555349141359">
        <ele>723.52999999999997</ele>
        <time>2017-11-12T09:00:52Z</time>
      </trkpt>
      <trkpt lat="45.909865144640207" lon="8.475526515394449">
        <ele>725.45000000000005</ele>
        <time>2017-11-12T09:01:02Z</time>
      </trkpt>
      <trkpt lat="45.909927003085613" lon="8.475465914234519">
        <ele>727.86000000000001</ele>
        <time>2017-11-12T09:01:13Z</time>
      </trkpt>
      <trkpt lat="45.909965559840202" lon="8.475469350814819">
        <ele>727.37</ele>
        <time>2017-11-12T09:01:21Z</time>
      </trkpt>
      <trkpt lat="45.909978048875928" lon="8.475458705797792">
        <ele>727.37</ele>
        <time>2017-11-12T09:01:23Z</time>
      </trkpt>
      <trkpt lat="45.910048289224505" lon="8.475504135712981">
        <ele>727.86000000000001</ele>
        <time>2017-11-12T09:01:33Z</time>
      </trkpt>
      <trkpt lat="45.910112829878926" lon="8.475486533716321">
        <ele>729.77999999999997</ele>
        <time>2017-11-12T09:01:44Z</time>
      </trkpt>
      <trkpt lat="45.910148872062564" lon="8.475439678877592">
        <ele>731.70000000000005</ele>
        <time>2017-11-12T09:01:54Z</time>
      </trkpt>
      <trkpt lat="45.910165719687939" lon="8.475386369973421">
        <ele>733.62</ele>
        <time>2017-11-12T09:02:04Z</time>
      </trkpt>
      <trkpt lat="45.910223973914981" lon="8.475357787683606">
        <ele>734.58000000000004</ele>
        <time>2017-11-12T09:02:15Z</time>
      </trkpt>
      <trkpt lat="45.910233361646533" lon="8.475343957543373">
        <ele>734.58000000000004</ele>
        <time>2017-11-12T09:02:17Z</time>
      </trkpt>
      <trkpt lat="45.910279378294945" lon="8.475346639752388">
        <ele>734.58000000000004</ele>
        <time>2017-11-12T09:02:28Z</time>
      </trkpt>
      <trkpt lat="45.910311816260219" lon="8.475343119353056">
        <ele>734.10000000000002</ele>
        <time>2017-11-12T09:02:40Z</time>
      </trkpt>
      <trkpt lat="45.910358671098948" lon="8.47538486123085">
        <ele>732.17999999999995</ele>
        <time>2017-11-12T09:02:49Z</time>
      </trkpt>
      <trkpt lat="45.910406867042184" lon="8.47537656314671">
        <ele>733.62</ele>
        <time>2017-11-12T09:02:59Z</time>
      </trkpt>
      <trkpt lat="45.910426145419478" lon="8.475393578410149">
        <ele>733.62</ele>
        <time>2017-11-12T09:03:09Z</time>
      </trkpt>
      <trkpt lat="45.910416841506958" lon="8.475447976961732">
        <ele>733.62</ele>
        <time>2017-11-12T09:03:23Z</time>
      </trkpt>
      <trkpt lat="45.910450033843517" lon="8.475428028032184">
        <ele>734.10000000000002</ele>
        <time>2017-11-12T09:03:35Z</time>
      </trkpt>
      <trkpt lat="45.910498313605785" lon="8.475411180406809">
        <ele>734.10000000000002</ele>
        <time>2017-11-12T09:03:47Z</time>
      </trkpt>
      <trkpt lat="45.910513484850526" lon="8.475442277267575">
        <ele>733.13999999999999</ele>
        <time>2017-11-12T09:03:56Z</time>
      </trkpt>
      <trkpt lat="45.910528488457203" lon="8.475524252280593">
        <ele>734.10000000000002</ele>
        <time>2017-11-12T09:04:06Z</time>
      </trkpt>
      <trkpt lat="45.910546258091927" lon="8.475575800985098">
        <ele>735.54999999999995</ele>
        <time>2017-11-12T09:04:17Z</time>
      </trkpt>
      <trkpt lat="45.910535110160708" lon="8.475561132654548">
        <ele>735.54999999999995</ele>
        <time>2017-11-12T09:04:32Z</time>
      </trkpt>
      <trkpt lat="45.910516418516636" lon="8.475546715781093">
        <ele>736.50999999999999</ele>
        <time>2017-11-12T09:04:50Z</time>
      </trkpt>
      <trkpt lat="45.910527901723981" lon="8.475474631413817">
        <ele>738.90999999999997</ele>
        <time>2017-11-12T09:05:01Z</time>
      </trkpt>
      <trkpt lat="45.910524381324649" lon="8.475401792675257">
        <ele>740.35000000000002</ele>
        <time>2017-11-12T09:05:12Z</time>
      </trkpt>
      <trkpt lat="45.910554639995098" lon="8.47540975548327">
        <ele>740.83000000000004</ele>
        <time>2017-11-12T09:05:26Z</time>
      </trkpt>
      <trkpt lat="45.910581797361374" lon="8.475384777411819">
        <ele>742.27999999999997</ele>
        <time>2017-11-12T09:05:34Z</time>
      </trkpt>
      <trkpt lat="45.910587664693594" lon="8.475346388295293">
        <ele>744.20000000000005</ele>
        <time>2017-11-12T09:05:43Z</time>
      </trkpt>
      <trkpt lat="45.910564195364714" lon="8.475305065512657">
        <ele>746.12</ele>
        <time>2017-11-12T09:05:52Z</time>
      </trkpt>
      <trkpt lat="45.91059822589159" lon="8.47530179657042">
        <ele>747.55999999999995</ele>
        <time>2017-11-12T09:06:04Z</time>
      </trkpt>
      <trkpt lat="45.910669891163707" lon="8.475405983626843">
        <ele>749</ele>
        <time>2017-11-12T09:06:15Z</time>
      </trkpt>
      <trkpt lat="45.910743987187743" lon="8.475518804043531">
        <ele>749.97000000000003</ele>
        <time>2017-11-12T09:06:28Z</time>
      </trkpt>
      <trkpt lat="45.910806600004435" lon="8.475580494850874">
        <ele>751.40999999999997</ele>
        <time>2017-11-12T09:06:40Z</time>
      </trkpt>
      <trkpt lat="45.910890754312277" lon="8.475605137646198">
        <ele>752.85000000000002</ele>
        <time>2017-11-12T09:06:54Z</time>
      </trkpt>
      <trkpt lat="45.910964431241155" lon="8.475547637790442">
        <ele>754.76999999999998</ele>
        <time>2017-11-12T09:07:06Z</time>
      </trkpt>
      <trkpt lat="45.910948505625129" lon="8.475543363019824">
        <ele>754.76999999999998</ele>
        <time>2017-11-12T09:07:23Z</time>
      </trkpt>
      <trkpt lat="45.910977255553007" lon="8.475544285029173">
        <ele>755.25</ele>
        <time>2017-11-12T09:07:35Z</time>
      </trkpt>
      <trkpt lat="45.911020757630467" lon="8.475590972229838">
        <ele>755.25</ele>
        <time>2017-11-12T09:07:59Z</time>
      </trkpt>
      <trkpt lat="45.911013213917613" lon="8.475583512336016">
        <ele>755.25</ele>
        <time>2017-11-12T09:08:12Z</time>
      </trkpt>
      <trkpt lat="45.911004161462188" lon="8.4755221568048">
        <ele>755.73000000000002</ele>
        <time>2017-11-12T09:08:25Z</time>
      </trkpt>
      <trkpt lat="45.911013884469867" lon="8.475401792675257">
        <ele>758.13999999999999</ele>
        <time>2017-11-12T09:08:36Z</time>
      </trkpt>
      <trkpt lat="45.911057805642486" lon="8.475356781855226">
        <ele>760.05999999999995</ele>
        <time>2017-11-12T09:08:47Z</time>
      </trkpt>
      <trkpt lat="45.911050094291568" lon="8.475398356094956">
        <ele>760.05999999999995</ele>
        <time>2017-11-12T09:09:07Z</time>
      </trkpt>
      <trkpt lat="45.911026792600751" lon="8.475311435759068">
        <ele>760.05999999999995</ele>
        <time>2017-11-12T09:09:32Z</time>
      </trkpt>
      <trkpt lat="45.911089489236474" lon="8.475349824875593">
        <ele>760.05999999999995</ele>
        <time>2017-11-12T09:09:53Z</time>
      </trkpt>
      <trkpt lat="45.911079263314605" lon="8.475369606167078">
        <ele>759.10000000000002</ele>
        <time>2017-11-12T09:10:15Z</time>
      </trkpt>
      <trkpt lat="45.911097284406424" lon="8.47538729198277">
        <ele>759.58000000000004</ele>
        <time>2017-11-12T09:10:40Z</time>
      </trkpt>
      <trkpt lat="45.911118658259511" lon="8.475399110466242">
        <ele>759.58000000000004</ele>
        <time>2017-11-12T09:11:08Z</time>
      </trkpt>
      <trkpt lat="45.911107258871198" lon="8.475440768525004">
        <ele>759.58000000000004</ele>
        <time>2017-11-12T09:11:32Z</time>
      </trkpt>
      <trkpt lat="45.911065097898245" lon="8.475407073274255">
        <ele>759.58000000000004</ele>
        <time>2017-11-12T09:11:45Z</time>
      </trkpt>
      <trkpt lat="45.911071887239814" lon="8.475328953936696">
        <ele>760.53999999999996</ele>
        <time>2017-11-12T09:11:54Z</time>
      </trkpt>
      <trkpt lat="45.911093764007092" lon="8.475375808775425">
        <ele>760.05999999999995</ele>
        <time>2017-11-12T09:12:13Z</time>
      </trkpt>
      <trkpt lat="45.911100469529629" lon="8.475354518741369">
        <ele>760.53999999999996</ele>
        <time>2017-11-12T09:12:37Z</time>
      </trkpt>
      <trkpt lat="45.911043640226126" lon="8.475381005555391">
        <ele>760.05999999999995</ele>
        <time>2017-11-12T09:12:59Z</time>
      </trkpt>
      <trkpt lat="45.911096194759011" lon="8.47530422732234">
        <ele>760.53999999999996</ele>
        <time>2017-11-12T09:13:27Z</time>
      </trkpt>
      <trkpt lat="45.911083118990064" lon="8.475226694718003">
        <ele>761.98000000000002</ele>
        <time>2017-11-12T09:13:37Z</time>
      </trkpt>
      <trkpt lat="45.911114634945989" lon="8.475161483511329">
        <ele>762.94000000000005</ele>
        <time>2017-11-12T09:13:51Z</time>
      </trkpt>
      <trkpt lat="45.911178840324283" lon="8.475147401914001">
        <ele>765.83000000000004</ele>
        <time>2017-11-12T09:14:01Z</time>
      </trkpt>
      <trkpt lat="45.911244638264179" lon="8.475085459649563">
        <ele>767.26999999999998</ele>
        <time>2017-11-12T09:14:14Z</time>
      </trkpt>
      <trkpt lat="45.911295600235462" lon="8.47504816018045">
        <ele>768.71000000000004</ele>
        <time>2017-11-12T09:14:24Z</time>
      </trkpt>
      <trkpt lat="45.911325020715594" lon="8.475003400817514">
        <ele>770.63</ele>
        <time>2017-11-12T09:14:36Z</time>
      </trkpt>
      <trkpt lat="45.911355027928948" lon="8.474962329491973">
        <ele>772.55999999999995</ele>
        <time>2017-11-12T09:14:47Z</time>
      </trkpt>
      <trkpt lat="45.911359135061502" lon="8.474951181560755">
        <ele>774</ele>
        <time>2017-11-12T09:14:57Z</time>
      </trkpt>
      <trkpt lat="45.911383274942636" lon="8.47493433393538">
        <ele>775.91999999999996</ele>
        <time>2017-11-12T09:15:08Z</time>
      </trkpt>
      <trkpt lat="45.911453766748309" lon="8.474907344207168">
        <ele>777.84000000000003</ele>
        <time>2017-11-12T09:15:18Z</time>
      </trkpt>
      <trkpt lat="45.911521576344967" lon="8.474831068888307">
        <ele>778.80999999999995</ele>
        <time>2017-11-12T09:15:30Z</time>
      </trkpt>
      <trkpt lat="45.911574549973011" lon="8.474788405001164">
        <ele>780.25</ele>
        <time>2017-11-12T09:15:41Z</time>
      </trkpt>
      <trkpt lat="45.911621320992708" lon="8.474719757214189">
        <ele>782.64999999999998</ele>
        <time>2017-11-12T09:15:54Z</time>
      </trkpt>
      <trkpt lat="45.911697847768664" lon="8.474702658131719">
        <ele>783.13</ele>
        <time>2017-11-12T09:16:03Z</time>
      </trkpt>
      <trkpt lat="45.911739757284522" lon="8.474658150225878">
        <ele>785.04999999999995</ele>
        <time>2017-11-12T09:16:15Z</time>
      </trkpt>
      <trkpt lat="45.911779990419745" lon="8.474616156890988">
        <ele>786.5</ele>
        <time>2017-11-12T09:16:26Z</time>
      </trkpt>
      <trkpt lat="45.911752665415406" lon="8.474584808573127">
        <ele>787.94000000000005</ele>
        <time>2017-11-12T09:16:37Z</time>
      </trkpt>
      <trkpt lat="45.911776050925255" lon="8.474543066695333">
        <ele>788.89999999999998</ele>
        <time>2017-11-12T09:16:47Z</time>
      </trkpt>
      <trkpt lat="45.91184520162642" lon="8.47452973946929">
        <ele>790.82000000000005</ele>
        <time>2017-11-12T09:17:00Z</time>
      </trkpt>
      <trkpt lat="45.911870431154966" lon="8.474482130259275">
        <ele>793.22000000000003</ele>
        <time>2017-11-12T09:17:08Z</time>
      </trkpt>
      <trkpt lat="45.911879064515233" lon="8.474475089460611">
        <ele>793.71000000000004</ele>
        <time>2017-11-12T09:17:21Z</time>
      </trkpt>
      <trkpt lat="45.911863390356302" lon="8.474462851881981">
        <ele>793.71000000000004</ele>
        <time>2017-11-12T09:17:34Z</time>
      </trkpt>
      <trkpt lat="45.911856349557638" lon="8.474479867145419">
        <ele>793.71000000000004</ele>
        <time>2017-11-12T09:17:50Z</time>
      </trkpt>
      <trkpt lat="45.911862468346953" lon="8.474506940692663">
        <ele>793.71000000000004</ele>
        <time>2017-11-12T09:18:06Z</time>
      </trkpt>
      <trkpt lat="45.911873197183013" lon="8.474508700892329">
        <ele>793.71000000000004</ele>
        <time>2017-11-12T09:18:20Z</time>
      </trkpt>
      <trkpt lat="45.911863977089524" lon="8.474513562396169">
        <ele>793.71000000000004</ele>
        <time>2017-11-12T09:18:35Z</time>
      </trkpt>
      <trkpt lat="45.911848722025752" lon="8.474533511325717">
        <ele>793.71000000000004</ele>
        <time>2017-11-12T09:18:48Z</time>
      </trkpt>
      <trkpt lat="45.911835813894868" lon="8.474530996754766">
        <ele>793.71000000000004</ele>
        <time>2017-11-12T09:18:59Z</time>
      </trkpt>
      <trkpt lat="45.911909490823746" lon="8.474525716155767">
        <ele>793.71000000000004</ele>
        <time>2017-11-12T09:19:09Z</time>
      </trkpt>
      <trkpt lat="45.912006301805377" lon="8.474457738921046">
        <ele>794.66999999999996</ele>
        <time>2017-11-12T09:19:20Z</time>
      </trkpt>
      <trkpt lat="45.91206070035696" lon="8.474406693130732">
        <ele>798.02999999999997</ele>
        <time>2017-11-12T09:19:28Z</time>
      </trkpt>
      <trkpt lat="45.912084588780999" lon="8.474387582391501">
        <ele>797.07000000000005</ele>
        <time>2017-11-12T09:19:31Z</time>
      </trkpt>
      <trkpt lat="45.912176873534918" lon="8.474290184676647">
        <ele>798.50999999999999</ele>
        <time>2017-11-12T09:19:44Z</time>
      </trkpt>
      <trkpt lat="45.912238229066133" lon="8.474264955148101">
        <ele>799.95000000000005</ele>
        <time>2017-11-12T09:19:54Z</time>
      </trkpt>
      <trkpt lat="45.912299500778317" lon="8.474236624315381">
        <ele>801.39999999999998</ele>
        <time>2017-11-12T09:20:03Z</time>
      </trkpt>
      <trkpt lat="45.912323975935578" lon="8.474226566031575">
        <ele>802.36000000000001</ele>
        <time>2017-11-12T09:20:14Z</time>
      </trkpt>
      <trkpt lat="45.912344343960285" lon="8.474179962649941">
        <ele>803.79999999999995</ele>
        <time>2017-11-12T09:20:25Z</time>
      </trkpt>
      <trkpt lat="45.912367980927229" lon="8.474084660410881">
        <ele>805.72000000000003</ele>
        <time>2017-11-12T09:20:36Z</time>
      </trkpt>
      <trkpt lat="45.912418523803353" lon="8.47403772175312">
        <ele>807.15999999999997</ele>
        <time>2017-11-12T09:20:47Z</time>
      </trkpt>
      <trkpt lat="45.912463031709194" lon="8.473991202190518">
        <ele>807.63999999999999</ele>
        <time>2017-11-12T09:20:59Z</time>
      </trkpt>
      <trkpt lat="45.912473509088159" lon="8.47398835234344">
        <ele>808.61000000000001</ele>
        <time>2017-11-12T09:21:13Z</time>
      </trkpt>
      <trkpt lat="45.912488847970963" lon="8.473940156400204">
        <ele>809.57000000000005</ele>
        <time>2017-11-12T09:21:23Z</time>
      </trkpt>
      <trkpt lat="45.912527572363615" lon="8.47391308285296">
        <ele>811.00999999999999</ele>
        <time>2017-11-12T09:21:34Z</time>
      </trkpt>
      <trkpt lat="45.912571661174297" lon="8.47387008368969">
        <ele>812.45000000000005</ele>
        <time>2017-11-12T09:21:44Z</time>
      </trkpt>
      <trkpt lat="45.912573086097836" lon="8.47381534986198">
        <ele>813.88999999999999</ele>
        <time>2017-11-12T09:21:54Z</time>
      </trkpt>
      <trkpt lat="45.912637962028384" lon="8.473800094798207">
        <ele>815.82000000000005</ele>
        <time>2017-11-12T09:22:03Z</time>
      </trkpt>
      <trkpt lat="45.912701245397329" lon="8.473722813650966">
        <ele>817.25999999999999</ele>
        <time>2017-11-12T09:22:15Z</time>
      </trkpt>
      <trkpt lat="45.912737371399999" lon="8.473697835579515">
        <ele>818.22000000000003</ele>
        <time>2017-11-12T09:22:24Z</time>
      </trkpt>
      <trkpt lat="45.912777269259095" lon="8.473608987405896">
        <ele>820.13999999999999</ele>
        <time>2017-11-12T09:22:37Z</time>
      </trkpt>
      <trkpt lat="45.912800906226039" lon="8.473539333790541">
        <ele>822.05999999999995</ele>
        <time>2017-11-12T09:22:48Z</time>
      </trkpt>
      <trkpt lat="45.912852538749576" lon="8.473475044593215">
        <ele>823.02999999999997</ele>
        <time>2017-11-12T09:22:58Z</time>
      </trkpt>
      <trkpt lat="45.912877935916185" lon="8.473419724032283">
        <ele>824.47000000000003</ele>
        <time>2017-11-12T09:23:06Z</time>
      </trkpt>
      <trkpt lat="45.912935687229037" lon="8.473385609686375">
        <ele>825.42999999999995</ele>
        <time>2017-11-12T09:23:15Z</time>
      </trkpt>
      <trkpt lat="45.912984721362591" lon="8.473337665200234">
        <ele>826.38999999999999</ele>
        <time>2017-11-12T09:23:25Z</time>
      </trkpt>
      <trkpt lat="45.913025289773941" lon="8.47328326664865">
        <ele>827.35000000000002</ele>
        <time>2017-11-12T09:23:35Z</time>
      </trkpt>
      <trkpt lat="45.913071809336543" lon="8.473202046006918">
        <ele>829.26999999999998</ele>
        <time>2017-11-12T09:23:48Z</time>
      </trkpt>
      <trkpt lat="45.913118999451399" lon="8.473134739324451">
        <ele>830.72000000000003</ele>
        <time>2017-11-12T09:23:59Z</time>
      </trkpt>
      <trkpt lat="45.913155796006322" lon="8.473049830645323">
        <ele>832.15999999999997</ele>
        <time>2017-11-12T09:24:10Z</time>
      </trkpt>
      <trkpt lat="45.913180438801646" lon="8.473030552268028">
        <ele>832.63999999999999</ele>
        <time>2017-11-12T09:24:14Z</time>
      </trkpt>
      <trkpt lat="45.913218157365918" lon="8.473023930564523">
        <ele>833.12</ele>
        <time>2017-11-12T09:24:18Z</time>
      </trkpt>
      <trkpt lat="45.913340030238032" lon="8.47304136492312">
        <ele>832.15999999999997</ele>
        <time>2017-11-12T09:24:31Z</time>
      </trkpt>
      <trkpt lat="45.913393758237362" lon="8.473094841465354">
        <ele>832.63999999999999</ele>
        <time>2017-11-12T09:24:41Z</time>
      </trkpt>
      <trkpt lat="45.913404989987612" lon="8.473127195611596">
        <ele>833.60000000000002</ele>
        <time>2017-11-12T09:24:45Z</time>
      </trkpt>
      <trkpt lat="45.913435164839029" lon="8.473190646618605">
        <ele>834.08000000000004</ele>
        <time>2017-11-12T09:24:55Z</time>
      </trkpt>
      <trkpt lat="45.913443630561233" lon="8.473226437345147">
        <ele>834.55999999999995</ele>
        <time>2017-11-12T09:25:04Z</time>
      </trkpt>
      <trkpt lat="45.913485959172249" lon="8.473257701843977">
        <ele>835.03999999999996</ele>
        <time>2017-11-12T09:25:15Z</time>
      </trkpt>
      <trkpt lat="45.913530383259058" lon="8.473327858373523">
        <ele>835.51999999999998</ele>
        <time>2017-11-12T09:25:26Z</time>
      </trkpt>
      <trkpt lat="45.913555528968573" lon="8.473359374329448">
        <ele>836</ele>
        <time>2017-11-12T09:25:34Z</time>
      </trkpt>
      <trkpt lat="45.913606993854046" lon="8.473453838378191">
        <ele>836</ele>
        <time>2017-11-12T09:25:45Z</time>
      </trkpt>
      <trkpt lat="45.913597522303462" lon="8.473517121747136">
        <ele>837.45000000000005</ele>
        <time>2017-11-12T09:25:54Z</time>
      </trkpt>
      <trkpt lat="45.913621159270406" lon="8.47356422804296">
        <ele>837.92999999999995</ele>
        <time>2017-11-12T09:26:03Z</time>
      </trkpt>
      <trkpt lat="45.913657872006297" lon="8.47356665879488">
        <ele>839.85000000000002</ele>
        <time>2017-11-12T09:26:13Z</time>
      </trkpt>
      <trkpt lat="45.913670947775245" lon="8.473568418994546">
        <ele>840.80999999999995</ele>
        <time>2017-11-12T09:26:24Z</time>
      </trkpt>
      <trkpt lat="45.913691567257047" lon="8.473577974364162">
        <ele>841.76999999999998</ele>
        <time>2017-11-12T09:26:32Z</time>
      </trkpt>
      <trkpt lat="45.913713863119483" lon="8.473581494763494">
        <ele>842.25</ele>
        <time>2017-11-12T09:26:45Z</time>
      </trkpt>
      <trkpt lat="45.913706738501787" lon="8.473581494763494">
        <ele>842.25</ele>
        <time>2017-11-12T09:26:59Z</time>
      </trkpt>
      <trkpt lat="45.913702799007297" lon="8.473601192235947">
        <ele>842.25</ele>
        <time>2017-11-12T09:27:17Z</time>
      </trkpt>
      <trkpt lat="45.913701709359884" lon="8.473591636866331">
        <ele>841.76999999999998</ele>
        <time>2017-11-12T09:27:32Z</time>
      </trkpt>
      <trkpt lat="45.913700284436345" lon="8.473599515855312">
        <ele>842.25</ele>
        <time>2017-11-12T09:27:49Z</time>
      </trkpt>
      <trkpt lat="45.913702882826328" lon="8.473596833646298">
        <ele>841.76999999999998</ele>
        <time>2017-11-12T09:28:05Z</time>
      </trkpt>
      <trkpt lat="45.913696428760886" lon="8.473599599674344">
        <ele>842.25</ele>
        <time>2017-11-12T09:28:17Z</time>
      </trkpt>
      <trkpt lat="45.913692908361554" lon="8.473612675443292">
        <ele>842.25</ele>
        <time>2017-11-12T09:28:30Z</time>
      </trkpt>
      <trkpt lat="45.91369517147541" lon="8.47364385612309">
        <ele>843.21000000000004</ele>
        <time>2017-11-12T09:28:37Z</time>
      </trkpt>
      <trkpt lat="45.91375133022666" lon="8.473603958263993">
        <ele>846.58000000000004</ele>
        <time>2017-11-12T09:28:47Z</time>
      </trkpt>
      <trkpt lat="45.913741774857044" lon="8.473568335175514">
        <ele>848.5</ele>
        <time>2017-11-12T09:28:54Z</time>
      </trkpt>
      <trkpt lat="45.913717802613974" lon="8.47356665879488">
        <ele>847.53999999999996</ele>
        <time>2017-11-12T09:29:06Z</time>
      </trkpt>
      <trkpt lat="45.913745211437345" lon="8.473537154495716">
        <ele>847.53999999999996</ele>
        <time>2017-11-12T09:29:14Z</time>
      </trkpt>
      <trkpt lat="45.91375820338726" lon="8.473520893603563">
        <ele>847.05999999999995</ele>
        <time>2017-11-12T09:29:26Z</time>
      </trkpt>
      <trkpt lat="45.913765830919147" lon="8.473577722907066">
        <ele>847.53999999999996</ele>
        <time>2017-11-12T09:29:39Z</time>
      </trkpt>
      <trkpt lat="45.913785612210631" lon="8.47364435903728">
        <ele>848.01999999999998</ele>
        <time>2017-11-12T09:29:46Z</time>
      </trkpt>
      <trkpt lat="45.913816122338176" lon="8.473736308515072">
        <ele>847.05999999999995</ele>
        <time>2017-11-12T09:29:57Z</time>
      </trkpt>
      <trkpt lat="45.913836155086756" lon="8.473825994879007">
        <ele>847.53999999999996</ele>
        <time>2017-11-12T09:30:06Z</time>
      </trkpt>
      <trkpt lat="45.913893319666386" lon="8.473889864981175">
        <ele>848.98000000000002</ele>
        <time>2017-11-12T09:30:17Z</time>
      </trkpt>
      <trkpt lat="45.91391452588141" lon="8.473970163613558">
        <ele>850.89999999999998</ele>
        <time>2017-11-12T09:30:26Z</time>
      </trkpt>
      <trkpt lat="45.913953669369221" lon="8.474042247980833">
        <ele>853.30999999999995</ele>
        <time>2017-11-12T09:30:36Z</time>
      </trkpt>
      <trkpt lat="45.91394872404635" lon="8.474131347611547">
        <ele>854.26999999999998</ele>
        <time>2017-11-12T09:30:42Z</time>
      </trkpt>
      <trkpt lat="45.913983089849353" lon="8.474232936277986">
        <ele>856.66999999999996</ele>
        <time>2017-11-12T09:30:53Z</time>
      </trkpt>
      <trkpt lat="45.914014270529151" lon="8.474261183291674">
        <ele>857.63</ele>
        <time>2017-11-12T09:30:58Z</time>
      </trkpt>
      <trkpt lat="45.914040841162205" lon="8.474297896027565">
        <ele>857.14999999999998</ele>
        <time>2017-11-12T09:31:02Z</time>
      </trkpt>
      <trkpt lat="45.914075374603271" lon="8.474460085853934">
        <ele>857.63</ele>
        <time>2017-11-12T09:31:16Z</time>
      </trkpt>
      <trkpt lat="45.914072440937161" lon="8.474515154957771">
        <ele>857.63</ele>
        <time>2017-11-12T09:31:26Z</time>
      </trkpt>
      <trkpt lat="45.914149135351181" lon="8.47453560680151">
        <ele>859.08000000000004</ele>
        <time>2017-11-12T09:31:39Z</time>
      </trkpt>
      <trkpt lat="45.914232116192579" lon="8.474622527137399">
        <ele>860.03999999999996</ele>
        <time>2017-11-12T09:31:51Z</time>
      </trkpt>
      <trkpt lat="45.914298249408603" lon="8.474624371156097">
        <ele>861.48000000000002</ele>
        <time>2017-11-12T09:32:03Z</time>
      </trkpt>
      <trkpt lat="45.91436848975718" lon="8.474634429439902">
        <ele>862.91999999999996</ele>
        <time>2017-11-12T09:32:16Z</time>
      </trkpt>
      <trkpt lat="45.914408303797245" lon="8.474641386419535">
        <ele>864.84000000000003</ele>
        <time>2017-11-12T09:32:29Z</time>
      </trkpt>
      <trkpt lat="45.914417859166861" lon="8.474776083603501">
        <ele>866.28999999999996</ele>
        <time>2017-11-12T09:32:40Z</time>
      </trkpt>
      <trkpt lat="45.914397072046995" lon="8.474829560145736">
        <ele>867.25</ele>
        <time>2017-11-12T09:32:53Z</time>
      </trkpt>
      <trkpt lat="45.914367232471704" lon="8.474868703633547">
        <ele>867.73000000000002</ele>
        <time>2017-11-12T09:33:05Z</time>
      </trkpt>
      <trkpt lat="45.914361029863358" lon="8.474878342822194">
        <ele>867.73000000000002</ele>
        <time>2017-11-12T09:33:16Z</time>
      </trkpt>
      <trkpt lat="45.914349881932139" lon="8.474914385005832">
        <ele>868.69000000000005</ele>
        <time>2017-11-12T09:33:30Z</time>
      </trkpt>
      <trkpt lat="45.914348037913442" lon="8.474930142983794">
        <ele>870.13</ele>
        <time>2017-11-12T09:33:33Z</time>
      </trkpt>
      <trkpt lat="45.91435331851244" lon="8.474935758858919">
        <ele>871.57000000000005</ele>
        <time>2017-11-12T09:33:42Z</time>
      </trkpt>
      <trkpt lat="45.914376704022288" lon="8.474982865154743">
        <ele>872.52999999999997</ele>
        <time>2017-11-12T09:33:54Z</time>
      </trkpt>
      <trkpt lat="45.914373267441988" lon="8.475044807419181">
        <ele>874.46000000000004</ele>
        <time>2017-11-12T09:34:02Z</time>
      </trkpt>
      <trkpt lat="45.91437335126102" lon="8.475060733035207">
        <ele>873.98000000000002</ele>
        <time>2017-11-12T09:34:11Z</time>
      </trkpt>
      <trkpt lat="45.914385253563523" lon="8.475057044997811">
        <ele>873.98000000000002</ele>
        <time>2017-11-12T09:34:14Z</time>
      </trkpt>
      <trkpt lat="45.914405370131135" lon="8.475048914551735">
        <ele>873.98000000000002</ele>
        <time>2017-11-12T09:34:16Z</time>
      </trkpt>
      <trkpt lat="45.914438394829631" lon="8.47510289400816">
        <ele>873.98000000000002</ele>
        <time>2017-11-12T09:34:26Z</time>
      </trkpt>
      <trkpt lat="45.914428671821952" lon="8.475098954513669">
        <ele>873.98000000000002</ele>
        <time>2017-11-12T09:34:40Z</time>
      </trkpt>
      <trkpt lat="45.914404448121786" lon="8.475076574832201">
        <ele>874.46000000000004</ele>
        <time>2017-11-12T09:34:55Z</time>
      </trkpt>
      <trkpt lat="45.914398329332471" lon="8.475078837946057">
        <ele>874.46000000000004</ele>
        <time>2017-11-12T09:35:07Z</time>
      </trkpt>
      <trkpt lat="45.914408136159182" lon="8.475055284798145">
        <ele>874.94000000000005</ele>
        <time>2017-11-12T09:35:18Z</time>
      </trkpt>
      <trkpt lat="45.914416601881385" lon="8.47504279576242">
        <ele>874.46000000000004</ele>
        <time>2017-11-12T09:35:28Z</time>
      </trkpt>
      <trkpt lat="45.914401011541486" lon="8.475057296454907">
        <ele>874.46000000000004</ele>
        <time>2017-11-12T09:35:36Z</time>
      </trkpt>
      <trkpt lat="45.914386427029967" lon="8.475048830732703">
        <ele>873.98000000000002</ele>
        <time>2017-11-12T09:35:46Z</time>
      </trkpt>
      <trkpt lat="45.91437678784132" lon="8.475050590932369">
        <ele>874.46000000000004</ele>
        <time>2017-11-12T09:35:47Z</time>
      </trkpt>
      <trkpt lat="45.914280479773879" lon="8.475102977827191">
        <ele>874.46000000000004</ele>
        <time>2017-11-12T09:35:58Z</time>
      </trkpt>
      <trkpt lat="45.914270924404263" lon="8.475102810189128">
        <ele>874.46000000000004</ele>
        <time>2017-11-12T09:35:59Z</time>
      </trkpt>
      <trkpt lat="45.914231948554516" lon="8.475087890401483">
        <ele>873.5</ele>
        <time>2017-11-12T09:36:06Z</time>
      </trkpt>
      <trkpt lat="45.914214346557856" lon="8.475083699449897">
        <ele>872.52999999999997</ele>
        <time>2017-11-12T09:36:15Z</time>
      </trkpt>
      <trkpt lat="45.914221135899425" lon="8.475082106888294">
        <ele>872.52999999999997</ele>
        <time>2017-11-12T09:36:29Z</time>
      </trkpt>
      <trkpt lat="45.914226919412613" lon="8.475099457427859">
        <ele>873.00999999999999</ele>
        <time>2017-11-12T09:36:39Z</time>
      </trkpt>
      <trkpt lat="45.914205964654684" lon="8.475129967555404">
        <ele>871.57000000000005</ele>
        <time>2017-11-12T09:36:42Z</time>
      </trkpt>
      <trkpt lat="45.914155757054687" lon="8.475133739411831">
        <ele>870.61000000000001</ele>
        <time>2017-11-12T09:36:53Z</time>
      </trkpt>
      <trkpt lat="45.914134886115789" lon="8.475148743018508">
        <ele>869.16999999999996</ele>
        <time>2017-11-12T09:36:57Z</time>
      </trkpt>
      <trkpt lat="45.91410948894918" lon="8.475169111043215">
        <ele>868.69000000000005</ele>
        <time>2017-11-12T09:37:00Z</time>
      </trkpt>
      <trkpt lat="45.914052911102772" lon="8.475179839879274">
        <ele>866.76999999999998</ele>
        <time>2017-11-12T09:37:08Z</time>
      </trkpt>
      <trkpt lat="45.914037823677063" lon="8.475188137963414">
        <ele>865.32000000000005</ele>
        <time>2017-11-12T09:37:16Z</time>
      </trkpt>
      <trkpt lat="45.913995578885078" lon="8.475216217339039">
        <ele>863.88</ele>
        <time>2017-11-12T09:37:26Z</time>
      </trkpt>
      <trkpt lat="45.914001110941172" lon="8.475235579535365">
        <ele>863.88</ele>
        <time>2017-11-12T09:37:42Z</time>
      </trkpt>
      <trkpt lat="45.913981581106782" lon="8.475206075236201">
        <ele>863.88</ele>
        <time>2017-11-12T09:37:53Z</time>
      </trkpt>
      <trkpt lat="45.913970936089754" lon="8.47519526258111">
        <ele>863.88</ele>
        <time>2017-11-12T09:38:03Z</time>
      </trkpt>
      <trkpt lat="45.914009157568216" lon="8.475207248702645">
        <ele>863.39999999999998</ele>
        <time>2017-11-12T09:38:18Z</time>
      </trkpt>
      <trkpt lat="45.914004379883409" lon="8.475241111591458">
        <ele>863.88</ele>
        <time>2017-11-12T09:38:28Z</time>
      </trkpt>
      <trkpt lat="45.914035141468048" lon="8.475195178762078">
        <ele>864.84000000000003</ele>
        <time>2017-11-12T09:38:41Z</time>
      </trkpt>
      <trkpt lat="45.914116865023971" lon="8.475167686119676">
        <ele>867.73000000000002</ele>
        <time>2017-11-12T09:38:52Z</time>
      </trkpt>
      <trkpt lat="45.914166904985905" lon="8.475153939798474">
        <ele>869.64999999999998</ele>
        <time>2017-11-12T09:39:01Z</time>
      </trkpt>
      <trkpt lat="45.914204958826303" lon="8.475115466862917">
        <ele>871.57000000000005</ele>
        <time>2017-11-12T09:39:11Z</time>
      </trkpt>
      <trkpt lat="45.914225410670042" lon="8.475133823230863">
        <ele>871.57000000000005</ele>
        <time>2017-11-12T09:39:20Z</time>
      </trkpt>
      <trkpt lat="45.914221052080393" lon="8.475136002525687">
        <ele>871.57000000000005</ele>
        <time>2017-11-12T09:39:37Z</time>
      </trkpt>
      <trkpt lat="45.914218286052346" lon="8.475126782432199">
        <ele>871.57000000000005</ele>
        <time>2017-11-12T09:40:05Z</time>
      </trkpt>
      <trkpt lat="45.914217196404934" lon="8.475124938413501">
        <ele>872.04999999999995</ele>
        <time>2017-11-12T09:40:27Z</time>
      </trkpt>
      <trkpt lat="45.914236810058355" lon="8.475107839331031">
        <ele>871.57000000000005</ele>
        <time>2017-11-12T09:40:47Z</time>
      </trkpt>
      <trkpt lat="45.914164809510112" lon="8.475143127143383">
        <ele>870.13</ele>
        <time>2017-11-12T09:40:57Z</time>
      </trkpt>
      <trkpt lat="45.914098592475057" lon="8.475161483511329">
        <ele>867.73000000000002</ele>
        <time>2017-11-12T09:41:08Z</time>
      </trkpt>
      <trkpt lat="45.914037069305778" lon="8.47516693174839">
        <ele>865.32000000000005</ele>
        <time>2017-11-12T09:41:20Z</time>
      </trkpt>
      <trkpt lat="45.914039248600602" lon="8.475170033052564">
        <ele>865.32000000000005</ele>
        <time>2017-11-12T09:41:21Z</time>
      </trkpt>
      <trkpt lat="45.914038578048348" lon="8.475178750231862">
        <ele>864.84000000000003</ele>
        <time>2017-11-12T09:41:30Z</time>
      </trkpt>
      <trkpt lat="45.913997925817966" lon="8.475208086892963">
        <ele>865.32000000000005</ele>
        <time>2017-11-12T09:41:41Z</time>
      </trkpt>
      <trkpt lat="45.914012175053358" lon="8.475199537351728">
        <ele>863.88</ele>
        <time>2017-11-12T09:41:54Z</time>
      </trkpt>
      <trkpt lat="45.914005804806948" lon="8.47520942799747">
        <ele>863.39999999999998</ele>
        <time>2017-11-12T09:42:08Z</time>
      </trkpt>
      <trkpt lat="45.913989208638668" lon="8.475227197632194">
        <ele>863.88</ele>
        <time>2017-11-12T09:42:23Z</time>
      </trkpt>
      <trkpt lat="45.913992896676064" lon="8.47522359341383">
        <ele>863.88</ele>
        <time>2017-11-12T09:42:40Z</time>
      </trkpt>
      <trkpt lat="45.914002954959869" lon="8.47520012408495">
        <ele>863.88</ele>
        <time>2017-11-12T09:42:54Z</time>
      </trkpt>
      <trkpt lat="45.914009241387248" lon="8.475214373320341">
        <ele>863.88</ele>
        <time>2017-11-12T09:43:03Z</time>
      </trkpt>
      <trkpt lat="45.914008403196931" lon="8.475226862356067">
        <ele>863.39999999999998</ele>
        <time>2017-11-12T09:43:20Z</time>
      </trkpt>
      <trkpt lat="45.913998344913125" lon="8.475200040265918">
        <ele>864.36000000000001</ele>
        <time>2017-11-12T09:43:37Z</time>
      </trkpt>
      <trkpt lat="45.914043020457029" lon="8.475181432440877">
        <ele>864.84000000000003</ele>
        <time>2017-11-12T09:43:53Z</time>
      </trkpt>
      <trkpt lat="45.914078056812286" lon="8.475162070244551">
        <ele>866.76999999999998</ele>
        <time>2017-11-12T09:44:02Z</time>
      </trkpt>
      <trkpt lat="45.914103286340833" lon="8.475164584815502">
        <ele>867.73000000000002</ele>
        <time>2017-11-12T09:44:14Z</time>
      </trkpt>
      <trkpt lat="45.914123067632318" lon="8.475167015567422">
        <ele>868.21000000000004</ele>
        <time>2017-11-12T09:44:17Z</time>
      </trkpt>
      <trkpt lat="45.914179980754852" lon="8.475150838494301">
        <ele>869.64999999999998</ele>
        <time>2017-11-12T09:44:27Z</time>
      </trkpt>
      <trkpt lat="45.914231445640326" lon="8.475113455206156">
        <ele>872.04999999999995</ele>
        <time>2017-11-12T09:44:38Z</time>
      </trkpt>
      <trkpt lat="45.914254747331142" lon="8.475095350295305">
        <ele>873.5</ele>
        <time>2017-11-12T09:44:49Z</time>
      </trkpt>
      <trkpt lat="45.914257513359189" lon="8.475078586488962">
        <ele>873.5</ele>
        <time>2017-11-12T09:44:59Z</time>
      </trkpt>
      <trkpt lat="45.914250807836652" lon="8.475064756348729">
        <ele>873.5</ele>
        <time>2017-11-12T09:45:17Z</time>
      </trkpt>
      <trkpt lat="45.914243767037988" lon="8.475070958957076">
        <ele>873.5</ele>
        <time>2017-11-12T09:45:32Z</time>
      </trkpt>
      <trkpt lat="45.914237899705768" lon="8.47509166225791">
        <ele>873.00999999999999</ele>
        <time>2017-11-12T09:45:48Z</time>
      </trkpt>
      <trkpt lat="45.914239659905434" lon="8.475088644772768">
        <ele>873.00999999999999</ele>
        <time>2017-11-12T09:46:02Z</time>
      </trkpt>
      <trkpt lat="45.914251897484064" lon="8.475087890401483">
        <ele>873.00999999999999</ele>
        <time>2017-11-12T09:46:17Z</time>
      </trkpt>
      <trkpt lat="45.914254914969206" lon="8.475087303668261">
        <ele>873.00999999999999</ele>
        <time>2017-11-12T09:46:39Z</time>
      </trkpt>
      <trkpt lat="45.914250807836652" lon="8.475077077746391">
        <ele>872.52999999999997</ele>
        <time>2017-11-12T09:47:00Z</time>
      </trkpt>
      <trkpt lat="45.914238234981894" lon="8.475097613409162">
        <ele>872.52999999999997</ele>
        <time>2017-11-12T09:47:22Z</time>
      </trkpt>
      <trkpt lat="45.914233289659023" lon="8.475072886794806">
        <ele>872.52999999999997</ele>
        <time>2017-11-12T09:47:37Z</time>
      </trkpt>
      <trkpt lat="45.914286011829972" lon="8.475074646994472">
        <ele>874.94000000000005</ele>
        <time>2017-11-12T09:47:45Z</time>
      </trkpt>
      <trkpt lat="45.914378799498081" lon="8.475005244836211">
        <ele>873.00999999999999</ele>
        <time>2017-11-12T09:47:55Z</time>
      </trkpt>
      <trkpt lat="45.914389276877046" lon="8.475003484636545">
        <ele>873.00999999999999</ele>
        <time>2017-11-12T09:47:56Z</time>
      </trkpt>
      <trkpt lat="45.914448369294405" lon="8.474945230409503">
        <ele>874.94000000000005</ele>
        <time>2017-11-12T09:48:07Z</time>
      </trkpt>
      <trkpt lat="45.914517603814602" lon="8.474895022809506">
        <ele>877.34000000000003</ele>
        <time>2017-11-12T09:48:17Z</time>
      </trkpt>
      <trkpt lat="45.914541827514768" lon="8.474884042516351">
        <ele>877.82000000000005</ele>
        <time>2017-11-12T09:48:27Z</time>
      </trkpt>
      <trkpt lat="45.914550125598907" lon="8.47487322986126">
        <ele>877.82000000000005</ele>
        <time>2017-11-12T09:48:46Z</time>
      </trkpt>
      <trkpt lat="45.914561692625284" lon="8.47491622902453">
        <ele>877.34000000000003</ele>
        <time>2017-11-12T09:49:00Z</time>
      </trkpt>
      <trkpt lat="45.914551299065351" lon="8.474912373349071">
        <ele>877.34000000000003</ele>
        <time>2017-11-12T09:49:05Z</time>
      </trkpt>
      <trkpt lat="45.914555490016937" lon="8.474930729717016">
        <ele>876.38</ele>
        <time>2017-11-12T09:49:13Z</time>
      </trkpt>
      <trkpt lat="45.914556998759508" lon="8.47491622902453">
        <ele>877.34000000000003</ele>
        <time>2017-11-12T09:49:46Z</time>
      </trkpt>
      <trkpt lat="45.9145522210747" lon="8.474932657554746">
        <ele>875.89999999999998</ele>
        <time>2017-11-12T09:50:02Z</time>
      </trkpt>
      <trkpt lat="45.914543336257339" lon="8.474940536543727">
        <ele>875.89999999999998</ele>
        <time>2017-11-12T09:50:40Z</time>
      </trkpt>
      <trkpt lat="45.914553478360176" lon="8.474944224581122">
        <ele>876.38</ele>
        <time>2017-11-12T09:51:13Z</time>
      </trkpt>
      <trkpt lat="45.914549874141812" lon="8.474932406097651">
        <ele>875.89999999999998</ele>
        <time>2017-11-12T09:51:46Z</time>
      </trkpt>
      <trkpt lat="45.914544342085719" lon="8.474937519058585">
        <ele>875.89999999999998</ele>
        <time>2017-11-12T09:52:20Z</time>
      </trkpt>
      <trkpt lat="45.914552640169859" lon="8.47494313493371">
        <ele>875.89999999999998</ele>
        <time>2017-11-12T09:52:53Z</time>
      </trkpt>
      <trkpt lat="45.914559597149491" lon="8.47495093010366">
        <ele>875.89999999999998</ele>
        <time>2017-11-12T09:53:19Z</time>
      </trkpt>
      <trkpt lat="45.914554316550493" lon="8.474943889304996">
        <ele>876.38</ele>
        <time>2017-11-12T09:53:53Z</time>
      </trkpt>
      <trkpt lat="45.91456051915884" lon="8.474941374734044">
        <ele>875.89999999999998</ele>
        <time>2017-11-12T09:54:28Z</time>
      </trkpt>
      <trkpt lat="45.914562111720443" lon="8.474925868213177">
        <ele>876.38</ele>
        <time>2017-11-12T09:55:01Z</time>
      </trkpt>
      <trkpt lat="45.914562698453665" lon="8.474919414147735">
        <ele>876.38</ele>
        <time>2017-11-12T09:55:25Z</time>
      </trkpt>
      <trkpt lat="45.914555825293064" lon="8.474920922890306">
        <ele>876.38</ele>
        <time>2017-11-12T09:55:55Z</time>
      </trkpt>
      <trkpt lat="45.914549455046654" lon="8.474907428026199">
        <ele>876.38</ele>
        <time>2017-11-12T09:56:27Z</time>
      </trkpt>
      <trkpt lat="45.91454928740859" lon="8.474909439682961">
        <ele>876.38</ele>
        <time>2017-11-12T09:56:57Z</time>
      </trkpt>
      <trkpt lat="45.91455364599824" lon="8.474910194054246">
        <ele>876.38</ele>
        <time>2017-11-12T09:57:35Z</time>
      </trkpt>
      <trkpt lat="45.914544342085719" lon="8.474904075264931">
        <ele>876.38</ele>
        <time>2017-11-12T09:58:02Z</time>
      </trkpt>
      <trkpt lat="45.914531769230962" lon="8.474926790222526">
        <ele>876.38</ele>
        <time>2017-11-12T09:58:35Z</time>
      </trkpt>
      <trkpt lat="45.914530009031296" lon="8.47491723485291">
        <ele>876.86000000000001</ele>
        <time>2017-11-12T09:59:04Z</time>
      </trkpt>
      <trkpt lat="45.914537133648992" lon="8.474914552643895">
        <ele>876.86000000000001</ele>
        <time>2017-11-12T09:59:37Z</time>
      </trkpt>
      <trkpt lat="45.914530092850327" lon="8.474922263994813">
        <ele>876.86000000000001</ele>
        <time>2017-11-12T10:00:14Z</time>
      </trkpt>
      <trkpt lat="45.914523303508759" lon="8.474901476874948">
        <ele>877.34000000000003</ele>
        <time>2017-11-12T10:00:47Z</time>
      </trkpt>
      <trkpt lat="45.91453704982996" lon="8.474901476874948">
        <ele>877.34000000000003</ele>
        <time>2017-11-12T10:01:23Z</time>
      </trkpt>
      <trkpt lat="45.914539564400911" lon="8.4749108646065">
        <ele>878.77999999999997</ele>
        <time>2017-11-12T10:01:52Z</time>
      </trkpt>
      <trkpt lat="45.91453704982996" lon="8.474903907626867">
        <ele>877.34000000000003</ele>
        <time>2017-11-12T10:02:19Z</time>
      </trkpt>
      <trkpt lat="45.914549790322781" lon="8.474907008931041">
        <ele>877.34000000000003</ele>
        <time>2017-11-12T10:02:48Z</time>
      </trkpt>
      <trkpt lat="45.914557501673698" lon="8.474909942597151">
        <ele>877.34000000000003</ele>
        <time>2017-11-12T10:03:16Z</time>
      </trkpt>
      <trkpt lat="45.914540067315102" lon="8.474910194054246">
        <ele>877.34000000000003</ele>
        <time>2017-11-12T10:03:42Z</time>
      </trkpt>
      <trkpt lat="45.914544761180878" lon="8.474918408319354">
        <ele>877.34000000000003</ele>
        <time>2017-11-12T10:04:12Z</time>
      </trkpt>
      <trkpt lat="45.914541408419609" lon="8.474907176569104">
        <ele>877.34000000000003</ele>
        <time>2017-11-12T10:04:41Z</time>
      </trkpt>
      <trkpt lat="45.914547191932797" lon="8.474914217367768">
        <ele>877.34000000000003</ele>
        <time>2017-11-12T10:05:15Z</time>
      </trkpt>
      <trkpt lat="45.914544090628624" lon="8.47492209635675">
        <ele>876.86000000000001</ele>
        <time>2017-11-12T10:05:51Z</time>
      </trkpt>
      <trkpt lat="45.914531601592898" lon="8.47495143301785">
        <ele>876.86000000000001</ele>
        <time>2017-11-12T10:06:31Z</time>
      </trkpt>
      <trkpt lat="45.914537468925118" lon="8.474943218752742">
        <ele>876.86000000000001</ele>
        <time>2017-11-12T10:07:02Z</time>
      </trkpt>
      <trkpt lat="45.914538558572531" lon="8.474929053336382">
        <ele>876.86000000000001</ele>
        <time>2017-11-12T10:07:28Z</time>
      </trkpt>
      <trkpt lat="45.91453461907804" lon="8.474924778565764">
        <ele>877.34000000000003</ele>
        <time>2017-11-12T10:07:53Z</time>
      </trkpt>
      <trkpt lat="45.914539564400911" lon="8.47490893676877">
        <ele>877.34000000000003</ele>
        <time>2017-11-12T10:08:17Z</time>
      </trkpt>
      <trkpt lat="45.914544844999909" lon="8.474903823807836">
        <ele>877.82000000000005</ele>
        <time>2017-11-12T10:08:37Z</time>
      </trkpt>
      <trkpt lat="45.914546269923449" lon="8.474912289530039">
        <ele>877.82000000000005</ele>
        <time>2017-11-12T10:09:01Z</time>
      </trkpt>
      <trkpt lat="45.914528667926788" lon="8.474887562915683">
        <ele>877.82000000000005</ele>
        <time>2017-11-12T10:09:31Z</time>
      </trkpt>
      <trkpt lat="45.914527578279376" lon="8.474864847958088">
        <ele>877.82000000000005</ele>
        <time>2017-11-12T10:09:50Z</time>
      </trkpt>
      <trkpt lat="45.914512407034636" lon="8.474860992282629">
        <ele>877.82000000000005</ele>
        <time>2017-11-12T10:10:13Z</time>
      </trkpt>
      <trkpt lat="45.9144969843328" lon="8.474847581237555">
        <ele>877.82000000000005</ele>
        <time>2017-11-12T10:10:40Z</time>
      </trkpt>
      <trkpt lat="45.914497654885054" lon="8.474845737218857">
        <ele>877.82000000000005</ele>
        <time>2017-11-12T10:11:03Z</time>
      </trkpt>
      <trkpt lat="45.914509054273367" lon="8.474857220426202">
        <ele>878.29999999999995</ele>
        <time>2017-11-12T10:11:25Z</time>
      </trkpt>
      <trkpt lat="45.914521627128124" lon="8.474872559309006">
        <ele>878.29999999999995</ele>
        <time>2017-11-12T10:11:50Z</time>
      </trkpt>
      <trkpt lat="45.914527662098408" lon="8.474920000880957">
        <ele>878.29999999999995</ele>
        <time>2017-11-12T10:12:25Z</time>
      </trkpt>
      <trkpt lat="45.914541156962514" lon="8.47491673193872">
        <ele>878.29999999999995</ele>
        <time>2017-11-12T10:12:48Z</time>
      </trkpt>
      <trkpt lat="45.914556244388223" lon="8.47491187043488">
        <ele>878.29999999999995</ele>
        <time>2017-11-12T10:13:18Z</time>
      </trkpt>
      <trkpt lat="45.914546940475702" lon="8.474896615371108">
        <ele>878.29999999999995</ele>
        <time>2017-11-12T10:13:49Z</time>
      </trkpt>
      <trkpt lat="45.914539648219943" lon="8.474909523501992">
        <ele>879.74000000000001</ele>
        <time>2017-11-12T10:14:14Z</time>
      </trkpt>
      <trkpt lat="45.914535205811262" lon="8.474918743595481">
        <ele>878.29999999999995</ele>
        <time>2017-11-12T10:14:40Z</time>
      </trkpt>
      <trkpt lat="45.914530679583549" lon="8.474913211539388">
        <ele>878.29999999999995</ele>
        <time>2017-11-12T10:15:11Z</time>
      </trkpt>
      <trkpt lat="45.914520286023617" lon="8.474894436076284">
        <ele>878.29999999999995</ele>
        <time>2017-11-12T10:15:38Z</time>
      </trkpt>
      <trkpt lat="45.914531098678708" lon="8.474905835464597">
        <ele>878.29999999999995</ele>
        <time>2017-11-12T10:16:03Z</time>
      </trkpt>
      <trkpt lat="45.914524644613266" lon="8.474895441904664">
        <ele>878.29999999999995</ele>
        <time>2017-11-12T10:16:33Z</time>
      </trkpt>
      <trkpt lat="45.914534702897072" lon="8.474915474653244">
        <ele>877.82000000000005</ele>
        <time>2017-11-12T10:17:02Z</time>
      </trkpt>
      <trkpt lat="45.914540821686387" lon="8.474896363914013">
        <ele>877.82000000000005</ele>
        <time>2017-11-12T10:17:25Z</time>
      </trkpt>
      <trkpt lat="45.91454635374248" lon="8.474886724725366">
        <ele>877.82000000000005</ele>
        <time>2017-11-12T10:17:54Z</time>
      </trkpt>
      <trkpt lat="45.914538977667689" lon="8.474897537380457">
        <ele>877.82000000000005</ele>
        <time>2017-11-12T10:18:23Z</time>
      </trkpt>
      <trkpt lat="45.914529338479042" lon="8.474886473268271">
        <ele>877.34000000000003</ele>
        <time>2017-11-12T10:18:54Z</time>
      </trkpt>
      <trkpt lat="45.914531266316772" lon="8.474878259003162">
        <ele>877.34000000000003</ele>
        <time>2017-11-12T10:19:11Z</time>
      </trkpt>
      <trkpt lat="45.914528081193566" lon="8.4748849645257">
        <ele>877.82000000000005</ele>
        <time>2017-11-12T10:19:27Z</time>
      </trkpt>
      <trkpt lat="45.914530763402581" lon="8.474888987839222">
        <ele>877.82000000000005</ele>
        <time>2017-11-12T10:19:51Z</time>
      </trkpt>
      <trkpt lat="45.914536211639643" lon="8.47488597035408">
        <ele>877.82000000000005</ele>
        <time>2017-11-12T10:20:14Z</time>
      </trkpt>
      <trkpt lat="45.914541324600577" lon="8.474906589835882">
        <ele>877.82000000000005</ele>
        <time>2017-11-12T10:20:41Z</time>
      </trkpt>
      <trkpt lat="45.914540151134133" lon="8.47491966560483">
        <ele>878.29999999999995</ele>
        <time>2017-11-12T10:21:07Z</time>
      </trkpt>
      <trkpt lat="45.914549706503749" lon="8.474918073043227">
        <ele>878.29999999999995</ele>
        <time>2017-11-12T10:21:38Z</time>
      </trkpt>
      <trkpt lat="45.914549455046654" lon="8.474909020587802">
        <ele>878.29999999999995</ele>
        <time>2017-11-12T10:22:13Z</time>
      </trkpt>
      <trkpt lat="45.914556663483381" lon="8.474916648119688">
        <ele>878.29999999999995</ele>
        <time>2017-11-12T10:22:38Z</time>
      </trkpt>
      <trkpt lat="45.914555657655001" lon="8.474919330328703">
        <ele>878.29999999999995</ele>
        <time>2017-11-12T10:23:02Z</time>
      </trkpt>
      <trkpt lat="45.91455808840692" lon="8.474918995052576">
        <ele>878.77999999999997</ele>
        <time>2017-11-12T10:23:34Z</time>
      </trkpt>
      <trkpt lat="45.914558423683047" lon="8.474925365298986">
        <ele>878.77999999999997</ele>
        <time>2017-11-12T10:24:05Z</time>
      </trkpt>
      <trkpt lat="45.914572170004249" lon="8.474907428026199">
        <ele>878.77999999999997</ele>
        <time>2017-11-12T10:24:24Z</time>
      </trkpt>
      <trkpt lat="45.914552891626954" lon="8.474919749423862">
        <ele>878.77999999999997</ele>
        <time>2017-11-12T10:24:42Z</time>
      </trkpt>
      <trkpt lat="45.9145453479141" lon="8.474921006709337">
        <ele>879.25999999999999</ele>
        <time>2017-11-12T10:25:10Z</time>
      </trkpt>
      <trkpt lat="45.914534535259008" lon="8.474904326722026">
        <ele>879.25999999999999</ele>
        <time>2017-11-12T10:25:41Z</time>
      </trkpt>
      <trkpt lat="45.914551131427288" lon="8.474921341985464">
        <ele>879.74000000000001</ele>
        <time>2017-11-12T10:26:05Z</time>
      </trkpt>
      <trkpt lat="45.914534870535135" lon="8.474878594279289">
        <ele>879.25999999999999</ele>
        <time>2017-11-12T10:26:35Z</time>
      </trkpt>
      <trkpt lat="45.914532775059342" lon="8.474862920120359">
        <ele>879.74000000000001</ele>
        <time>2017-11-12T10:27:00Z</time>
      </trkpt>
      <trkpt lat="45.914535038173199" lon="8.474874654784799">
        <ele>879.74000000000001</ele>
        <time>2017-11-12T10:27:27Z</time>
      </trkpt>
      <trkpt lat="45.914550041779876" lon="8.474911954253912">
        <ele>879.74000000000001</ele>
        <time>2017-11-12T10:27:55Z</time>
      </trkpt>
      <trkpt lat="45.914551047608256" lon="8.47492846660316">
        <ele>879.74000000000001</ele>
        <time>2017-11-12T10:28:27Z</time>
      </trkpt>
      <trkpt lat="45.914550125598907" lon="8.474935255944729">
        <ele>879.74000000000001</ele>
        <time>2017-11-12T10:28:56Z</time>
      </trkpt>
      <trkpt lat="45.914548365399241" lon="8.474940033629537">
        <ele>880.22000000000003</ele>
        <time>2017-11-12T10:29:17Z</time>
      </trkpt>
      <trkpt lat="45.914547359570861" lon="8.474951265379787">
        <ele>880.22000000000003</ele>
        <time>2017-11-12T10:29:47Z</time>
      </trkpt>
      <trkpt lat="45.914546102285385" lon="8.47494506277144">
        <ele>880.22000000000003</ele>
        <time>2017-11-12T10:30:11Z</time>
      </trkpt>
      <trkpt lat="45.914546856656671" lon="8.474952438846231">
        <ele>880.22000000000003</ele>
        <time>2017-11-12T10:30:29Z</time>
      </trkpt>
      <trkpt lat="45.914537888020277" lon="8.474962245672941">
        <ele>879.74000000000001</ele>
        <time>2017-11-12T10:30:59Z</time>
      </trkpt>
      <trkpt lat="45.914546772837639" lon="8.474946236237884">
        <ele>880.22000000000003</ele>
        <time>2017-11-12T10:31:23Z</time>
      </trkpt>
      <trkpt lat="45.914554400369525" lon="8.47493190318346">
        <ele>879.74000000000001</ele>
        <time>2017-11-12T10:31:49Z</time>
      </trkpt>
      <trkpt lat="45.914563788101077" lon="8.474915558472276">
        <ele>880.22000000000003</ele>
        <time>2017-11-12T10:32:17Z</time>
      </trkpt>
      <trkpt lat="45.914560100063682" lon="8.474919749423862">
        <ele>879.74000000000001</ele>
        <time>2017-11-12T10:32:45Z</time>
      </trkpt>
      <trkpt lat="45.914563704282045" lon="8.474927628412843">
        <ele>879.74000000000001</ele>
        <time>2017-11-12T10:33:03Z</time>
      </trkpt>
      <trkpt lat="45.914568901062012" lon="8.474929137155414">
        <ele>880.22000000000003</ele>
        <time>2017-11-12T10:33:33Z</time>
      </trkpt>
      <trkpt lat="45.914550209417939" lon="8.474941877648234">
        <ele>880.22000000000003</ele>
        <time>2017-11-12T10:33:58Z</time>
      </trkpt>
      <trkpt lat="45.914546772837639" lon="8.474945900961757">
        <ele>880.22000000000003</ele>
        <time>2017-11-12T10:34:19Z</time>
      </trkpt>
      <trkpt lat="45.914555992931128" lon="8.474938776344061">
        <ele>880.22000000000003</ele>
        <time>2017-11-12T10:34:39Z</time>
      </trkpt>
      <trkpt lat="45.91456001624465" lon="8.474918240681291">
        <ele>880.22000000000003</ele>
        <time>2017-11-12T10:34:57Z</time>
      </trkpt>
      <trkpt lat="45.914558423683047" lon="8.474925281479955">
        <ele>880.22000000000003</ele>
        <time>2017-11-12T10:35:24Z</time>
      </trkpt>
      <trkpt lat="45.914562027901411" lon="8.474923688918352">
        <ele>879.74000000000001</ele>
        <time>2017-11-12T10:35:48Z</time>
      </trkpt>
      <trkpt lat="45.914559178054333" lon="8.474931567907333">
        <ele>879.74000000000001</ele>
        <time>2017-11-12T10:36:16Z</time>
      </trkpt>
      <trkpt lat="45.914569487795234" lon="8.474924527108669">
        <ele>879.25999999999999</ele>
        <time>2017-11-12T10:36:43Z</time>
      </trkpt>
      <trkpt lat="45.914562530815601" lon="8.474938860163093">
        <ele>879.25999999999999</ele>
        <time>2017-11-12T10:37:11Z</time>
      </trkpt>
      <trkpt lat="45.914566302672029" lon="8.474945481866598">
        <ele>879.25999999999999</ele>
        <time>2017-11-12T10:37:35Z</time>
      </trkpt>
      <trkpt lat="45.914559848606586" lon="8.474955540150404">
        <ele>878.77999999999997</ele>
        <time>2017-11-12T10:38:04Z</time>
      </trkpt>
      <trkpt lat="45.914550377056003" lon="8.474955372512341">
        <ele>878.77999999999997</ele>
        <time>2017-11-12T10:38:24Z</time>
      </trkpt>
      <trkpt lat="45.914551885798573" lon="8.474950594827533">
        <ele>878.77999999999997</ele>
        <time>2017-11-12T10:38:49Z</time>
      </trkpt>
      <trkpt lat="45.914554484188557" lon="8.474945146590471">
        <ele>878.29999999999995</ele>
        <time>2017-11-12T10:39:12Z</time>
      </trkpt>
      <trkpt lat="45.914557166397572" lon="8.474947493523359">
        <ele>878.29999999999995</ele>
        <time>2017-11-12T10:39:38Z</time>
      </trkpt>
      <trkpt lat="45.914550796151161" lon="8.474947325885296">
        <ele>878.29999999999995</ele>
        <time>2017-11-12T10:40:04Z</time>
      </trkpt>
      <trkpt lat="45.914550293236971" lon="8.474964760243893">
        <ele>878.29999999999995</ele>
        <time>2017-11-12T10:40:33Z</time>
      </trkpt>
      <trkpt lat="45.914540737867355" lon="8.474974650889635">
        <ele>878.77999999999997</ele>
        <time>2017-11-12T10:40:58Z</time>
      </trkpt>
      <trkpt lat="45.914546437561512" lon="8.474947158247232">
        <ele>878.77999999999997</ele>
        <time>2017-11-12T10:41:21Z</time>
      </trkpt>
      <trkpt lat="45.914554065093398" lon="8.474936177954078">
        <ele>878.29999999999995</ele>
        <time>2017-11-12T10:41:50Z</time>
      </trkpt>
      <trkpt lat="45.914560602977872" lon="8.474934669211507">
        <ele>878.77999999999997</ele>
        <time>2017-11-12T10:42:06Z</time>
      </trkpt>
      <trkpt lat="45.914549622684717" lon="8.474952857941389">
        <ele>878.77999999999997</ele>
        <time>2017-11-12T10:42:39Z</time>
      </trkpt>
      <trkpt lat="45.914552640169859" lon="8.474955959245563">
        <ele>878.77999999999997</ele>
        <time>2017-11-12T10:43:05Z</time>
      </trkpt>
      <trkpt lat="45.914544258266687" lon="8.474955037236214">
        <ele>878.77999999999997</ele>
        <time>2017-11-12T10:43:39Z</time>
      </trkpt>
      <trkpt lat="45.91454828158021" lon="8.474951768293977">
        <ele>879.25999999999999</ele>
        <time>2017-11-12T10:44:02Z</time>
      </trkpt>
      <trkpt lat="45.914551969617605" lon="8.474948583170772">
        <ele>879.25999999999999</ele>
        <time>2017-11-12T10:44:25Z</time>
      </trkpt>
      <trkpt lat="45.914551550522447" lon="8.474947074428201">
        <ele>878.77999999999997</ele>
        <time>2017-11-12T10:44:57Z</time>
      </trkpt>
      <trkpt lat="45.914551550522447" lon="8.474942548200488">
        <ele>878.77999999999997</ele>
        <time>2017-11-12T10:45:30Z</time>
      </trkpt>
      <trkpt lat="45.914548868313432" lon="8.474949588999152">
        <ele>878.77999999999997</ele>
        <time>2017-11-12T10:46:00Z</time>
      </trkpt>
      <trkpt lat="45.914550963789225" lon="8.474958138540387">
        <ele>878.77999999999997</ele>
        <time>2017-11-12T10:46:21Z</time>
      </trkpt>
      <trkpt lat="45.914552137255669" lon="8.474958557635546">
        <ele>878.77999999999997</ele>
        <time>2017-11-12T10:46:49Z</time>
      </trkpt>
      <trkpt lat="45.914557166397572" lon="8.474960820749402">
        <ele>878.77999999999997</ele>
        <time>2017-11-12T10:47:11Z</time>
      </trkpt>
      <trkpt lat="45.914555992931128" lon="8.474958054721355">
        <ele>878.77999999999997</ele>
        <time>2017-11-12T10:47:35Z</time>
      </trkpt>
      <trkpt lat="45.914550460875034" lon="8.474946487694979">
        <ele>878.77999999999997</ele>
        <time>2017-11-12T10:47:57Z</time>
      </trkpt>
      <trkpt lat="45.914546521380544" lon="8.474951684474945">
        <ele>878.77999999999997</ele>
        <time>2017-11-12T10:48:22Z</time>
      </trkpt>
      <trkpt lat="45.914553226903081" lon="8.474949924275279">
        <ele>879.25999999999999</ele>
        <time>2017-11-12T10:48:39Z</time>
      </trkpt>
      <trkpt lat="45.914554903283715" lon="8.474954282864928">
        <ele>879.25999999999999</ele>
        <time>2017-11-12T10:49:06Z</time>
      </trkpt>
      <trkpt lat="45.914547108113766" lon="8.474962580949068">
        <ele>879.25999999999999</ele>
        <time>2017-11-12T10:49:39Z</time>
      </trkpt>
      <trkpt lat="45.914546940475702" lon="8.474958892911673">
        <ele>879.25999999999999</ele>
        <time>2017-11-12T10:50:13Z</time>
      </trkpt>
      <trkpt lat="45.914550209417939" lon="8.474955372512341">
        <ele>879.25999999999999</ele>
        <time>2017-11-12T10:50:40Z</time>
      </trkpt>
      <trkpt lat="45.914551131427288" lon="8.474951684474945">
        <ele>878.77999999999997</ele>
        <time>2017-11-12T10:51:12Z</time>
      </trkpt>
      <trkpt lat="45.914550796151161" lon="8.474952187389135">
        <ele>878.77999999999997</ele>
        <time>2017-11-12T10:51:41Z</time>
      </trkpt>
      <trkpt lat="45.914547778666019" lon="8.474950678646565">
        <ele>878.77999999999997</ele>
        <time>2017-11-12T10:52:19Z</time>
      </trkpt>
      <trkpt lat="45.914554484188557" lon="8.474949421361089">
        <ele>878.77999999999997</ele>
        <time>2017-11-12T10:52:46Z</time>
      </trkpt>
      <trkpt lat="45.914552891626954" lon="8.474949421361089">
        <ele>878.77999999999997</ele>
        <time>2017-11-12T10:53:18Z</time>
      </trkpt>
      <trkpt lat="45.914558591321111" lon="8.474949924275279">
        <ele>878.29999999999995</ele>
        <time>2017-11-12T10:53:48Z</time>
      </trkpt>
      <trkpt lat="45.914546521380544" lon="8.474948583170772">
        <ele>878.77999999999997</ele>
        <time>2017-11-12T10:54:10Z</time>
      </trkpt>
      <trkpt lat="45.914546689018607" lon="8.474947074428201">
        <ele>878.29999999999995</ele>
        <time>2017-11-12T10:54:45Z</time>
      </trkpt>
      <trkpt lat="45.914546269923449" lon="8.474944224581122">
        <ele>878.29999999999995</ele>
        <time>2017-11-12T10:55:14Z</time>
      </trkpt>
      <trkpt lat="45.914555490016937" lon="8.47495486959815">
        <ele>878.29999999999995</ele>
        <time>2017-11-12T10:55:42Z</time>
      </trkpt>
      <trkpt lat="45.91454635374248" lon="8.474964257329702">
        <ele>878.29999999999995</ele>
        <time>2017-11-12T10:56:21Z</time>
      </trkpt>
      <trkpt lat="45.914549203589559" lon="8.474957467988133">
        <ele>877.82000000000005</ele>
        <time>2017-11-12T10:56:54Z</time>
      </trkpt>
      <trkpt lat="45.914557417854667" lon="8.474952438846231">
        <ele>877.82000000000005</ele>
        <time>2017-11-12T10:57:31Z</time>
      </trkpt>
      <trkpt lat="45.91455414891243" lon="8.474941039457917">
        <ele>877.82000000000005</ele>
        <time>2017-11-12T10:58:03Z</time>
      </trkpt>
      <trkpt lat="45.914546856656671" lon="8.474940285086632">
        <ele>877.34000000000003</ele>
        <time>2017-11-12T10:58:38Z</time>
      </trkpt>
      <trkpt lat="45.914554484188557" lon="8.474940620362759">
        <ele>877.34000000000003</ele>
        <time>2017-11-12T10:59:07Z</time>
      </trkpt>
      <trkpt lat="45.914552304893732" lon="8.474941961467266">
        <ele>877.34000000000003</ele>
        <time>2017-11-12T10:59:33Z</time>
      </trkpt>
      <trkpt lat="45.914556076750159" lon="8.474942883476615">
        <ele>876.86000000000001</ele>
        <time>2017-11-12T11:00:06Z</time>
      </trkpt>
      <trkpt lat="45.91455364599824" lon="8.474948666989803">
        <ele>876.86000000000001</ele>
        <time>2017-11-12T11:00:29Z</time>
      </trkpt>
      <trkpt lat="45.914551885798573" lon="8.474966185167432">
        <ele>876.86000000000001</ele>
        <time>2017-11-12T11:01:01Z</time>
      </trkpt>
      <trkpt lat="45.914557836949825" lon="8.474960485473275">
        <ele>876.86000000000001</ele>
        <time>2017-11-12T11:01:36Z</time>
      </trkpt>
      <trkpt lat="45.914553394541144" lon="8.474960317835212">
        <ele>877.34000000000003</ele>
        <time>2017-11-12T11:02:03Z</time>
      </trkpt>
      <trkpt lat="45.914559764787555" lon="8.474952941760421">
        <ele>877.34000000000003</ele>
        <time>2017-11-12T11:02:38Z</time>
      </trkpt>
      <trkpt lat="45.914557166397572" lon="8.47495386376977">
        <ele>877.34000000000003</ele>
        <time>2017-11-12T11:03:04Z</time>
      </trkpt>
      <trkpt lat="45.914561189711094" lon="8.474957384169102">
        <ele>877.34000000000003</ele>
        <time>2017-11-12T11:03:29Z</time>
      </trkpt>
      <trkpt lat="45.914560938253999" lon="8.47495730035007">
        <ele>877.34000000000003</ele>
        <time>2017-11-12T11:04:05Z</time>
      </trkpt>
      <trkpt lat="45.914556412026286" lon="8.474958557635546">
        <ele>877.34000000000003</ele>
        <time>2017-11-12T11:04:38Z</time>
      </trkpt>
      <trkpt lat="45.914566637948155" lon="8.474957719445229">
        <ele>877.34000000000003</ele>
        <time>2017-11-12T11:05:07Z</time>
      </trkpt>
      <trkpt lat="45.914559010416269" lon="8.474961239844561">
        <ele>877.34000000000003</ele>
        <time>2017-11-12T11:05:35Z</time>
      </trkpt>
      <trkpt lat="45.914566218852997" lon="8.474959312006831">
        <ele>877.34000000000003</ele>
        <time>2017-11-12T11:05:59Z</time>
      </trkpt>
      <trkpt lat="45.914563536643982" lon="8.474948750808835">
        <ele>877.34000000000003</ele>
        <time>2017-11-12T11:06:29Z</time>
      </trkpt>
      <trkpt lat="45.914570325985551" lon="8.474949588999152">
        <ele>877.34000000000003</ele>
        <time>2017-11-12T11:07:00Z</time>
      </trkpt>
      <trkpt lat="45.914562614634633" lon="8.474947577342391">
        <ele>877.34000000000003</ele>
        <time>2017-11-12T11:07:33Z</time>
      </trkpt>
      <trkpt lat="45.914560854434967" lon="8.474943302571774">
        <ele>877.34000000000003</ele>
        <time>2017-11-12T11:08:01Z</time>
      </trkpt>
      <trkpt lat="45.914562614634633" lon="8.474947325885296">
        <ele>877.34000000000003</ele>
        <time>2017-11-12T11:08:29Z</time>
      </trkpt>
      <trkpt lat="45.914562614634633" lon="8.474947325885296">
        <ele>877.34000000000003</ele>
        <time>2017-11-12T11:08:51Z</time>
      </trkpt>
      <trkpt lat="45.914567224681377" lon="8.47494313493371">
        <ele>877.34000000000003</ele>
        <time>2017-11-12T11:09:20Z</time>
      </trkpt>
      <trkpt lat="45.914566302672029" lon="8.474947409704328">
        <ele>877.82000000000005</ele>
        <time>2017-11-12T11:09:56Z</time>
      </trkpt>
      <trkpt lat="45.914565045386553" lon="8.474953612312675">
        <ele>877.82000000000005</ele>
        <time>2017-11-12T11:10:13Z</time>
      </trkpt>
      <trkpt lat="45.914566554129124" lon="8.474952941760421">
        <ele>877.82000000000005</ele>
        <time>2017-11-12T11:10:36Z</time>
      </trkpt>
      <trkpt lat="45.914559848606586" lon="8.474962580949068">
        <ele>877.82000000000005</ele>
        <time>2017-11-12T11:11:06Z</time>
      </trkpt>
      <trkpt lat="45.914558675140142" lon="8.474959814921022">
        <ele>877.82000000000005</ele>
        <time>2017-11-12T11:11:40Z</time>
      </trkpt>
      <trkpt lat="45.914566721767187" lon="8.474952857941389">
        <ele>878.29999999999995</ele>
        <time>2017-11-12T11:12:14Z</time>
      </trkpt>
      <trkpt lat="45.914571415632963" lon="8.474946822971106">
        <ele>878.29999999999995</ele>
        <time>2017-11-12T11:12:40Z</time>
      </trkpt>
      <trkpt lat="45.914562782272696" lon="8.474960653111339">
        <ele>878.29999999999995</ele>
        <time>2017-11-12T11:13:06Z</time>
      </trkpt>
      <trkpt lat="45.914559094235301" lon="8.474969202652574">
        <ele>878.29999999999995</ele>
        <time>2017-11-12T11:13:32Z</time>
      </trkpt>
      <trkpt lat="45.914561189711094" lon="8.474958892911673">
        <ele>878.77999999999997</ele>
        <time>2017-11-12T11:14:03Z</time>
      </trkpt>
      <trkpt lat="45.914564877748489" lon="8.474942883476615">
        <ele>878.77999999999997</ele>
        <time>2017-11-12T11:14:31Z</time>
      </trkpt>
      <trkpt lat="45.914564626291394" lon="8.474958306178451">
        <ele>878.77999999999997</ele>
        <time>2017-11-12T11:15:00Z</time>
      </trkpt>
      <trkpt lat="45.914562614634633" lon="8.474958222359419">
        <ele>879.25999999999999</ele>
        <time>2017-11-12T11:15:28Z</time>
      </trkpt>
      <trkpt lat="45.91456051915884" lon="8.474953360855579">
        <ele>879.25999999999999</ele>
        <time>2017-11-12T11:15:56Z</time>
      </trkpt>
      <trkpt lat="45.914559345692396" lon="8.474952690303326">
        <ele>879.25999999999999</ele>
        <time>2017-11-12T11:16:26Z</time>
      </trkpt>
      <trkpt lat="45.914550544694066" lon="8.474952271208167">
        <ele>879.25999999999999</ele>
        <time>2017-11-12T11:16:47Z</time>
      </trkpt>
      <trkpt lat="45.91455465182662" lon="8.474957216531038">
        <ele>879.25999999999999</ele>
        <time>2017-11-12T11:17:16Z</time>
      </trkpt>
      <trkpt lat="45.914561273530126" lon="8.474947493523359">
        <ele>879.25999999999999</ele>
        <time>2017-11-12T11:17:37Z</time>
      </trkpt>
      <trkpt lat="45.9145712479949" lon="8.474952355027199">
        <ele>879.25999999999999</ele>
        <time>2017-11-12T11:18:07Z</time>
      </trkpt>
      <trkpt lat="45.914559429511428" lon="8.474962832406163">
        <ele>879.25999999999999</ele>
        <time>2017-11-12T11:18:45Z</time>
      </trkpt>
      <trkpt lat="45.914567224681377" lon="8.474958222359419">
        <ele>879.25999999999999</ele>
        <time>2017-11-12T11:19:06Z</time>
      </trkpt>
      <trkpt lat="45.91456051915884" lon="8.474941039457917">
        <ele>879.25999999999999</ele>
        <time>2017-11-12T11:19:34Z</time>
      </trkpt>
      <trkpt lat="45.914549957960844" lon="8.474963335320354">
        <ele>879.25999999999999</ele>
        <time>2017-11-12T11:20:11Z</time>
      </trkpt>
      <trkpt lat="45.914564542472363" lon="8.474956881254911">
        <ele>879.25999999999999</ele>
        <time>2017-11-12T11:20:38Z</time>
      </trkpt>
      <trkpt lat="45.914562530815601" lon="8.47494556568563">
        <ele>879.74000000000001</ele>
        <time>2017-11-12T11:21:07Z</time>
      </trkpt>
      <trkpt lat="45.914561944082379" lon="8.474934417754412">
        <ele>879.25999999999999</ele>
        <time>2017-11-12T11:21:46Z</time>
      </trkpt>
      <trkpt lat="45.914563620463014" lon="8.474947242066264">
        <ele>879.25999999999999</ele>
        <time>2017-11-12T11:22:15Z</time>
      </trkpt>
      <trkpt lat="45.914571331813931" lon="8.474961156025529">
        <ele>879.74000000000001</ele>
        <time>2017-11-12T11:22:52Z</time>
      </trkpt>
      <trkpt lat="45.914566889405251" lon="8.47495436668396">
        <ele>879.25999999999999</ele>
        <time>2017-11-12T11:23:26Z</time>
      </trkpt>
      <trkpt lat="45.914559848606586" lon="8.474937351420522">
        <ele>879.25999999999999</ele>
        <time>2017-11-12T11:23:56Z</time>
      </trkpt>
      <trkpt lat="45.914554735645652" lon="8.474946822971106">
        <ele>879.25999999999999</ele>
        <time>2017-11-12T11:24:20Z</time>
      </trkpt>
      <trkpt lat="45.91456102207303" lon="8.47495143301785">
        <ele>879.25999999999999</ele>
        <time>2017-11-12T11:24:47Z</time>
      </trkpt>
      <trkpt lat="45.914558339864016" lon="8.4749592281878">
        <ele>879.25999999999999</ele>
        <time>2017-11-12T11:25:16Z</time>
      </trkpt>
      <trkpt lat="45.914558926597238" lon="8.474974231794477">
        <ele>879.25999999999999</ele>
        <time>2017-11-12T11:25:51Z</time>
      </trkpt>
      <trkpt lat="45.914563704282045" lon="8.47494849935174">
        <ele>879.25999999999999</ele>
        <time>2017-11-12T11:26:22Z</time>
      </trkpt>
      <trkpt lat="45.914562195539474" lon="8.474944643676281">
        <ele>879.25999999999999</ele>
        <time>2017-11-12T11:26:42Z</time>
      </trkpt>
      <trkpt lat="45.914560770615935" lon="8.474936848506331">
        <ele>879.25999999999999</ele>
        <time>2017-11-12T11:27:06Z</time>
      </trkpt>
      <trkpt lat="45.91456051915884" lon="8.474944559857249">
        <ele>878.77999999999997</ele>
        <time>2017-11-12T11:27:40Z</time>
      </trkpt>
      <trkpt lat="45.914559178054333" lon="8.474947074428201">
        <ele>878.77999999999997</ele>
        <time>2017-11-12T11:28:02Z</time>
      </trkpt>
      <trkpt lat="45.914569655433297" lon="8.47492503002286">
        <ele>878.77999999999997</ele>
        <time>2017-11-12T11:28:26Z</time>
      </trkpt>
      <trkpt lat="45.914575606584549" lon="8.474926957860589">
        <ele>878.29999999999995</ele>
        <time>2017-11-12T11:28:47Z</time>
      </trkpt>
      <trkpt lat="45.914569906890392" lon="8.474939530715346">
        <ele>878.29999999999995</ele>
        <time>2017-11-12T11:29:09Z</time>
      </trkpt>
      <trkpt lat="45.914566051214933" lon="8.47494263201952">
        <ele>878.29999999999995</ele>
        <time>2017-11-12T11:29:43Z</time>
      </trkpt>
      <trkpt lat="45.914557334035635" lon="8.474954534322023">
        <ele>877.82000000000005</ele>
        <time>2017-11-12T11:30:07Z</time>
      </trkpt>
      <trkpt lat="45.914548449218273" lon="8.474954953417182">
        <ele>877.82000000000005</ele>
        <time>2017-11-12T11:30:29Z</time>
      </trkpt>
      <trkpt lat="45.914550460875034" lon="8.474948750808835">
        <ele>877.34000000000003</ele>
        <time>2017-11-12T11:30:59Z</time>
      </trkpt>
      <trkpt lat="45.914555070921779" lon="8.474942045286298">
        <ele>877.34000000000003</ele>
        <time>2017-11-12T11:31:22Z</time>
      </trkpt>
      <trkpt lat="45.914556495845318" lon="8.474939530715346">
        <ele>876.86000000000001</ele>
        <time>2017-11-12T11:31:46Z</time>
      </trkpt>
      <trkpt lat="45.914555657655001" lon="8.474943805485964">
        <ele>876.86000000000001</ele>
        <time>2017-11-12T11:32:16Z</time>
      </trkpt>
      <trkpt lat="45.914558256044984" lon="8.474950343370438">
        <ele>876.38</ele>
        <time>2017-11-12T11:32:46Z</time>
      </trkpt>
      <trkpt lat="45.914564123377204" lon="8.474952438846231">
        <ele>876.38</ele>
        <time>2017-11-12T11:33:18Z</time>
      </trkpt>
      <trkpt lat="45.914566470310092" lon="8.474940285086632">
        <ele>876.38</ele>
        <time>2017-11-12T11:33:47Z</time>
      </trkpt>
      <trkpt lat="45.914569487795234" lon="8.474932238459587">
        <ele>876.38</ele>
        <time>2017-11-12T11:34:17Z</time>
      </trkpt>
      <trkpt lat="45.914568230509758" lon="8.474935926496983">
        <ele>875.89999999999998</ele>
        <time>2017-11-12T11:34:49Z</time>
      </trkpt>
      <trkpt lat="45.914564626291394" lon="8.474943051114678">
        <ele>876.38</ele>
        <time>2017-11-12T11:35:26Z</time>
      </trkpt>
      <trkpt lat="45.914558926597238" lon="8.474944392219186">
        <ele>876.38</ele>
        <time>2017-11-12T11:36:00Z</time>
      </trkpt>
      <trkpt lat="45.91456051915884" lon="8.474944559857249">
        <ele>875.89999999999998</ele>
        <time>2017-11-12T11:36:28Z</time>
      </trkpt>
      <trkpt lat="45.91456638649106" lon="8.474932489916682">
        <ele>876.38</ele>
        <time>2017-11-12T11:36:52Z</time>
      </trkpt>
      <trkpt lat="45.914568230509758" lon="8.474938860163093">
        <ele>876.38</ele>
        <time>2017-11-12T11:37:13Z</time>
      </trkpt>
      <trkpt lat="45.914559261873364" lon="8.474947744980454">
        <ele>876.38</ele>
        <time>2017-11-12T11:37:39Z</time>
      </trkpt>
      <trkpt lat="45.914565799757838" lon="8.474950846284628">
        <ele>876.86000000000001</ele>
        <time>2017-11-12T11:38:06Z</time>
      </trkpt>
      <trkpt lat="45.914569152519107" lon="8.474946822971106">
        <ele>876.86000000000001</ele>
        <time>2017-11-12T11:38:31Z</time>
      </trkpt>
      <trkpt lat="45.914567979052663" lon="8.47494313493371">
        <ele>876.86000000000001</ele>
        <time>2017-11-12T11:39:01Z</time>
      </trkpt>
      <trkpt lat="45.914566470310092" lon="8.474941374734044">
        <ele>876.86000000000001</ele>
        <time>2017-11-12T11:39:32Z</time>
      </trkpt>
      <trkpt lat="45.914567811414599" lon="8.474945817142725">
        <ele>876.86000000000001</ele>
        <time>2017-11-12T11:39:58Z</time>
      </trkpt>
      <trkpt lat="45.914573092013597" lon="8.474947577342391">
        <ele>876.86000000000001</ele>
        <time>2017-11-12T11:40:30Z</time>
      </trkpt>
      <trkpt lat="45.914574265480042" lon="8.474957719445229">
        <ele>877.34000000000003</ele>
        <time>2017-11-12T11:40:59Z</time>
      </trkpt>
      <trkpt lat="45.91457225382328" lon="8.474952857941389">
        <ele>876.86000000000001</ele>
        <time>2017-11-12T11:41:24Z</time>
      </trkpt>
      <trkpt lat="45.914569906890392" lon="8.474944392219186">
        <ele>877.34000000000003</ele>
        <time>2017-11-12T11:41:58Z</time>
      </trkpt>
      <trkpt lat="45.914570745080709" lon="8.474946739152074">
        <ele>877.34000000000003</ele>
        <time>2017-11-12T11:42:21Z</time>
      </trkpt>
      <trkpt lat="45.914569571614265" lon="8.474951349198818">
        <ele>877.34000000000003</ele>
        <time>2017-11-12T11:42:49Z</time>
      </trkpt>
      <trkpt lat="45.914570242166519" lon="8.474951013922691">
        <ele>877.34000000000003</ele>
        <time>2017-11-12T11:43:22Z</time>
      </trkpt>
      <trkpt lat="45.914563871920109" lon="8.47495386376977">
        <ele>877.34000000000003</ele>
        <time>2017-11-12T11:43:58Z</time>
      </trkpt>
      <trkpt lat="45.914567727595568" lon="8.474944559857249">
        <ele>877.34000000000003</ele>
        <time>2017-11-12T11:44:30Z</time>
      </trkpt>
      <trkpt lat="45.914571331813931" lon="8.474948918446899">
        <ele>877.34000000000003</ele>
        <time>2017-11-12T11:45:00Z</time>
      </trkpt>
      <trkpt lat="45.914563788101077" lon="8.474944140762091">
        <ele>877.82000000000005</ele>
        <time>2017-11-12T11:45:25Z</time>
      </trkpt>
      <trkpt lat="45.9145712479949" lon="8.474947325885296">
        <ele>877.82000000000005</ele>
        <time>2017-11-12T11:45:54Z</time>
      </trkpt>
      <trkpt lat="45.914564961567521" lon="8.474949169903994">
        <ele>877.82000000000005</ele>
        <time>2017-11-12T11:46:20Z</time>
      </trkpt>
      <trkpt lat="45.914565548300743" lon="8.474947912618518">
        <ele>877.82000000000005</ele>
        <time>2017-11-12T11:46:55Z</time>
      </trkpt>
      <trkpt lat="45.91457418166101" lon="8.474947744980454">
        <ele>877.82000000000005</ele>
        <time>2017-11-12T11:47:27Z</time>
      </trkpt>
      <trkpt lat="45.914577282965183" lon="8.474955204874277">
        <ele>878.29999999999995</ele>
        <time>2017-11-12T11:47:55Z</time>
      </trkpt>
      <trkpt lat="45.914576947689056" lon="8.474960820749402">
        <ele>878.29999999999995</ele>
        <time>2017-11-12T11:48:17Z</time>
      </trkpt>
      <trkpt lat="45.914579294621944" lon="8.474954199045897">
        <ele>878.29999999999995</ele>
        <time>2017-11-12T11:48:41Z</time>
      </trkpt>
      <trkpt lat="45.914571834728122" lon="8.474954031407833">
        <ele>878.29999999999995</ele>
        <time>2017-11-12T11:49:14Z</time>
      </trkpt>
      <trkpt lat="45.914571080356836" lon="8.474955204874277">
        <ele>878.77999999999997</ele>
        <time>2017-11-12T11:49:41Z</time>
      </trkpt>
      <trkpt lat="45.914565799757838" lon="8.474941542372108">
        <ele>878.77999999999997</ele>
        <time>2017-11-12T11:50:07Z</time>
      </trkpt>
      <trkpt lat="45.914565045386553" lon="8.47495093010366">
        <ele>879.25999999999999</ele>
        <time>2017-11-12T11:50:27Z</time>
      </trkpt>
      <trkpt lat="45.914568984881043" lon="8.47493919543922">
        <ele>878.77999999999997</ele>
        <time>2017-11-12T11:50:49Z</time>
      </trkpt>
      <trkpt lat="45.914564961567521" lon="8.474948415532708">
        <ele>878.77999999999997</ele>
        <time>2017-11-12T11:51:10Z</time>
      </trkpt>
      <trkpt lat="45.914565213024616" lon="8.474940955638886">
        <ele>879.25999999999999</ele>
        <time>2017-11-12T11:51:41Z</time>
      </trkpt>
      <trkpt lat="45.914568649604917" lon="8.474942296743393">
        <ele>879.25999999999999</ele>
        <time>2017-11-12T11:52:05Z</time>
      </trkpt>
      <trkpt lat="45.914566973224282" lon="8.474947409704328">
        <ele>879.25999999999999</ele>
        <time>2017-11-12T11:52:34Z</time>
      </trkpt>
      <trkpt lat="45.914564710110426" lon="8.474941877648234">
        <ele>879.25999999999999</ele>
        <time>2017-11-12T11:52:52Z</time>
      </trkpt>
      <trkpt lat="45.914570828899741" lon="8.474944224581122">
        <ele>879.25999999999999</ele>
        <time>2017-11-12T11:53:17Z</time>
      </trkpt>
      <trkpt lat="45.914569487795234" lon="8.474952355027199">
        <ele>879.25999999999999</ele>
        <time>2017-11-12T11:53:46Z</time>
      </trkpt>
      <trkpt lat="45.914576947689056" lon="8.474939279258251">
        <ele>879.25999999999999</ele>
        <time>2017-11-12T11:54:13Z</time>
      </trkpt>
      <trkpt lat="45.914571834728122" lon="8.474946320056915">
        <ele>879.25999999999999</ele>
        <time>2017-11-12T11:54:37Z</time>
      </trkpt>
      <trkpt lat="45.914571415632963" lon="8.47495093010366">
        <ele>879.25999999999999</ele>
        <time>2017-11-12T11:54:58Z</time>
      </trkpt>
      <trkpt lat="45.91456831432879" lon="8.474933914840221">
        <ele>879.74000000000001</ele>
        <time>2017-11-12T11:55:12Z</time>
      </trkpt>
      <trkpt lat="45.914572086185217" lon="8.474930226802826">
        <ele>879.74000000000001</ele>
        <time>2017-11-12T11:55:30Z</time>
      </trkpt>
      <trkpt lat="45.914584742859006" lon="8.474921509623528">
        <ele>879.74000000000001</ele>
        <time>2017-11-12T11:55:54Z</time>
      </trkpt>
      <trkpt lat="45.914571415632963" lon="8.474908266216517">
        <ele>879.74000000000001</ele>
        <time>2017-11-12T11:56:22Z</time>
      </trkpt>
      <trkpt lat="45.914543755352497" lon="8.474887814372778">
        <ele>879.74000000000001</ele>
        <time>2017-11-12T11:56:46Z</time>
      </trkpt>
      <trkpt lat="45.91453461907804" lon="8.474876079708338">
        <ele>879.74000000000001</ele>
        <time>2017-11-12T11:57:08Z</time>
      </trkpt>
      <trkpt lat="45.914546856656671" lon="8.474888401106">
        <ele>879.74000000000001</ele>
        <time>2017-11-12T11:57:31Z</time>
      </trkpt>
      <trkpt lat="45.914548449218273" lon="8.474906757473946">
        <ele>879.74000000000001</ele>
        <time>2017-11-12T11:57:52Z</time>
      </trkpt>
      <trkpt lat="45.914556998759508" lon="8.47490256652236">
        <ele>879.74000000000001</ele>
        <time>2017-11-12T11:58:13Z</time>
      </trkpt>
      <trkpt lat="45.91455758549273" lon="8.474912457168102">
        <ele>879.74000000000001</ele>
        <time>2017-11-12T11:58:37Z</time>
      </trkpt>
      <trkpt lat="45.914544509723783" lon="8.474937519058585">
        <ele>879.25999999999999</ele>
        <time>2017-11-12T11:59:05Z</time>
      </trkpt>
      <trkpt lat="45.914554568007588" lon="8.474924443289638">
        <ele>879.25999999999999</ele>
        <time>2017-11-12T11:59:23Z</time>
      </trkpt>
      <trkpt lat="45.914547024294734" lon="8.474894603714347">
        <ele>879.25999999999999</ele>
        <time>2017-11-12T11:59:48Z</time>
      </trkpt>
      <trkpt lat="45.914560686796904" lon="8.474875995889306">
        <ele>878.77999999999997</ele>
        <time>2017-11-12T12:00:12Z</time>
      </trkpt>
      <trkpt lat="45.914556747302413" lon="8.474877923727036">
        <ele>878.77999999999997</ele>
        <time>2017-11-12T12:00:39Z</time>
      </trkpt>
      <trkpt lat="45.914538977667689" lon="8.474896028637886">
        <ele>878.77999999999997</ele>
        <time>2017-11-12T12:01:06Z</time>
      </trkpt>
      <trkpt lat="45.914532104507089" lon="8.474925365298986">
        <ele>878.29999999999995</ele>
        <time>2017-11-12T12:01:30Z</time>
      </trkpt>
      <trkpt lat="45.914565967395902" lon="8.47489426843822">
        <ele>878.29999999999995</ele>
        <time>2017-11-12T12:02:02Z</time>
      </trkpt>
      <trkpt lat="45.914583737030625" lon="8.474915558472276">
        <ele>877.82000000000005</ele>
        <time>2017-11-12T12:02:27Z</time>
      </trkpt>
      <trkpt lat="45.91456051915884" lon="8.474923353642225">
        <ele>877.82000000000005</ele>
        <time>2017-11-12T12:02:56Z</time>
      </trkpt>
      <trkpt lat="45.91457518748939" lon="8.474931148812175">
        <ele>877.82000000000005</ele>
        <time>2017-11-12T12:03:27Z</time>
      </trkpt>
      <trkpt lat="45.914568733423948" lon="8.474916815757752">
        <ele>877.82000000000005</ele>
        <time>2017-11-12T12:03:49Z</time>
      </trkpt>
      <trkpt lat="45.91458834707737" lon="8.474899213761091">
        <ele>877.82000000000005</ele>
        <time>2017-11-12T12:04:16Z</time>
      </trkpt>
      <trkpt lat="45.914570325985551" lon="8.474923186004162">
        <ele>877.82000000000005</ele>
        <time>2017-11-12T12:04:36Z</time>
      </trkpt>
      <trkpt lat="45.914557669311762" lon="8.474898543208838">
        <ele>877.82000000000005</ele>
        <time>2017-11-12T12:04:58Z</time>
      </trkpt>
      <trkpt lat="45.914572840556502" lon="8.474885383620858">
        <ele>877.82000000000005</ele>
        <time>2017-11-12T12:05:20Z</time>
      </trkpt>
      <trkpt lat="45.914550963789225" lon="8.474835427477956">
        <ele>878.29999999999995</ele>
        <time>2017-11-12T12:05:44Z</time>
      </trkpt>
      <trkpt lat="45.914531517773867" lon="8.474886976182461">
        <ele>878.77999999999997</ele>
        <time>2017-11-12T12:06:12Z</time>
      </trkpt>
      <trkpt lat="45.914543084800243" lon="8.474910361692309">
        <ele>878.77999999999997</ele>
        <time>2017-11-12T12:06:34Z</time>
      </trkpt>
      <trkpt lat="45.914573343470693" lon="8.474902398884296">
        <ele>878.77999999999997</ele>
        <time>2017-11-12T12:06:56Z</time>
      </trkpt>
      <trkpt lat="45.914564626291394" lon="8.474908182397485">
        <ele>879.25999999999999</ele>
        <time>2017-11-12T12:07:23Z</time>
      </trkpt>
      <trkpt lat="45.914554065093398" lon="8.474890915676951">
        <ele>879.25999999999999</ele>
        <time>2017-11-12T12:07:42Z</time>
      </trkpt>
      <trkpt lat="45.914586335420609" lon="8.474906841292977">
        <ele>879.74000000000001</ele>
        <time>2017-11-12T12:08:04Z</time>
      </trkpt>
      <trkpt lat="45.914569823071361" lon="8.47489477135241">
        <ele>880.22000000000003</ele>
        <time>2017-11-12T12:08:23Z</time>
      </trkpt>
      <trkpt lat="45.914588095620275" lon="8.474902817979455">
        <ele>880.22000000000003</ele>
        <time>2017-11-12T12:08:48Z</time>
      </trkpt>
      <trkpt lat="45.914575103670359" lon="8.47491187043488">
        <ele>880.71000000000004</ele>
        <time>2017-11-12T12:09:10Z</time>
      </trkpt>
      <trkpt lat="45.914542498067021" lon="8.474896950647235">
        <ele>881.19000000000005</ele>
        <time>2017-11-12T12:09:40Z</time>
      </trkpt>
      <trkpt lat="45.914537217468023" lon="8.474919246509671">
        <ele>881.66999999999996</ele>
        <time>2017-11-12T12:10:09Z</time>
      </trkpt>
      <trkpt lat="45.914564877748489" lon="8.474913965910673">
        <ele>881.66999999999996</ele>
        <time>2017-11-12T12:10:36Z</time>
      </trkpt>
      <trkpt lat="45.914553897455335" lon="8.474907092750073">
        <ele>882.14999999999998</ele>
        <time>2017-11-12T12:11:02Z</time>
      </trkpt>
      <trkpt lat="45.914562111720443" lon="8.474914468824863">
        <ele>882.14999999999998</ele>
        <time>2017-11-12T12:11:29Z</time>
      </trkpt>
      <trkpt lat="45.914557501673698" lon="8.474912121891975">
        <ele>882.14999999999998</ele>
        <time>2017-11-12T12:11:53Z</time>
      </trkpt>
      <trkpt lat="45.914563201367855" lon="8.474914385005832">
        <ele>882.63</ele>
        <time>2017-11-12T12:12:14Z</time>
      </trkpt>
      <trkpt lat="45.914557501673698" lon="8.474916983395815">
        <ele>882.14999999999998</ele>
        <time>2017-11-12T12:12:41Z</time>
      </trkpt>
      <trkpt lat="45.914552640169859" lon="8.474885383620858">
        <ele>882.14999999999998</ele>
        <time>2017-11-12T12:13:17Z</time>
      </trkpt>
      <trkpt lat="45.914554400369525" lon="8.474903823807836">
        <ele>882.14999999999998</ele>
        <time>2017-11-12T12:13:40Z</time>
      </trkpt>
      <trkpt lat="45.914561608806252" lon="8.474889826029539">
        <ele>882.14999999999998</ele>
        <time>2017-11-12T12:14:04Z</time>
      </trkpt>
      <trkpt lat="45.914556998759508" lon="8.474873146042228">
        <ele>882.14999999999998</ele>
        <time>2017-11-12T12:14:28Z</time>
      </trkpt>
      <trkpt lat="45.914546605199575" lon="8.474861830472946">
        <ele>882.14999999999998</ele>
        <time>2017-11-12T12:14:53Z</time>
      </trkpt>
      <trkpt lat="45.914550628513098" lon="8.474857471883297">
        <ele>882.14999999999998</ele>
        <time>2017-11-12T12:15:09Z</time>
      </trkpt>
      <trkpt lat="45.91455364599824" lon="8.474884210154414">
        <ele>882.14999999999998</ele>
        <time>2017-11-12T12:15:33Z</time>
      </trkpt>
      <trkpt lat="45.914556998759508" lon="8.474876247346401">
        <ele>882.14999999999998</ele>
        <time>2017-11-12T12:15:52Z</time>
      </trkpt>
      <trkpt lat="45.914537468925118" lon="8.474872978404164">
        <ele>882.14999999999998</ele>
        <time>2017-11-12T12:16:18Z</time>
      </trkpt>
      <trkpt lat="45.914551047608256" lon="8.474889993667603">
        <ele>882.14999999999998</ele>
        <time>2017-11-12T12:16:46Z</time>
      </trkpt>
      <trkpt lat="45.914564207196236" lon="8.47491187043488">
        <ele>882.14999999999998</ele>
        <time>2017-11-12T12:17:12Z</time>
      </trkpt>
      <trkpt lat="45.914555909112096" lon="8.474884796887636">
        <ele>882.14999999999998</ele>
        <time>2017-11-12T12:17:35Z</time>
      </trkpt>
      <trkpt lat="45.914552640169859" lon="8.47495193593204">
        <ele>883.11000000000001</ele>
        <time>2017-11-12T12:17:49Z</time>
      </trkpt>
      <trkpt lat="45.914558004587889" lon="8.474943889304996">
        <ele>882.14999999999998</ele>
        <time>2017-11-12T12:18:05Z</time>
      </trkpt>
      <trkpt lat="45.91456244699657" lon="8.474944895133376">
        <ele>882.63</ele>
        <time>2017-11-12T12:18:34Z</time>
      </trkpt>
      <trkpt lat="45.914563033729792" lon="8.47496559843421">
        <ele>882.63</ele>
        <time>2017-11-12T12:18:57Z</time>
      </trkpt>
      <trkpt lat="45.914610307663679" lon="8.474905667826533">
        <ele>882.63</ele>
        <time>2017-11-12T12:19:31Z</time>
      </trkpt>
      <trkpt lat="45.91460645198822" lon="8.474865686148405">
        <ele>882.63</ele>
        <time>2017-11-12T12:19:53Z</time>
      </trkpt>
      <trkpt lat="45.914509138092399" lon="8.474913043901324">
        <ele>882.63</ele>
        <time>2017-11-12T12:20:22Z</time>
      </trkpt>
      <trkpt lat="45.914551382884383" lon="8.474932154640555">
        <ele>882.63</ele>
        <time>2017-11-12T12:20:51Z</time>
      </trkpt>
      <trkpt lat="45.914584826678038" lon="8.474890915676951">
        <ele>882.63</ele>
        <time>2017-11-12T12:21:19Z</time>
      </trkpt>
      <trkpt lat="45.914560435339808" lon="8.474906254559755">
        <ele>882.63</ele>
        <time>2017-11-12T12:21:48Z</time>
      </trkpt>
      <trkpt lat="45.914562614634633" lon="8.474921509623528">
        <ele>882.63</ele>
        <time>2017-11-12T12:22:23Z</time>
      </trkpt>
      <trkpt lat="45.914619276300073" lon="8.474928550422192">
        <ele>882.63</ele>
        <time>2017-11-12T12:22:47Z</time>
      </trkpt>
      <trkpt lat="45.914622964337468" lon="8.474909104406834">
        <ele>882.63</ele>
        <time>2017-11-12T12:23:11Z</time>
      </trkpt>
      <trkpt lat="45.914630088955164" lon="8.474921006709337">
        <ele>882.63</ele>
        <time>2017-11-12T12:23:32Z</time>
      </trkpt>
      <trkpt lat="45.914647858589888" lon="8.474881947040558">
        <ele>882.14999999999998</ele>
        <time>2017-11-12T12:24:00Z</time>
      </trkpt>
      <trkpt lat="45.914650792255998" lon="8.474904745817184">
        <ele>882.63</ele>
        <time>2017-11-12T12:24:22Z</time>
      </trkpt>
      <trkpt lat="45.914633190259337" lon="8.474898040294647">
        <ele>882.63</ele>
        <time>2017-11-12T12:24:48Z</time>
      </trkpt>
      <trkpt lat="45.914679961279035" lon="8.474873565137386">
        <ele>882.63</ele>
        <time>2017-11-12T12:25:08Z</time>
      </trkpt>
      <trkpt lat="45.914630843326449" lon="8.474899716675282">
        <ele>883.11000000000001</ele>
        <time>2017-11-12T12:25:38Z</time>
      </trkpt>
      <trkpt lat="45.914593208581209" lon="8.474917486310005">
        <ele>883.11000000000001</ele>
        <time>2017-11-12T12:26:04Z</time>
      </trkpt>
      <trkpt lat="45.914591616019607" lon="8.474884377792478">
        <ele>883.11000000000001</ele>
        <time>2017-11-12T12:26:32Z</time>
      </trkpt>
      <trkpt lat="45.914627993479371" lon="8.474896531552076">
        <ele>883.11000000000001</ele>
        <time>2017-11-12T12:26:55Z</time>
      </trkpt>
      <trkpt lat="45.914640482515097" lon="8.474890664219856">
        <ele>883.11000000000001</ele>
        <time>2017-11-12T12:27:23Z</time>
      </trkpt>
      <trkpt lat="45.914627658203244" lon="8.474922850728035">
        <ele>883.11000000000001</ele>
        <time>2017-11-12T12:27:50Z</time>
      </trkpt>
      <trkpt lat="45.914646685123444" lon="8.474919330328703">
        <ele>883.59000000000003</ele>
        <time>2017-11-12T12:28:23Z</time>
      </trkpt>
      <trkpt lat="45.914641404524446" lon="8.474920755252242">
        <ele>883.11000000000001</ele>
        <time>2017-11-12T12:28:55Z</time>
      </trkpt>
      <trkpt lat="45.914665125310421" lon="8.474891753867269">
        <ele>883.11000000000001</ele>
        <time>2017-11-12T12:29:20Z</time>
      </trkpt>
      <trkpt lat="45.914656743407249" lon="8.474910696968436">
        <ele>883.59000000000003</ele>
        <time>2017-11-12T12:29:54Z</time>
      </trkpt>
      <trkpt lat="45.914618270471692" lon="8.474866021424532">
        <ele>883.11000000000001</ele>
        <time>2017-11-12T12:30:17Z</time>
      </trkpt>
      <trkpt lat="45.914611481130123" lon="8.474935339763761">
        <ele>884.07000000000005</ele>
        <time>2017-11-12T12:30:43Z</time>
      </trkpt>
      <trkpt lat="45.914606954902411" lon="8.47491673193872">
        <ele>884.07000000000005</ele>
        <time>2017-11-12T12:30:52Z</time>
      </trkpt>
      <trkpt lat="45.914591029286385" lon="8.474919917061925">
        <ele>883.11000000000001</ele>
        <time>2017-11-12T12:31:09Z</time>
      </trkpt>
      <trkpt lat="45.914562614634633" lon="8.474972806870937">
        <ele>882.14999999999998</ele>
        <time>2017-11-12T12:31:19Z</time>
      </trkpt>
      <trkpt lat="45.914525566622615" lon="8.475029719993472">
        <ele>880.71000000000004</ele>
        <time>2017-11-12T12:31:28Z</time>
      </trkpt>
      <trkpt lat="45.914485836401582" lon="8.475050674751401">
        <ele>880.22000000000003</ele>
        <time>2017-11-12T12:31:35Z</time>
      </trkpt>
      <trkpt lat="45.914474688470364" lon="8.475047992542386">
        <ele>879.74000000000001</ele>
        <time>2017-11-12T12:31:37Z</time>
      </trkpt>
      <trkpt lat="45.914396652951837" lon="8.475068863481283">
        <ele>879.25999999999999</ele>
        <time>2017-11-12T12:31:47Z</time>
      </trkpt>
      <trkpt lat="45.914348624646664" lon="8.475070372223854">
        <ele>878.77999999999997</ele>
        <time>2017-11-12T12:31:57Z</time>
      </trkpt>
      <trkpt lat="45.914303530007601" lon="8.475096942856908">
        <ele>879.25999999999999</ele>
        <time>2017-11-12T12:32:07Z</time>
      </trkpt>
      <trkpt lat="45.914331022650003" lon="8.475085711106658">
        <ele>878.29999999999995</ele>
        <time>2017-11-12T12:32:14Z</time>
      </trkpt>
      <trkpt lat="45.914322976022959" lon="8.475091326981783">
        <ele>877.82000000000005</ele>
        <time>2017-11-12T12:32:27Z</time>
      </trkpt>
      <trkpt lat="45.914318198338151" lon="8.475055368617177">
        <ele>878.29999999999995</ele>
        <time>2017-11-12T12:32:30Z</time>
      </trkpt>
      <trkpt lat="45.914322305470705" lon="8.475026031956077">
        <ele>877.34000000000003</ele>
        <time>2017-11-12T12:32:40Z</time>
      </trkpt>
      <trkpt lat="45.914322221651673" lon="8.47503256984055">
        <ele>877.34000000000003</ele>
        <time>2017-11-12T12:33:12Z</time>
      </trkpt>
      <trkpt lat="45.914310570806265" lon="8.475027456879616">
        <ele>877.34000000000003</ele>
        <time>2017-11-12T12:33:33Z</time>
      </trkpt>
      <trkpt lat="45.914280144497752" lon="8.475021170452237">
        <ele>877.34000000000003</ele>
        <time>2017-11-12T12:33:59Z</time>
      </trkpt>
      <trkpt lat="45.914269583299756" lon="8.47502376884222">
        <ele>877.34000000000003</ele>
        <time>2017-11-12T12:34:16Z</time>
      </trkpt>
      <trkpt lat="45.914278132840991" lon="8.474996527656913">
        <ele>877.34000000000003</ele>
        <time>2017-11-12T12:34:33Z</time>
      </trkpt>
      <trkpt lat="45.914297914132476" lon="8.474991917610169">
        <ele>877.34000000000003</ele>
        <time>2017-11-12T12:34:59Z</time>
      </trkpt>
      <trkpt lat="45.914312750101089" lon="8.47500323317945">
        <ele>877.34000000000003</ele>
        <time>2017-11-12T12:35:21Z</time>
      </trkpt>
      <trkpt lat="45.914304619655013" lon="8.475022427737713">
        <ele>877.34000000000003</ele>
        <time>2017-11-12T12:35:43Z</time>
      </trkpt>
      <trkpt lat="45.914302440360188" lon="8.475012704730034">
        <ele>877.34000000000003</ele>
        <time>2017-11-12T12:36:10Z</time>
      </trkpt>
      <trkpt lat="45.914308726787567" lon="8.474992923438549">
        <ele>877.34000000000003</ele>
        <time>2017-11-12T12:36:42Z</time>
      </trkpt>
      <trkpt lat="45.914289699867368" lon="8.474995689466596">
        <ele>877.34000000000003</ele>
        <time>2017-11-12T12:37:05Z</time>
      </trkpt>
      <trkpt lat="45.914277629926801" lon="8.475013710558415">
        <ele>877.34000000000003</ele>
        <time>2017-11-12T12:37:26Z</time>
      </trkpt>
      <trkpt lat="45.914300009608269" lon="8.475062744691968">
        <ele>877.82000000000005</ele>
        <time>2017-11-12T12:37:41Z</time>
      </trkpt>
      <trkpt lat="45.914306798949838" lon="8.475042628124356">
        <ele>877.82000000000005</ele>
        <time>2017-11-12T12:37:59Z</time>
      </trkpt>
      <trkpt lat="45.914316270500422" lon="8.475040029734373">
        <ele>877.82000000000005</ele>
        <time>2017-11-12T12:38:06Z</time>
      </trkpt>
      <trkpt lat="45.91431325301528" lon="8.47504816018045">
        <ele>877.82000000000005</ele>
        <time>2017-11-12T12:38:18Z</time>
      </trkpt>
      <trkpt lat="45.914304200559855" lon="8.475057547912002">
        <ele>878.77999999999997</ele>
        <time>2017-11-12T12:38:25Z</time>
      </trkpt>
      <trkpt lat="45.914309732615948" lon="8.475070120766759">
        <ele>878.77999999999997</ele>
        <time>2017-11-12T12:38:37Z</time>
      </trkpt>
      <trkpt lat="45.91433429159224" lon="8.475071210414171">
        <ele>878.77999999999997</ele>
        <time>2017-11-12T12:38:45Z</time>
      </trkpt>
      <trkpt lat="45.914332363754511" lon="8.475076910108328">
        <ele>878.29999999999995</ele>
        <time>2017-11-12T12:38:53Z</time>
      </trkpt>
      <trkpt lat="45.914296740666032" lon="8.475092835724354">
        <ele>878.77999999999997</ele>
        <time>2017-11-12T12:39:02Z</time>
      </trkpt>
      <trkpt lat="45.914278049021959" lon="8.47512686625123">
        <ele>878.77999999999997</ele>
        <time>2017-11-12T12:39:12Z</time>
      </trkpt>
      <trkpt lat="45.91427268460393" lon="8.475135248154402">
        <ele>878.77999999999997</ele>
        <time>2017-11-12T12:39:25Z</time>
      </trkpt>
      <trkpt lat="45.914278216660023" lon="8.475110102444887">
        <ele>878.77999999999997</ele>
        <time>2017-11-12T12:39:44Z</time>
      </trkpt>
      <trkpt lat="45.914288107305765" lon="8.475098954513669">
        <ele>878.29999999999995</ele>
        <time>2017-11-12T12:40:06Z</time>
      </trkpt>
      <trkpt lat="45.914272600784898" lon="8.475122340023518">
        <ele>878.29999999999995</ele>
        <time>2017-11-12T12:40:30Z</time>
      </trkpt>
      <trkpt lat="45.914267906919122" lon="8.47513566724956">
        <ele>878.29999999999995</ele>
        <time>2017-11-12T12:41:00Z</time>
      </trkpt>
      <trkpt lat="45.914261704310775" lon="8.47511412575841">
        <ele>878.29999999999995</ele>
        <time>2017-11-12T12:41:10Z</time>
      </trkpt>
      <trkpt lat="45.914263883605599" lon="8.475096188485622">
        <ele>877.82000000000005</ele>
        <time>2017-11-12T12:41:23Z</time>
      </trkpt>
      <trkpt lat="45.914277881383896" lon="8.475063247606158">
        <ele>878.29999999999995</ele>
        <time>2017-11-12T12:41:42Z</time>
      </trkpt>
      <trkpt lat="45.914265476167202" lon="8.475085292011499">
        <ele>877.82000000000005</ele>
        <time>2017-11-12T12:41:55Z</time>
      </trkpt>
      <trkpt lat="45.914282407611609" lon="8.475091410800815">
        <ele>877.82000000000005</ele>
        <time>2017-11-12T12:42:04Z</time>
      </trkpt>
      <trkpt lat="45.914325574412942" lon="8.475044388324022">
        <ele>877.34000000000003</ele>
        <time>2017-11-12T12:42:13Z</time>
      </trkpt>
      <trkpt lat="45.914345607161522" lon="8.474998623132706">
        <ele>876.38</ele>
        <time>2017-11-12T12:42:24Z</time>
      </trkpt>
      <trkpt lat="45.914338147267699" lon="8.474950343370438">
        <ele>873.98000000000002</ele>
        <time>2017-11-12T12:42:34Z</time>
      </trkpt>
      <trkpt lat="45.914334794506431" lon="8.474919414147735">
        <ele>873.5</ele>
        <time>2017-11-12T12:42:44Z</time>
      </trkpt>
      <trkpt lat="45.914360694587231" lon="8.474865267053247">
        <ele>870.61000000000001</ele>
        <time>2017-11-12T12:42:54Z</time>
      </trkpt>
      <trkpt lat="45.914387768134475" lon="8.474826291203499">
        <ele>869.64999999999998</ele>
        <time>2017-11-12T12:43:00Z</time>
      </trkpt>
      <trkpt lat="45.914395730942488" lon="8.474687822163105">
        <ele>867.25</ele>
        <time>2017-11-12T12:43:12Z</time>
      </trkpt>
      <trkpt lat="45.914330603554845" lon="8.474693270400167">
        <ele>864.36000000000001</ele>
        <time>2017-11-12T12:43:22Z</time>
      </trkpt>
      <trkpt lat="45.914289532229304" lon="8.474680949002504">
        <ele>863.39999999999998</ele>
        <time>2017-11-12T12:43:27Z</time>
      </trkpt>
      <trkpt lat="45.914192218333483" lon="8.474683966487646">
        <ele>861.48000000000002</ele>
        <time>2017-11-12T12:43:35Z</time>
      </trkpt>
      <trkpt lat="45.914114685729146" lon="8.474567709490657">
        <ele>860.51999999999998</ele>
        <time>2017-11-12T12:43:48Z</time>
      </trkpt>
      <trkpt lat="45.914060706272721" lon="8.474525883793831">
        <ele>859.08000000000004</ele>
        <time>2017-11-12T12:43:58Z</time>
      </trkpt>
      <trkpt lat="45.914036566391587" lon="8.474519262090325">
        <ele>858.59000000000003</ele>
        <time>2017-11-12T12:44:00Z</time>
      </trkpt>
      <trkpt lat="45.914028519764543" lon="8.474417589604855">
        <ele>858.11000000000001</ele>
        <time>2017-11-12T12:44:10Z</time>
      </trkpt>
      <trkpt lat="45.914015527814627" lon="8.474379032850266">
        <ele>858.11000000000001</ele>
        <time>2017-11-12T12:44:19Z</time>
      </trkpt>
      <trkpt lat="45.913989376276731" lon="8.47431180998683">
        <ele>858.11000000000001</ele>
        <time>2017-11-12T12:44:28Z</time>
      </trkpt>
      <trkpt lat="45.91394872404635" lon="8.474284065887332">
        <ele>858.11000000000001</ele>
        <time>2017-11-12T12:44:37Z</time>
      </trkpt>
      <trkpt lat="45.913923745974898" lon="8.47421407699585">
        <ele>857.14999999999998</ele>
        <time>2017-11-12T12:44:46Z</time>
      </trkpt>
      <trkpt lat="45.913902707397938" lon="8.474117182195187">
        <ele>854.75</ele>
        <time>2017-11-12T12:44:57Z</time>
      </trkpt>
      <trkpt lat="45.913908323273063" lon="8.474062196910381">
        <ele>854.26999999999998</ele>
        <time>2017-11-12T12:45:06Z</time>
      </trkpt>
      <trkpt lat="45.913874041289091" lon="8.473989525809884">
        <ele>851.87</ele>
        <time>2017-11-12T12:45:17Z</time>
      </trkpt>
      <trkpt lat="45.913836406543851" lon="8.473910903558135">
        <ele>849.46000000000004</ele>
        <time>2017-11-12T12:45:28Z</time>
      </trkpt>
      <trkpt lat="45.913812015205622" lon="8.473905706778169">
        <ele>848.5</ele>
        <time>2017-11-12T12:45:31Z</time>
      </trkpt>
      <trkpt lat="45.913777900859714" lon="8.473847033455968">
        <ele>847.53999999999996</ele>
        <time>2017-11-12T12:45:39Z</time>
      </trkpt>
      <trkpt lat="45.913782762363553" lon="8.473783750087023">
        <ele>848.5</ele>
        <time>2017-11-12T12:45:51Z</time>
      </trkpt>
      <trkpt lat="45.913764573633671" lon="8.473754748702049">
        <ele>847.53999999999996</ele>
        <time>2017-11-12T12:46:01Z</time>
      </trkpt>
      <trkpt lat="45.913765747100115" lon="8.473760196939111">
        <ele>847.05999999999995</ele>
        <time>2017-11-12T12:46:12Z</time>
      </trkpt>
      <trkpt lat="45.913724759593606" lon="8.473776876926422">
        <ele>845.62</ele>
        <time>2017-11-12T12:46:24Z</time>
      </trkpt>
      <trkpt lat="45.913706067949533" lon="8.473765728995204">
        <ele>845.13999999999999</ele>
        <time>2017-11-12T12:46:39Z</time>
      </trkpt>
      <trkpt lat="45.913716461509466" lon="8.473761035129428">
        <ele>845.13999999999999</ele>
        <time>2017-11-12T12:46:53Z</time>
      </trkpt>
      <trkpt lat="45.913686286658049" lon="8.473757766187191">
        <ele>844.17999999999995</ele>
        <time>2017-11-12T12:47:06Z</time>
      </trkpt>
      <trkpt lat="45.913666840642691" lon="8.473729686811566">
        <ele>844.17999999999995</ele>
        <time>2017-11-12T12:47:18Z</time>
      </trkpt>
      <trkpt lat="45.913666924461722" lon="8.473687442019582">
        <ele>844.65999999999997</ele>
        <time>2017-11-12T12:47:32Z</time>
      </trkpt>
      <trkpt lat="45.913642281666398" lon="8.473667241632938">
        <ele>842.73000000000002</ele>
        <time>2017-11-12T12:47:41Z</time>
      </trkpt>
      <trkpt lat="45.913682766258717" lon="8.473671767860651">
        <ele>843.69000000000005</ele>
        <time>2017-11-12T12:47:50Z</time>
      </trkpt>
      <trkpt lat="45.913678407669067" lon="8.473659781739116">
        <ele>843.69000000000005</ele>
        <time>2017-11-12T12:48:05Z</time>
      </trkpt>
      <trkpt lat="45.913670025765896" lon="8.473656261339784">
        <ele>844.17999999999995</ele>
        <time>2017-11-12T12:48:17Z</time>
      </trkpt>
      <trkpt lat="45.913662817329168" lon="8.473614184185863">
        <ele>841.76999999999998</ele>
        <time>2017-11-12T12:48:27Z</time>
      </trkpt>
      <trkpt lat="45.91365066356957" lon="8.473644191399217">
        <ele>841.28999999999996</ele>
        <time>2017-11-12T12:48:35Z</time>
      </trkpt>
      <trkpt lat="45.913582518696785" lon="8.473617788404226">
        <ele>838.40999999999997</ele>
        <time>2017-11-12T12:48:44Z</time>
      </trkpt>
      <trkpt lat="45.913550667464733" lon="8.473531454801559">
        <ele>836.48000000000002</ele>
        <time>2017-11-12T12:48:52Z</time>
      </trkpt>
      <trkpt lat="45.913538346067071" lon="8.47346356138587">
        <ele>835.51999999999998</ele>
        <time>2017-11-12T12:49:01Z</time>
      </trkpt>
      <trkpt lat="45.913499286398292" lon="8.473382592201233">
        <ele>835.51999999999998</ele>
        <time>2017-11-12T12:49:11Z</time>
      </trkpt>
      <trkpt lat="45.913459975272417" lon="8.473303634673357">
        <ele>834.08000000000004</ele>
        <time>2017-11-12T12:49:21Z</time>
      </trkpt>
      <trkpt lat="45.913416473194957" lon="8.473230712115765">
        <ele>833.60000000000002</ele>
        <time>2017-11-12T12:49:31Z</time>
      </trkpt>
      <trkpt lat="45.913413455709815" lon="8.473223419860005">
        <ele>833.60000000000002</ele>
        <time>2017-11-12T12:49:32Z</time>
      </trkpt>
      <trkpt lat="45.91335360892117" lon="8.473127027973533">
        <ele>832.15999999999997</ele>
        <time>2017-11-12T12:49:42Z</time>
      </trkpt>
      <trkpt lat="45.913334833458066" lon="8.473113868385553">
        <ele>831.67999999999995</ele>
        <time>2017-11-12T12:49:45Z</time>
      </trkpt>
      <trkpt lat="45.913283117115498" lon="8.473090315237641">
        <ele>831.67999999999995</ele>
        <time>2017-11-12T12:49:53Z</time>
      </trkpt>
      <trkpt lat="45.913196615874767" lon="8.473117891699076">
        <ele>832.63999999999999</ele>
        <time>2017-11-12T12:50:04Z</time>
      </trkpt>
      <trkpt lat="45.91312394477427" lon="8.473237585276365">
        <ele>830.24000000000001</ele>
        <time>2017-11-12T12:50:16Z</time>
      </trkpt>
      <trkpt lat="45.913061834871769" lon="8.473322996869683">
        <ele>827.35000000000002</ele>
        <time>2017-11-12T12:50:27Z</time>
      </trkpt>
      <trkpt lat="45.913002323359251" lon="8.473390638828278">
        <ele>826.38999999999999</ele>
        <time>2017-11-12T12:50:37Z</time>
      </trkpt>
      <trkpt lat="45.91292361728847" lon="8.473451742902398">
        <ele>824.47000000000003</ele>
        <time>2017-11-12T12:50:47Z</time>
      </trkpt>
      <trkpt lat="45.912897130474448" lon="8.473485438153148">
        <ele>823.99000000000001</ele>
        <time>2017-11-12T12:50:51Z</time>
      </trkpt>
      <trkpt lat="45.912843402475119" lon="8.473565066233277">
        <ele>822.54999999999995</ele>
        <time>2017-11-12T12:51:02Z</time>
      </trkpt>
      <trkpt lat="45.912774922326207" lon="8.473677719011903">
        <ele>819.65999999999997</ele>
        <time>2017-11-12T12:51:15Z</time>
      </trkpt>
      <trkpt lat="45.912705939263105" lon="8.473775535821915">
        <ele>817.25999999999999</ele>
        <time>2017-11-12T12:51:26Z</time>
      </trkpt>
      <trkpt lat="45.912615917623043" lon="8.473848793655634">
        <ele>814.85000000000002</ele>
        <time>2017-11-12T12:51:39Z</time>
      </trkpt>
      <trkpt lat="45.912575013935566" lon="8.473895732313395">
        <ele>812.92999999999995</ele>
        <time>2017-11-12T12:51:48Z</time>
      </trkpt>
      <trkpt lat="45.912506617605686" lon="8.473967481404543">
        <ele>810.04999999999995</ele>
        <time>2017-11-12T12:51:59Z</time>
      </trkpt>
      <trkpt lat="45.912479208782315" lon="8.474018275737763">
        <ele>808.13</ele>
        <time>2017-11-12T12:52:07Z</time>
      </trkpt>
      <trkpt lat="45.912462864071131" lon="8.474043253809214">
        <ele>807.63999999999999</ele>
        <time>2017-11-12T12:52:12Z</time>
      </trkpt>
      <trkpt lat="45.912438556551933" lon="8.47409681417048">
        <ele>806.20000000000005</ele>
        <time>2017-11-12T12:52:16Z</time>
      </trkpt>
      <trkpt lat="45.9123694896698" lon="8.474185494706035">
        <ele>804.75999999999999</ele>
        <time>2017-11-12T12:52:28Z</time>
      </trkpt>
      <trkpt lat="45.912309810519218" lon="8.474257746711373">
        <ele>802.84000000000003</ele>
        <time>2017-11-12T12:52:38Z</time>
      </trkpt>
      <trkpt lat="45.912278043106198" lon="8.474293369799852">
        <ele>800.91999999999996</ele>
        <time>2017-11-12T12:52:47Z</time>
      </trkpt>
      <trkpt lat="45.912198750302196" lon="8.474344834685326">
        <ele>798.99000000000001</ele>
        <time>2017-11-12T12:52:57Z</time>
      </trkpt>
      <trkpt lat="45.912116440013051" lon="8.474368387833238">
        <ele>797.07000000000005</ele>
        <time>2017-11-12T12:53:06Z</time>
      </trkpt>
      <trkpt lat="45.912046870216727" lon="8.474439047276974">
        <ele>795.63</ele>
        <time>2017-11-12T12:53:15Z</time>
      </trkpt>
      <trkpt lat="45.911937654018402" lon="8.474527224898338">
        <ele>793.71000000000004</ele>
        <time>2017-11-12T12:53:28Z</time>
      </trkpt>
      <trkpt lat="45.911840507760644" lon="8.474538791924715">
        <ele>792.25999999999999</ele>
        <time>2017-11-12T12:53:39Z</time>
      </trkpt>
      <trkpt lat="45.911829946562648" lon="8.474569637328386">
        <ele>790.34000000000003</ele>
        <time>2017-11-12T12:53:47Z</time>
      </trkpt>
      <trkpt lat="45.911814859136939" lon="8.47457081079483">
        <ele>790.34000000000003</ele>
        <time>2017-11-12T12:53:50Z</time>
      </trkpt>
      <trkpt lat="45.911776386201382" lon="8.474605428054929">
        <ele>788.89999999999998</ele>
        <time>2017-11-12T12:53:59Z</time>
      </trkpt>
      <trkpt lat="45.911749564111233" lon="8.474658401682973">
        <ele>786.01999999999998</ele>
        <time>2017-11-12T12:54:10Z</time>
      </trkpt>
      <trkpt lat="45.911764651536942" lon="8.474683379754424">
        <ele>785.04999999999995</ele>
        <time>2017-11-12T12:54:19Z</time>
      </trkpt>
      <trkpt lat="45.911725172773004" lon="8.474717745557427">
        <ele>783.61000000000001</ele>
        <time>2017-11-12T12:54:29Z</time>
      </trkpt>
      <trkpt lat="45.911660296842456" lon="8.474769713357091">
        <ele>781.21000000000004</ele>
        <time>2017-11-12T12:54:39Z</time>
      </trkpt>
      <trkpt lat="45.911585781723261" lon="8.474809443578124">
        <ele>779.76999999999998</ele>
        <time>2017-11-12T12:54:50Z</time>
      </trkpt>
      <trkpt lat="45.911559797823429" lon="8.474864847958088">
        <ele>778.32000000000005</ele>
        <time>2017-11-12T12:54:55Z</time>
      </trkpt>
      <trkpt lat="45.911476900801063" lon="8.474943302571774">
        <ele>776.39999999999998</ele>
        <time>2017-11-12T12:55:06Z</time>
      </trkpt>
      <trkpt lat="45.911387633532286" lon="8.474969705566764">
        <ele>774.96000000000004</ele>
        <time>2017-11-12T12:55:17Z</time>
      </trkpt>
      <trkpt lat="45.911342622712255" lon="8.474984122440219">
        <ele>773.51999999999998</ele>
        <time>2017-11-12T12:55:28Z</time>
      </trkpt>
      <trkpt lat="45.911330133676529" lon="8.475030809640884">
        <ele>771.11000000000001</ele>
        <time>2017-11-12T12:55:39Z</time>
      </trkpt>
      <trkpt lat="45.911293253302574" lon="8.475079089403153">
        <ele>769.19000000000005</ele>
        <time>2017-11-12T12:55:47Z</time>
      </trkpt>
      <trkpt lat="45.911269867792726" lon="8.475131224840879">
        <ele>767.75</ele>
        <time>2017-11-12T12:55:56Z</time>
      </trkpt>
      <trkpt lat="45.911221252754331" lon="8.475184701383114">
        <ele>765.35000000000002</ele>
        <time>2017-11-12T12:56:07Z</time>
      </trkpt>
      <trkpt lat="45.911163501441479" lon="8.475211691111326">
        <ele>763.41999999999996</ele>
        <time>2017-11-12T12:56:17Z</time>
      </trkpt>
      <trkpt lat="45.911118742078543" lon="8.475243039429188">
        <ele>761.98000000000002</ele>
        <time>2017-11-12T12:56:26Z</time>
      </trkpt>
      <trkpt lat="45.911074066534638" lon="8.475318979471922">
        <ele>759.58000000000004</ele>
        <time>2017-11-12T12:56:36Z</time>
      </trkpt>
      <trkpt lat="45.911044897511601" lon="8.475419813767076">
        <ele>756.69000000000005</ele>
        <time>2017-11-12T12:56:46Z</time>
      </trkpt>
      <trkpt lat="45.910990834236145" lon="8.475511092692614">
        <ele>754.28999999999996</ele>
        <time>2017-11-12T12:56:57Z</time>
      </trkpt>
      <trkpt lat="45.910962168127298" lon="8.475596671923995">
        <ele>751.88999999999999</ele>
        <time>2017-11-12T12:57:04Z</time>
      </trkpt>
      <trkpt lat="45.910882959142327" lon="8.475626762956381">
        <ele>749.97000000000003</ele>
        <time>2017-11-12T12:57:13Z</time>
      </trkpt>
      <trkpt lat="45.910821771249175" lon="8.475658446550369">
        <ele>748.51999999999998</ele>
        <time>2017-11-12T12:57:22Z</time>
      </trkpt>
      <trkpt lat="45.910755218937993" lon="8.47557588480413">
        <ele>746.60000000000002</ele>
        <time>2017-11-12T12:57:33Z</time>
      </trkpt>
      <trkpt lat="45.910719679668546" lon="8.475529197603464">
        <ele>746.12</ele>
        <time>2017-11-12T12:57:38Z</time>
      </trkpt>
      <trkpt lat="45.910701490938663" lon="8.475505392998457">
        <ele>745.63999999999999</ele>
        <time>2017-11-12T12:57:40Z</time>
      </trkpt>
      <trkpt lat="45.91066075488925" lon="8.475364996120334">
        <ele>744.20000000000005</ele>
        <time>2017-11-12T12:57:51Z</time>
      </trkpt>
      <trkpt lat="45.9106201864779" lon="8.47533356398344">
        <ele>742.27999999999997</ele>
        <time>2017-11-12T12:58:01Z</time>
      </trkpt>
      <trkpt lat="45.910603674128652" lon="8.475370025262237">
        <ele>741.78999999999996</ele>
        <time>2017-11-12T12:58:15Z</time>
      </trkpt>
      <trkpt lat="45.91057232581079" lon="8.47544495947659">
        <ele>738.90999999999997</ele>
        <time>2017-11-12T12:58:26Z</time>
      </trkpt>
      <trkpt lat="45.91056402772665" lon="8.475474044680595">
        <ele>736.99000000000001</ele>
        <time>2017-11-12T12:58:34Z</time>
      </trkpt>
      <trkpt lat="45.910559669137001" lon="8.475526347756386">
        <ele>735.54999999999995</ele>
        <time>2017-11-12T12:58:44Z</time>
      </trkpt>
      <trkpt lat="45.910521699115634" lon="8.475604215636849">
        <ele>732.65999999999997</ele>
        <time>2017-11-12T12:58:55Z</time>
      </trkpt>
      <trkpt lat="45.91048825532198" lon="8.475585356354713">
        <ele>730.74000000000001</ele>
        <time>2017-11-12T12:59:02Z</time>
      </trkpt>
      <trkpt lat="45.910484986379743" lon="8.475521989166737">
        <ele>729.77999999999997</ele>
        <time>2017-11-12T12:59:08Z</time>
      </trkpt>
      <trkpt lat="45.910460092127323" lon="8.475466249510646">
        <ele>728.82000000000005</ele>
        <time>2017-11-12T12:59:18Z</time>
      </trkpt>
      <trkpt lat="45.910444082692266" lon="8.475459879264236">
        <ele>729.77999999999997</ele>
        <time>2017-11-12T12:59:28Z</time>
      </trkpt>
      <trkpt lat="45.91040225699544" lon="8.475409504026175">
        <ele>729.29999999999995</ele>
        <time>2017-11-12T12:59:36Z</time>
      </trkpt>
      <trkpt lat="45.910336626693606" lon="8.475404642522335">
        <ele>728.34000000000003</ele>
        <time>2017-11-12T12:59:44Z</time>
      </trkpt>
      <trkpt lat="45.910251047462225" lon="8.475362565368414">
        <ele>730.25999999999999</ele>
        <time>2017-11-12T12:59:57Z</time>
      </trkpt>
      <trkpt lat="45.910210898146033" lon="8.475446971133351">
        <ele>730.25999999999999</ele>
        <time>2017-11-12T13:00:07Z</time>
      </trkpt>
      <trkpt lat="45.910149458795786" lon="8.475476056337357">
        <ele>730.25999999999999</ele>
        <time>2017-11-12T13:00:15Z</time>
      </trkpt>
      <trkpt lat="45.910126576200128" lon="8.475534729659557">
        <ele>728.82000000000005</ele>
        <time>2017-11-12T13:00:25Z</time>
      </trkpt>
      <trkpt lat="45.910112243145704" lon="8.475577812641859">
        <ele>726.88999999999999</ele>
        <time>2017-11-12T13:00:34Z</time>
      </trkpt>
      <trkpt lat="45.910057509317994" lon="8.475585943087935">
        <ele>724.97000000000003</ele>
        <time>2017-11-12T13:00:41Z</time>
      </trkpt>
      <trkpt lat="45.909953070804477" lon="8.475528359413147">
        <ele>723.52999999999997</ele>
        <time>2017-11-12T13:00:53Z</time>
      </trkpt>
      <trkpt lat="45.909894816577435" lon="8.475538082420826">
        <ele>723.52999999999997</ele>
        <time>2017-11-12T13:01:02Z</time>
      </trkpt>
      <trkpt lat="45.909854751080275" lon="8.475594408810139">
        <ele>721.61000000000001</ele>
        <time>2017-11-12T13:01:11Z</time>
      </trkpt>
      <trkpt lat="45.90982080437243" lon="8.475647466257215">
        <ele>719.67999999999995</ele>
        <time>2017-11-12T13:01:21Z</time>
      </trkpt>
      <trkpt lat="45.909810829907656" lon="8.475703541189432">
        <ele>718.24000000000001</ele>
        <time>2017-11-12T13:01:31Z</time>
      </trkpt>
      <trkpt lat="45.909767663106322" lon="8.475800771266222">
        <ele>716.32000000000005</ele>
        <time>2017-11-12T13:01:41Z</time>
      </trkpt>
      <trkpt lat="45.909795993939042" lon="8.475825162604451">
        <ele>713.91999999999996</ele>
        <time>2017-11-12T13:01:51Z</time>
      </trkpt>
      <trkpt lat="45.909799346700311" lon="8.475852571427822">
        <ele>712.95000000000005</ele>
        <time>2017-11-12T13:01:54Z</time>
      </trkpt>
      <trkpt lat="45.909755425527692" lon="8.475879477337003">
        <ele>711.50999999999999</ele>
        <time>2017-11-12T13:02:03Z</time>
      </trkpt>
      <trkpt lat="45.909688202664256" lon="8.47586371935904">
        <ele>710.07000000000005</ele>
        <time>2017-11-12T13:02:12Z</time>
      </trkpt>
      <trkpt lat="45.909653082489967" lon="8.47590277902782">
        <ele>709.59000000000003</ele>
        <time>2017-11-12T13:02:19Z</time>
      </trkpt>
      <trkpt lat="45.909573622047901" lon="8.475966900587082">
        <ele>709.59000000000003</ele>
        <time>2017-11-12T13:02:29Z</time>
      </trkpt>
      <trkpt lat="45.909535568207502" lon="8.476032027974725">
        <ele>709.59000000000003</ele>
        <time>2017-11-12T13:02:37Z</time>
      </trkpt>
      <trkpt lat="45.90948024764657" lon="8.476110566407442">
        <ele>708.14999999999998</ele>
        <time>2017-11-12T13:02:47Z</time>
      </trkpt>
      <trkpt lat="45.909452168270946" lon="8.47614367492497">
        <ele>707.19000000000005</ele>
        <time>2017-11-12T13:02:57Z</time>
      </trkpt>
      <trkpt lat="45.909425178542733" lon="8.476198576390743">
        <ele>704.77999999999997</ele>
        <time>2017-11-12T13:03:05Z</time>
      </trkpt>
      <trkpt lat="45.90938595123589" lon="8.476241827011108">
        <ele>703.34000000000003</ele>
        <time>2017-11-12T13:03:15Z</time>
      </trkpt>
      <trkpt lat="45.909383436664939" lon="8.476288514211774">
        <ele>701.89999999999998</ele>
        <time>2017-11-12T13:03:22Z</time>
      </trkpt>
      <trkpt lat="45.909367930144072" lon="8.476355569437146">
        <ele>699.98000000000002</ele>
        <time>2017-11-12T13:03:32Z</time>
      </trkpt>
      <trkpt lat="45.909375641494989" lon="8.476430587470532">
        <ele>697.57000000000005</ele>
        <time>2017-11-12T13:03:41Z</time>
      </trkpt>
      <trkpt lat="45.909373546019197" lon="8.476464617997408">
        <ele>696.61000000000001</ele>
        <time>2017-11-12T13:03:51Z</time>
      </trkpt>
      <trkpt lat="45.909340772777796" lon="8.476540390402079">
        <ele>694.69000000000005</ele>
        <time>2017-11-12T13:03:59Z</time>
      </trkpt>
      <trkpt lat="45.909321578219533" lon="8.476653965190053">
        <ele>691.80999999999995</ele>
        <time>2017-11-12T13:04:12Z</time>
      </trkpt>
      <trkpt lat="45.909254439175129" lon="8.476719176396728">
        <ele>689.88</ele>
        <time>2017-11-12T13:04:23Z</time>
      </trkpt>
      <trkpt lat="45.909191407263279" lon="8.476791512221098">
        <ele>687</ele>
        <time>2017-11-12T13:04:33Z</time>
      </trkpt>
      <trkpt lat="45.909111863002181" lon="8.476839121431112">
        <ele>685.08000000000004</ele>
        <time>2017-11-12T13:04:43Z</time>
      </trkpt>
      <trkpt lat="45.909039359539747" lon="8.476897543296218">
        <ele>683.14999999999998</ele>
        <time>2017-11-12T13:04:55Z</time>
      </trkpt>
      <trkpt lat="45.908977752551436" lon="8.476934088394046">
        <ele>682.19000000000005</ele>
        <time>2017-11-12T13:05:04Z</time>
      </trkpt>
      <trkpt lat="45.908968281000853" lon="8.476939201354981">
        <ele>682.19000000000005</ele>
        <time>2017-11-12T13:05:05Z</time>
      </trkpt>
      <trkpt lat="45.908943638205528" lon="8.476970968768001">
        <ele>681.71000000000004</ele>
        <time>2017-11-12T13:05:08Z</time>
      </trkpt>
      <trkpt lat="45.908893179148436" lon="8.477095691487193">
        <ele>680.75</ele>
        <time>2017-11-12T13:05:21Z</time>
      </trkpt>
      <trkpt lat="45.908824112266302" lon="8.477124609053135">
        <ele>678.35000000000002</ele>
        <time>2017-11-12T13:05:32Z</time>
      </trkpt>
      <trkpt lat="45.908801984041929" lon="8.477208260446787">
        <ele>676.90999999999997</ele>
        <time>2017-11-12T13:05:43Z</time>
      </trkpt>
      <trkpt lat="45.908795865252614" lon="8.477246817201376">
        <ele>674.5</ele>
        <time>2017-11-12T13:05:53Z</time>
      </trkpt>
      <trkpt lat="45.908789411187172" lon="8.477301551029086">
        <ele>673.53999999999996</ele>
        <time>2017-11-12T13:06:02Z</time>
      </trkpt>
      <trkpt lat="45.908739538863301" lon="8.477285876870155">
        <ele>671.62</ele>
        <time>2017-11-12T13:06:10Z</time>
      </trkpt>
      <trkpt lat="45.908670052886009" lon="8.477398864924908">
        <ele>669.22000000000003</ele>
        <time>2017-11-12T13:06:22Z</time>
      </trkpt>
      <trkpt lat="45.908625544980168" lon="8.477504979819059">
        <ele>668.25</ele>
        <time>2017-11-12T13:06:33Z</time>
      </trkpt>
      <trkpt lat="45.908569302409887" lon="8.477598857134581">
        <ele>666.80999999999995</ele>
        <time>2017-11-12T13:06:44Z</time>
      </trkpt>
      <trkpt lat="45.90855672955513" lon="8.477682676166296">
        <ele>665.37</ele>
        <time>2017-11-12T13:06:55Z</time>
      </trkpt>
      <trkpt lat="45.908534433692694" lon="8.477738248184323">
        <ele>663.92999999999995</ele>
        <time>2017-11-12T13:07:05Z</time>
      </trkpt>
      <trkpt lat="45.908478107303381" lon="8.477820055559278">
        <ele>660.55999999999995</ele>
        <time>2017-11-12T13:07:16Z</time>
      </trkpt>
      <trkpt lat="45.908503588289022" lon="8.477916950359941">
        <ele>658.15999999999997</ele>
        <time>2017-11-12T13:07:27Z</time>
      </trkpt>
      <trkpt lat="45.908474838361144" lon="8.477998757734895">
        <ele>656.24000000000001</ele>
        <time>2017-11-12T13:07:37Z</time>
      </trkpt>
      <trkpt lat="45.908475425094366" lon="8.478024573996663">
        <ele>654.79999999999995</ele>
        <time>2017-11-12T13:07:46Z</time>
      </trkpt>
      <trkpt lat="45.908512305468321" lon="8.47807377576828">
        <ele>652.87</ele>
        <time>2017-11-12T13:07:55Z</time>
      </trkpt>
      <trkpt lat="45.908568296581507" lon="8.478079307824373">
        <ele>650.95000000000005</ele>
        <time>2017-11-12T13:08:04Z</time>
      </trkpt>
      <trkpt lat="45.908556813374162" lon="8.478141250088811">
        <ele>649.02999999999997</ele>
        <time>2017-11-12T13:08:14Z</time>
      </trkpt>
      <trkpt lat="45.908556813374162" lon="8.478225823491812">
        <ele>647.10000000000002</ele>
        <time>2017-11-12T13:08:27Z</time>
      </trkpt>
      <trkpt lat="45.908517753705382" lon="8.478290028870106">
        <ele>645.17999999999995</ele>
        <time>2017-11-12T13:08:37Z</time>
      </trkpt>
      <trkpt lat="45.908459918573499" lon="8.478347696363926">
        <ele>643.25999999999999</ele>
        <time>2017-11-12T13:08:48Z</time>
      </trkpt>
      <trkpt lat="45.908416165038943" lon="8.478389019146562">
        <ele>641.82000000000005</ele>
        <time>2017-11-12T13:08:57Z</time>
      </trkpt>
      <trkpt lat="45.908369310200214" lon="8.478423887863755">
        <ele>639.88999999999999</ele>
        <time>2017-11-12T13:09:08Z</time>
      </trkpt>
      <trkpt lat="45.908305859193206" lon="8.478472167626023">
        <ele>637.97000000000003</ele>
        <time>2017-11-12T13:09:18Z</time>
      </trkpt>
      <trkpt lat="45.90826403349638" lon="8.478456158190966">
        <ele>636.52999999999997</ele>
        <time>2017-11-12T13:09:27Z</time>
      </trkpt>
      <trkpt lat="45.908241234719753" lon="8.478442244231701">
        <ele>635.09000000000003</ele>
        <time>2017-11-12T13:09:37Z</time>
      </trkpt>
      <trkpt lat="45.908154817298055" lon="8.478468479588628">
        <ele>632.67999999999995</ele>
        <time>2017-11-12T13:09:48Z</time>
      </trkpt>
      <trkpt lat="45.908091282472014" lon="8.478513155132532">
        <ele>630.75999999999999</ele>
        <time>2017-11-12T13:09:59Z</time>
      </trkpt>
      <trkpt lat="45.908039649948478" lon="8.478567888960242">
        <ele>628.36000000000001</ele>
        <time>2017-11-12T13:10:11Z</time>
      </trkpt>
      <trkpt lat="45.907995561137795" lon="8.478674087673426">
        <ele>626.44000000000005</ele>
        <time>2017-11-12T13:10:21Z</time>
      </trkpt>
      <trkpt lat="45.907997321337461" lon="8.478740891441703">
        <ele>624.99000000000001</ele>
        <time>2017-11-12T13:10:30Z</time>
      </trkpt>
      <trkpt lat="45.908000590279698" lon="8.478827895596623">
        <ele>623.07000000000005</ele>
        <time>2017-11-12T13:10:41Z</time>
      </trkpt>
      <trkpt lat="45.907971756532788" lon="8.478944571688771">
        <ele>620.19000000000005</ele>
        <time>2017-11-12T13:10:54Z</time>
      </trkpt>
      <trkpt lat="45.907935881987214" lon="8.479012046009302">
        <ele>615.86000000000001</ele>
        <time>2017-11-12T13:11:02Z</time>
      </trkpt>
      <trkpt lat="45.907925320789218" lon="8.479046998545528">
        <ele>617.29999999999995</ele>
        <time>2017-11-12T13:11:07Z</time>
      </trkpt>
      <trkpt lat="45.907915346324444" lon="8.479158729314804">
        <ele>615.38</ele>
        <time>2017-11-12T13:11:18Z</time>
      </trkpt>
      <trkpt lat="45.90790537185967" lon="8.479220001026988">
        <ele>613.94000000000005</ele>
        <time>2017-11-12T13:11:25Z</time>
      </trkpt>
      <trkpt lat="45.907868994399905" lon="8.479324020445347">
        <ele>612.01999999999998</ele>
        <time>2017-11-12T13:11:36Z</time>
      </trkpt>
      <trkpt lat="45.907903779298067" lon="8.479405576363206">
        <ele>609.61000000000001</ele>
        <time>2017-11-12T13:11:47Z</time>
      </trkpt>
      <trkpt lat="45.907915933057666" lon="8.479464249685407">
        <ele>608.16999999999996</ele>
        <time>2017-11-12T13:11:56Z</time>
      </trkpt>
      <trkpt lat="45.907907299697399" lon="8.479534154757857">
        <ele>606.25</ele>
        <time>2017-11-12T13:12:06Z</time>
      </trkpt>
      <trkpt lat="45.907882489264011" lon="8.4795992821455">
        <ele>603.85000000000002</ele>
        <time>2017-11-12T13:12:16Z</time>
      </trkpt>
      <trkpt lat="45.907869329676032" lon="8.479652171954513">
        <ele>601.91999999999996</ele>
        <time>2017-11-12T13:12:25Z</time>
      </trkpt>
      <trkpt lat="45.907868491485715" lon="8.479730375111103">
        <ele>600</ele>
        <time>2017-11-12T13:12:35Z</time>
      </trkpt>
      <trkpt lat="45.907903946936131" lon="8.479748563840985">
        <ele>598.55999999999995</ele>
        <time>2017-11-12T13:12:44Z</time>
      </trkpt>
      <trkpt lat="45.907933954149485" lon="8.479793490841985">
        <ele>597.12</ele>
        <time>2017-11-12T13:12:54Z</time>
      </trkpt>
      <trkpt lat="45.907965721562505" lon="8.479869933798909">
        <ele>594.71000000000004</ele>
        <time>2017-11-12T13:13:05Z</time>
      </trkpt>
      <trkpt lat="45.908002853393555" lon="8.479875884950161">
        <ele>594.71000000000004</ele>
        <time>2017-11-12T13:13:18Z</time>
      </trkpt>
      <trkpt lat="45.90805540792644" lon="8.47988317720592">
        <ele>593.75</ele>
        <time>2017-11-12T13:13:26Z</time>
      </trkpt>
      <trkpt lat="45.908079715445638" lon="8.479861132800579">
        <ele>593.75</ele>
        <time>2017-11-12T13:13:37Z</time>
      </trkpt>
      <trkpt lat="45.908083571121097" lon="8.479852164164186">
        <ele>594.23000000000002</ele>
        <time>2017-11-12T13:13:59Z</time>
      </trkpt>
      <trkpt lat="45.90803193859756" lon="8.479936150833964">
        <ele>594.23000000000002</ele>
        <time>2017-11-12T13:14:13Z</time>
      </trkpt>
      <trkpt lat="45.908021461218596" lon="8.479929529130459">
        <ele>594.23000000000002</ele>
        <time>2017-11-12T13:14:14Z</time>
      </trkpt>
      <trkpt lat="45.907948622480035" lon="8.479896755889058">
        <ele>595.19000000000005</ele>
        <time>2017-11-12T13:14:24Z</time>
      </trkpt>
      <trkpt lat="45.907889027148485" lon="8.479978898540139">
        <ele>592.30999999999995</ele>
        <time>2017-11-12T13:14:37Z</time>
      </trkpt>
      <trkpt lat="45.9079366363585" lon="8.48003463819623">
        <ele>589.42999999999995</ele>
        <time>2017-11-12T13:14:48Z</time>
      </trkpt>
      <trkpt lat="45.907917860895395" lon="8.480106219649315">
        <ele>587.5</ele>
        <time>2017-11-12T13:14:59Z</time>
      </trkpt>
      <trkpt lat="45.907906629145145" lon="8.480191882699728">
        <ele>584.13999999999999</ele>
        <time>2017-11-12T13:15:11Z</time>
      </trkpt>
      <trkpt lat="45.907941330224276" lon="8.480261787772179">
        <ele>580.76999999999998</ele>
        <time>2017-11-12T13:15:20Z</time>
      </trkpt>
      <trkpt lat="45.907995728775859" lon="8.480309816077352">
        <ele>580.28999999999996</ele>
        <time>2017-11-12T13:15:30Z</time>
      </trkpt>
      <trkpt lat="45.908080972731113" lon="8.480335045605898">
        <ele>577.40999999999997</ele>
        <time>2017-11-12T13:15:43Z</time>
      </trkpt>
      <trkpt lat="45.908106118440628" lon="8.480364298447967">
        <ele>575.97000000000003</ele>
        <time>2017-11-12T13:15:51Z</time>
      </trkpt>
      <trkpt lat="45.908094383776188" lon="8.480464378371835">
        <ele>574.03999999999996</ele>
        <time>2017-11-12T13:16:04Z</time>
      </trkpt>
      <trkpt lat="45.908136963844299" lon="8.480533529073">
        <ele>571.15999999999997</ele>
        <time>2017-11-12T13:16:14Z</time>
      </trkpt>
      <trkpt lat="45.908071920275688" lon="8.480632267892361">
        <ele>568.27999999999997</ele>
        <time>2017-11-12T13:16:25Z</time>
      </trkpt>
      <trkpt lat="45.908041493967175" lon="8.480674428865314">
        <ele>566.83000000000004</ele>
        <time>2017-11-12T13:16:34Z</time>
      </trkpt>
      <trkpt lat="45.908093964681029" lon="8.480664370581508">
        <ele>565.87</ele>
        <time>2017-11-12T13:16:43Z</time>
      </trkpt>
      <trkpt lat="45.908158421516418" lon="8.480764618143439">
        <ele>562.50999999999999</ele>
        <time>2017-11-12T13:16:54Z</time>
      </trkpt>
      <trkpt lat="45.908206533640623" lon="8.480803007259965">
        <ele>560.59000000000003</ele>
        <time>2017-11-12T13:17:02Z</time>
      </trkpt>
      <trkpt lat="45.908230086788535" lon="8.480850448831916">
        <ele>558.17999999999995</ele>
        <time>2017-11-12T13:17:12Z</time>
      </trkpt>
      <trkpt lat="45.90826353058219" lon="8.480830583721399">
        <ele>557.22000000000003</ele>
        <time>2017-11-12T13:17:20Z</time>
      </trkpt>
      <trkpt lat="45.908310050144792" lon="8.480856399983168">
        <ele>555.29999999999995</ele>
        <time>2017-11-12T13:17:30Z</time>
      </trkpt>
      <trkpt lat="45.908338632434607" lon="8.480935525149107">
        <ele>553.86000000000001</ele>
        <time>2017-11-12T13:17:36Z</time>
      </trkpt>
      <trkpt lat="45.908302506431937" lon="8.48107491619885">
        <ele>551.45000000000005</ele>
        <time>2017-11-12T13:17:47Z</time>
      </trkpt>
      <trkpt lat="45.908233439549804" lon="8.481134092435241">
        <ele>550.00999999999999</ele>
        <time>2017-11-12T13:17:56Z</time>
      </trkpt>
      <trkpt lat="45.908197397366166" lon="8.481190418824554">
        <ele>548.57000000000005</ele>
        <time>2017-11-12T13:18:04Z</time>
      </trkpt>
      <trkpt lat="45.90820343233645" lon="8.481228891760111">
        <ele>546.16999999999996</ele>
        <time>2017-11-12T13:18:16Z</time>
      </trkpt>
      <trkpt lat="45.908161187544465" lon="8.481303490698338">
        <ele>544.24000000000001</ele>
        <time>2017-11-12T13:18:27Z</time>
      </trkpt>
      <trkpt lat="45.908112907782197" lon="8.481379682198167">
        <ele>541.84000000000003</ele>
        <time>2017-11-12T13:18:39Z</time>
      </trkpt>
      <trkpt lat="45.908090779557824" lon="8.481414299458265">
        <ele>540.88</ele>
        <time>2017-11-12T13:18:44Z</time>
      </trkpt>
      <trkpt lat="45.908039398491383" lon="8.481466099619865">
        <ele>539.44000000000005</ele>
        <time>2017-11-12T13:18:53Z</time>
      </trkpt>
      <trkpt lat="45.908008636906743" lon="8.481493005529046">
        <ele>537.50999999999999</ele>
        <time>2017-11-12T13:19:00Z</time>
      </trkpt>
      <trkpt lat="45.908060856163502" lon="8.481522677466273">
        <ele>536.07000000000005</ele>
        <time>2017-11-12T13:19:11Z</time>
      </trkpt>
      <trkpt lat="45.908127911388874" lon="8.481595935299993">
        <ele>532.71000000000004</ele>
        <time>2017-11-12T13:19:23Z</time>
      </trkpt>
      <trkpt lat="45.908175688236952" lon="8.481710264459252">
        <ele>530.29999999999995</ele>
        <time>2017-11-12T13:19:34Z</time>
      </trkpt>
      <trkpt lat="45.908211646601558" lon="8.481727866455913">
        <ele>528.38</ele>
        <time>2017-11-12T13:19:43Z</time>
      </trkpt>
      <trkpt lat="45.908284904435277" lon="8.481806069612503">
        <ele>525.98000000000002</ele>
        <time>2017-11-12T13:19:53Z</time>
      </trkpt>
      <trkpt lat="45.908351959660649" lon="8.481859965249896">
        <ele>524.05999999999995</ele>
        <time>2017-11-12T13:20:02Z</time>
      </trkpt>
      <trkpt lat="45.908415410667658" lon="8.481832472607493">
        <ele>522.13</ele>
        <time>2017-11-12T13:20:11Z</time>
      </trkpt>
      <trkpt lat="45.908511634916067" lon="8.481876896694303">
        <ele>519.73000000000002</ele>
        <time>2017-11-12T13:20:21Z</time>
      </trkpt>
      <trkpt lat="45.908519010990858" lon="8.481923835352063">
        <ele>518.76999999999998</ele>
        <time>2017-11-12T13:20:31Z</time>
      </trkpt>
      <trkpt lat="45.908508449792862" lon="8.482034225016832">
        <ele>517.33000000000004</ele>
        <time>2017-11-12T13:20:40Z</time>
      </trkpt>
      <trkpt lat="45.908509371802211" lon="8.482094574719667">
        <ele>515.88</ele>
        <time>2017-11-12T13:20:49Z</time>
      </trkpt>
      <trkpt lat="45.908538457006216" lon="8.482071859762073">
        <ele>513.96000000000004</ele>
        <time>2017-11-12T13:20:57Z</time>
      </trkpt>
      <trkpt lat="45.908595453947783" lon="8.482002206146717">
        <ele>512.51999999999998</ele>
        <time>2017-11-12T13:21:07Z</time>
      </trkpt>
      <trkpt lat="45.908618671819568" lon="8.481956273317337">
        <ele>511.56</ele>
        <time>2017-11-12T13:21:12Z</time>
      </trkpt>
      <trkpt lat="45.90870525687933" lon="8.481916207820177">
        <ele>509.63999999999999</ele>
        <time>2017-11-12T13:21:22Z</time>
      </trkpt>
      <trkpt lat="45.908759152516723" lon="8.481931127607822">
        <ele>508.19</ele>
        <time>2017-11-12T13:21:28Z</time>
      </trkpt>
      <trkpt lat="45.90876342728734" lon="8.482037913054228">
        <ele>506.75</ele>
        <time>2017-11-12T13:21:38Z</time>
      </trkpt>
      <trkpt lat="45.9087516926229" lon="8.482102369889617">
        <ele>505.31</ele>
        <time>2017-11-12T13:21:46Z</time>
      </trkpt>
      <trkpt lat="45.908730821684003" lon="8.482160372659564">
        <ele>504.35000000000002</ele>
        <time>2017-11-12T13:21:53Z</time>
      </trkpt>
      <trkpt lat="45.908694695681334" lon="8.482211083173752">
        <ele>503.38999999999999</ele>
        <time>2017-11-12T13:22:02Z</time>
      </trkpt>
      <trkpt lat="45.908684805035591" lon="8.482244526967406">
        <ele>501.94999999999999</ele>
        <time>2017-11-12T13:22:10Z</time>
      </trkpt>
      <trkpt lat="45.908677596598864" lon="8.482278222218156">
        <ele>500.5</ele>
        <time>2017-11-12T13:22:18Z</time>
      </trkpt>
      <trkpt lat="45.9086549654603" lon="8.482346283271909">
        <ele>498.57999999999998</ele>
        <time>2017-11-12T13:22:28Z</time>
      </trkpt>
      <trkpt lat="45.908647002652287" lon="8.482411997392774">
        <ele>497.13999999999999</ele>
        <time>2017-11-12T13:22:38Z</time>
      </trkpt>
      <trkpt lat="45.90863736346364" lon="8.482437562197447">
        <ele>495.22000000000003</ele>
        <time>2017-11-12T13:22:48Z</time>
      </trkpt>
      <trkpt lat="45.908628981560469" lon="8.48251442424953">
        <ele>493.76999999999998</ele>
        <time>2017-11-12T13:22:56Z</time>
      </trkpt>
      <trkpt lat="45.908618671819568" lon="8.482625065371394">
        <ele>491.37</ele>
        <time>2017-11-12T13:23:07Z</time>
      </trkpt>
      <trkpt lat="45.908604422584176" lon="8.482730006799102">
        <ele>489.44999999999999</ele>
        <time>2017-11-12T13:23:18Z</time>
      </trkpt>
      <trkpt lat="45.908578103408217" lon="8.482790272682905">
        <ele>488.00999999999999</ele>
        <time>2017-11-12T13:23:27Z</time>
      </trkpt>
      <trkpt lat="45.908534601330757" lon="8.48284718580544">
        <ele>485.60000000000002</ele>
        <time>2017-11-12T13:23:38Z</time>
      </trkpt>
      <trkpt lat="45.908519010990858" lon="8.482886077836156">
        <ele>485.12</ele>
        <time>2017-11-12T13:23:46Z</time>
      </trkpt>
      <trkpt lat="45.908497301861644" lon="8.482937291264534">
        <ele>483.68000000000001</ele>
        <time>2017-11-12T13:23:56Z</time>
      </trkpt>
      <trkpt lat="45.908479951322079" lon="8.482976099476218">
        <ele>482.72000000000003</ele>
        <time>2017-11-12T13:24:04Z</time>
      </trkpt>
      <trkpt lat="45.908489255234599" lon="8.483039801940322">
        <ele>482.72000000000003</ele>
        <time>2017-11-12T13:24:14Z</time>
      </trkpt>
      <trkpt lat="45.908488836139441" lon="8.483077688142657">
        <ele>480.80000000000001</ele>
        <time>2017-11-12T13:24:25Z</time>
      </trkpt>
      <trkpt lat="45.908462684601545" lon="8.483163602650166">
        <ele>479.35000000000002</ele>
        <time>2017-11-12T13:24:37Z</time>
      </trkpt>
      <trkpt lat="45.908462852239609" lon="8.483266280964017">
        <ele>477.43000000000001</ele>
        <time>2017-11-12T13:24:51Z</time>
      </trkpt>
      <trkpt lat="45.908460421487689" lon="8.48332554101944">
        <ele>475.50999999999999</ele>
        <time>2017-11-12T13:25:00Z</time>
      </trkpt>
      <trkpt lat="45.908421613276005" lon="8.483338784426451">
        <ele>474.55000000000001</ele>
        <time>2017-11-12T13:25:10Z</time>
      </trkpt>
      <trkpt lat="45.908416416496038" lon="8.483412377536297">
        <ele>473.11000000000001</ele>
        <time>2017-11-12T13:25:20Z</time>
      </trkpt>
      <trkpt lat="45.908445920795202" lon="8.483420927077532">
        <ele>471.18000000000001</ele>
        <time>2017-11-12T13:25:32Z</time>
      </trkpt>
      <trkpt lat="45.908512640744448" lon="8.483377425000072">
        <ele>469.74000000000001</ele>
        <time>2017-11-12T13:25:42Z</time>
      </trkpt>
      <trkpt lat="45.908578187227249" lon="8.483313973993063">
        <ele>467.33999999999997</ele>
        <time>2017-11-12T13:25:52Z</time>
      </trkpt>
      <trkpt lat="45.908632669597864" lon="8.48326250910759">
        <ele>465.42000000000002</ele>
        <time>2017-11-12T13:26:01Z</time>
      </trkpt>
      <trkpt lat="45.908704753965139" lon="8.483211547136307">
        <ele>463.97000000000003</ele>
        <time>2017-11-12T13:26:10Z</time>
      </trkpt>
      <trkpt lat="45.90874875895679" lon="8.483228143304586">
        <ele>463.49000000000001</ele>
        <time>2017-11-12T13:26:15Z</time>
      </trkpt>
      <trkpt lat="45.908862417563796" lon="8.483245745301247">
        <ele>461.56999999999999</ele>
        <time>2017-11-12T13:26:26Z</time>
      </trkpt>
      <trkpt lat="45.908909356221557" lon="8.483266532421112">
        <ele>460.61000000000001</ele>
        <time>2017-11-12T13:26:31Z</time>
      </trkpt>
      <trkpt lat="45.909057548269629" lon="8.483323948457837">
        <ele>458.20999999999998</ele>
        <time>2017-11-12T13:26:45Z</time>
      </trkpt>
      <trkpt lat="45.909130554646254" lon="8.483356051146984">
        <ele>456.75999999999999</ele>
        <time>2017-11-12T13:26:55Z</time>
      </trkpt>
      <trkpt lat="45.909222001209855" lon="8.48335144110024">
        <ele>455.80000000000001</ele>
        <time>2017-11-12T13:27:04Z</time>
      </trkpt>
      <trkpt lat="45.909291822463274" lon="8.48337197676301">
        <ele>454.36000000000001</ele>
        <time>2017-11-12T13:27:14Z</time>
      </trkpt>
      <trkpt lat="45.90932484716177" lon="8.483513966202736">
        <ele>452.44</ele>
        <time>2017-11-12T13:27:26Z</time>
      </trkpt>
      <trkpt lat="45.909320153295994" lon="8.483627876266837">
        <ele>450.51999999999998</ele>
        <time>2017-11-12T13:27:36Z</time>
      </trkpt>
      <trkpt lat="45.909270280972123" lon="8.483651597052813">
        <ele>449.06999999999999</ele>
        <time>2017-11-12T13:27:45Z</time>
      </trkpt>
      <trkpt lat="45.909242117777467" lon="8.483648160472512">
        <ele>448.58999999999997</ele>
        <time>2017-11-12T13:27:50Z</time>
      </trkpt>
      <trkpt lat="45.909185959026217" lon="8.483621841296554">
        <ele>446.67000000000002</ele>
        <time>2017-11-12T13:28:00Z</time>
      </trkpt>
      <trkpt lat="45.909126028418541" lon="8.483667690306902">
        <ele>445.23000000000002</ele>
        <time>2017-11-12T13:28:09Z</time>
      </trkpt>
      <trkpt lat="45.909041706472635" lon="8.483698032796383">
        <ele>443.79000000000002</ele>
        <time>2017-11-12T13:28:18Z</time>
      </trkpt>
      <trkpt lat="45.90900918468833" lon="8.483776319772005">
        <ele>441.86000000000001</ele>
        <time>2017-11-12T13:28:28Z</time>
      </trkpt>
      <trkpt lat="45.909036928787827" lon="8.483847314491868">
        <ele>439.94</ele>
        <time>2017-11-12T13:28:38Z</time>
      </trkpt>
      <trkpt lat="45.909049082547426" lon="8.483942868188024">
        <ele>438.5</ele>
        <time>2017-11-12T13:28:47Z</time>
      </trkpt>
      <trkpt lat="45.90905025601387" lon="8.484010174870491">
        <ele>437.54000000000002</ele>
        <time>2017-11-12T13:28:52Z</time>
      </trkpt>
      <trkpt lat="45.909070456400514" lon="8.484086785465479">
        <ele>435.61000000000001</ele>
        <time>2017-11-12T13:29:01Z</time>
      </trkpt>
      <trkpt lat="45.909116473048925" lon="8.484165156260133">
        <ele>433.69</ele>
        <time>2017-11-12T13:29:12Z</time>
      </trkpt>
      <trkpt lat="45.90913868509233" lon="8.484281580895186">
        <ele>431.76999999999998</ele>
        <time>2017-11-12T13:29:22Z</time>
      </trkpt>
      <trkpt lat="45.909144384786487" lon="8.484352324157953">
        <ele>430.81</ele>
        <time>2017-11-12T13:29:29Z</time>
      </trkpt>
      <trkpt lat="45.909125860780478" lon="8.48445282317698">
        <ele>428.88999999999999</ele>
        <time>2017-11-12T13:29:39Z</time>
      </trkpt>
      <trkpt lat="45.909143630415201" lon="8.484534043818712">
        <ele>426.95999999999998</ele>
        <time>2017-11-12T13:29:48Z</time>
      </trkpt>
      <trkpt lat="45.909214289858937" lon="8.484611744061112">
        <ele>425.04000000000002</ele>
        <time>2017-11-12T13:29:59Z</time>
      </trkpt>
      <trkpt lat="45.909258797764778" lon="8.484700005501509">
        <ele>423.60000000000002</ele>
        <time>2017-11-12T13:30:10Z</time>
      </trkpt>
      <trkpt lat="45.90929601341486" lon="8.484802767634392">
        <ele>422.16000000000003</ele>
        <time>2017-11-12T13:30:19Z</time>
      </trkpt>
      <trkpt lat="45.90934437699616" lon="8.484889436513186">
        <ele>420.70999999999998</ele>
        <time>2017-11-12T13:30:29Z</time>
      </trkpt>
      <trkpt lat="45.909388968721032" lon="8.484973590821028">
        <ele>419.26999999999998</ele>
        <time>2017-11-12T13:30:39Z</time>
      </trkpt>
      <trkpt lat="45.909448564052582" lon="8.484988762065768">
        <ele>417.82999999999998</ele>
        <time>2017-11-12T13:30:48Z</time>
      </trkpt>
      <trkpt lat="45.909518720582128" lon="8.485061936080456">
        <ele>415.91000000000003</ele>
        <time>2017-11-12T13:31:00Z</time>
      </trkpt>
      <trkpt lat="45.90956524014473" lon="8.485131422057748">
        <ele>414.47000000000003</ele>
        <time>2017-11-12T13:31:10Z</time>
      </trkpt>
      <trkpt lat="45.909559791907668" lon="8.485271148383617">
        <ele>413.01999999999998</ele>
        <time>2017-11-12T13:31:21Z</time>
      </trkpt>
      <trkpt lat="45.909540681168437" lon="8.485378855839372">
        <ele>411.10000000000002</ele>
        <time>2017-11-12T13:31:32Z</time>
      </trkpt>
      <trkpt lat="45.909534227102995" lon="8.485480444505811">
        <ele>409.18000000000001</ele>
        <time>2017-11-12T13:31:43Z</time>
      </trkpt>
      <trkpt lat="45.90952618047595" lon="8.485543308779597">
        <ele>407.74000000000001</ele>
        <time>2017-11-12T13:31:52Z</time>
      </trkpt>
      <trkpt lat="45.909527521580458" lon="8.485630480572581">
        <ele>406.29000000000002</ele>
        <time>2017-11-12T13:32:02Z</time>
      </trkpt>
      <trkpt lat="45.909524420276284" lon="8.485713377594948">
        <ele>404.37</ele>
        <time>2017-11-12T13:32:12Z</time>
      </trkpt>
      <trkpt lat="45.90953154489398" lon="8.485781271010637">
        <ele>402.93000000000001</ele>
        <time>2017-11-12T13:32:21Z</time>
      </trkpt>
      <trkpt lat="45.909535819664598" lon="8.485887218266726">
        <ele>401.00999999999999</ele>
        <time>2017-11-12T13:32:32Z</time>
      </trkpt>
      <trkpt lat="45.909557864069939" lon="8.485954524949193">
        <ele>399.56999999999999</ele>
        <time>2017-11-12T13:32:41Z</time>
      </trkpt>
      <trkpt lat="45.909574292600155" lon="8.48603499121964">
        <ele>397.63999999999999</ele>
        <time>2017-11-12T13:32:51Z</time>
      </trkpt>
      <trkpt lat="45.909580159932375" lon="8.486116630956531">
        <ele>395.72000000000003</ele>
        <time>2017-11-12T13:33:00Z</time>
      </trkpt>
      <trkpt lat="45.909599103033543" lon="8.486212519928813">
        <ele>393.80000000000001</ele>
        <time>2017-11-12T13:33:11Z</time>
      </trkpt>
      <trkpt lat="45.909601030871272" lon="8.486280329525471">
        <ele>392.83999999999997</ele>
        <time>2017-11-12T13:33:19Z</time>
      </trkpt>
      <trkpt lat="45.909601869061589" lon="8.486348809674382">
        <ele>391.38999999999999</ele>
        <time>2017-11-12T13:33:29Z</time>
      </trkpt>
      <trkpt lat="45.909602791070938" lon="8.486355263739824">
        <ele>390.91000000000003</ele>
        <time>2017-11-12T13:33:30Z</time>
      </trkpt>
      <trkpt lat="45.909588122740388" lon="8.486447213217616">
        <ele>388.99000000000001</ele>
        <time>2017-11-12T13:33:40Z</time>
      </trkpt>
      <trkpt lat="45.9095892123878" lon="8.48650555126369">
        <ele>388.02999999999997</ele>
        <time>2017-11-12T13:33:48Z</time>
      </trkpt>
      <trkpt lat="45.909571861848235" lon="8.486597668379545">
        <ele>386.58999999999997</ele>
        <time>2017-11-12T13:33:58Z</time>
      </trkpt>
      <trkpt lat="45.909555098041892" lon="8.486692383885384">
        <ele>384.66000000000003</ele>
        <time>2017-11-12T13:34:09Z</time>
      </trkpt>
      <trkpt lat="45.909558869898319" lon="8.486751727759838">
        <ele>383.22000000000003</ele>
        <time>2017-11-12T13:34:18Z</time>
      </trkpt>
      <trkpt lat="45.909547889605165" lon="8.486846359446645">
        <ele>381.30000000000001</ele>
        <time>2017-11-12T13:34:29Z</time>
      </trkpt>
      <trkpt lat="45.909529281780124" lon="8.486922802403569">
        <ele>379.86000000000001</ele>
        <time>2017-11-12T13:34:38Z</time>
      </trkpt>
      <trkpt lat="45.909521738067269" lon="8.486983068287373">
        <ele>378.42000000000002</ele>
        <time>2017-11-12T13:34:46Z</time>
      </trkpt>
      <trkpt lat="45.909502124413848" lon="8.487051632255316">
        <ele>376.97000000000003</ele>
        <time>2017-11-12T13:34:54Z</time>
      </trkpt>
      <trkpt lat="45.909498268738389" lon="8.48713343963027">
        <ele>376.00999999999999</ele>
        <time>2017-11-12T13:35:03Z</time>
      </trkpt>
      <trkpt lat="45.909483097493649" lon="8.48714517429471">
        <ele>375.52999999999997</ele>
        <time>2017-11-12T13:35:05Z</time>
      </trkpt>
      <trkpt lat="45.909473709762096" lon="8.487165542319417">
        <ele>375.05000000000001</ele>
        <time>2017-11-12T13:35:07Z</time>
      </trkpt>
      <trkpt lat="45.909430710598826" lon="8.487237542867661">
        <ele>373.61000000000001</ele>
        <time>2017-11-12T13:35:15Z</time>
      </trkpt>
      <trkpt lat="45.909409672021866" lon="8.487323876470327">
        <ele>372.64999999999998</ele>
        <time>2017-11-12T13:35:24Z</time>
      </trkpt>
      <trkpt lat="45.909401625394821" lon="8.487338628619909">
        <ele>372.17000000000002</ele>
        <time>2017-11-12T13:35:26Z</time>
      </trkpt>
      <trkpt lat="45.909368013963103" lon="8.487469470128417">
        <ele>370.73000000000002</ele>
        <time>2017-11-12T13:35:36Z</time>
      </trkpt>
      <trkpt lat="45.909394668415189" lon="8.487454131245613">
        <ele>370.73000000000002</ele>
        <time>2017-11-12T13:35:46Z</time>
      </trkpt>
      <trkpt lat="45.909393159672618" lon="8.487477768212557">
        <ele>370.73000000000002</ele>
        <time>2017-11-12T13:35:58Z</time>
      </trkpt>
      <trkpt lat="45.909404139965773" lon="8.487505596131086">
        <ele>370.73000000000002</ele>
        <time>2017-11-12T13:36:10Z</time>
      </trkpt>
      <trkpt lat="45.909419730305672" lon="8.487482964992523">
        <ele>370.73000000000002</ele>
        <time>2017-11-12T13:36:22Z</time>
      </trkpt>
      <trkpt lat="45.909406486898661" lon="8.487446587532759">
        <ele>370.73000000000002</ele>
        <time>2017-11-12T13:36:35Z</time>
      </trkpt>
      <trkpt lat="45.909413192421198" lon="8.487485563382506">
        <ele>370.24000000000001</ele>
        <time>2017-11-12T13:36:51Z</time>
      </trkpt>
      <trkpt lat="45.909422244876623" lon="8.487428985536099">
        <ele>370.24000000000001</ele>
        <time>2017-11-12T13:37:05Z</time>
      </trkpt>
      <trkpt lat="45.909412438049912" lon="8.487448431551457">
        <ele>370.24000000000001</ele>
        <time>2017-11-12T13:37:19Z</time>
      </trkpt>
      <trkpt lat="45.909402128309011" lon="8.487482378259301">
        <ele>370.24000000000001</ele>
        <time>2017-11-12T13:37:34Z</time>
      </trkpt>
      <trkpt lat="45.909407073631883" lon="8.487483551725745">
        <ele>370.73000000000002</ele>
        <time>2017-11-12T13:37:48Z</time>
      </trkpt>
      <trkpt lat="45.90939374640584" lon="8.487473744899035">
        <ele>370.24000000000001</ele>
        <time>2017-11-12T13:38:02Z</time>
      </trkpt>
      <trkpt lat="45.909368600696325" lon="8.487459160387516">
        <ele>370.24000000000001</ele>
        <time>2017-11-12T13:38:16Z</time>
      </trkpt>
      <trkpt lat="45.909363487735391" lon="8.48746963776648">
        <ele>370.24000000000001</ele>
        <time>2017-11-12T13:38:29Z</time>
      </trkpt>
      <trkpt lat="45.909357536584139" lon="8.487471146509051">
        <ele>370.24000000000001</ele>
        <time>2017-11-12T13:38:42Z</time>
      </trkpt>
      <trkpt lat="45.909388801082969" lon="8.487474918365479">
        <ele>370.24000000000001</ele>
        <time>2017-11-12T13:39:00Z</time>
      </trkpt>
      <trkpt lat="45.90939911082387" lon="8.487483887001872">
        <ele>369.75999999999999</ele>
        <time>2017-11-12T13:39:20Z</time>
      </trkpt>
      <trkpt lat="45.909423585981131" lon="8.487484641373158">
        <ele>369.75999999999999</ele>
        <time>2017-11-12T13:39:31Z</time>
      </trkpt>
      <trkpt lat="45.909415790811181" lon="8.487484641373158">
        <ele>370.24000000000001</ele>
        <time>2017-11-12T13:39:44Z</time>
      </trkpt>
      <trkpt lat="45.909416629001498" lon="8.487486485391855">
        <ele>370.24000000000001</ele>
        <time>2017-11-12T13:39:58Z</time>
      </trkpt>
      <trkpt lat="45.909401793032885" lon="8.487483635544777">
        <ele>370.24000000000001</ele>
        <time>2017-11-12T13:40:09Z</time>
      </trkpt>
      <trkpt lat="45.909410091117024" lon="8.487498136237264">
        <ele>370.24000000000001</ele>
        <time>2017-11-12T13:40:26Z</time>
      </trkpt>
      <trkpt lat="45.90940841473639" lon="8.487477600574493">
        <ele>370.24000000000001</ele>
        <time>2017-11-12T13:40:36Z</time>
      </trkpt>
      <trkpt lat="45.909393327310681" lon="8.487449185922742">
        <ele>370.24000000000001</ele>
        <time>2017-11-12T13:40:51Z</time>
      </trkpt>
      <trkpt lat="45.909387711435556" lon="8.48749402910471">
        <ele>370.24000000000001</ele>
        <time>2017-11-12T13:41:03Z</time>
      </trkpt>
      <trkpt lat="45.909365750849247" lon="8.487500650808215">
        <ele>370.24000000000001</ele>
        <time>2017-11-12T13:41:23Z</time>
      </trkpt>
      <trkpt lat="45.90937077999115" lon="8.487482964992523">
        <ele>370.24000000000001</ele>
        <time>2017-11-12T13:41:42Z</time>
      </trkpt>
      <trkpt lat="45.909371366724372" lon="8.487508110702038">
        <ele>370.24000000000001</ele>
        <time>2017-11-12T13:42:00Z</time>
      </trkpt>
      <trkpt lat="45.909357620403171" lon="8.487512804567814">
        <ele>370.24000000000001</ele>
        <time>2017-11-12T13:42:20Z</time>
      </trkpt>
      <trkpt lat="45.90936541557312" lon="8.487463518977165">
        <ele>370.73000000000002</ele>
        <time>2017-11-12T13:42:39Z</time>
      </trkpt>
      <trkpt lat="45.909391064196825" lon="8.487488580867648">
        <ele>370.73000000000002</ele>
        <time>2017-11-12T13:42:52Z</time>
      </trkpt>
      <trkpt lat="45.909389303997159" lon="8.487480701878667">
        <ele>370.73000000000002</ele>
        <time>2017-11-12T13:43:11Z</time>
      </trkpt>
      <trkpt lat="45.909352423623204" lon="8.487498052418232">
        <ele>370.73000000000002</ele>
        <time>2017-11-12T13:43:29Z</time>
      </trkpt>
      <trkpt lat="45.909344544634223" lon="8.487509367987514">
        <ele>371.20999999999998</ele>
        <time>2017-11-12T13:43:39Z</time>
      </trkpt>
      <trkpt lat="45.9093370847404" lon="8.487577512860298">
        <ele>370.73000000000002</ele>
        <time>2017-11-12T13:43:48Z</time>
      </trkpt>
      <trkpt lat="45.909367930144072" lon="8.487561922520399">
        <ele>370.73000000000002</ele>
        <time>2017-11-12T13:43:59Z</time>
      </trkpt>
      <trkpt lat="45.909400703385472" lon="8.48750526085496">
        <ele>370.73000000000002</ele>
        <time>2017-11-12T13:44:10Z</time>
      </trkpt>
      <trkpt lat="45.909416461363435" lon="8.487499058246613">
        <ele>370.24000000000001</ele>
        <time>2017-11-12T13:44:20Z</time>
      </trkpt>
      <trkpt lat="45.90947094373405" lon="8.487518252804875">
        <ele>368.80000000000001</ele>
        <time>2017-11-12T13:44:32Z</time>
      </trkpt>
      <trkpt lat="45.909519223496318" lon="8.487496627494693">
        <ele>367.36000000000001</ele>
        <time>2017-11-12T13:44:43Z</time>
      </trkpt>
      <trkpt lat="45.909591307863593" lon="8.487469805404544">
        <ele>365.44</ele>
        <time>2017-11-12T13:44:55Z</time>
      </trkpt>
      <trkpt lat="45.909696668386459" lon="8.487473158165813">
        <ele>363.04000000000002</ele>
        <time>2017-11-12T13:45:07Z</time>
      </trkpt>
      <trkpt lat="45.909757185727358" lon="8.487436780706048">
        <ele>361.58999999999997</ele>
        <time>2017-11-12T13:45:16Z</time>
      </trkpt>
      <trkpt lat="45.909810326993465" lon="8.487343573942781">
        <ele>360.14999999999998</ele>
        <time>2017-11-12T13:45:26Z</time>
      </trkpt>
      <trkpt lat="45.909873778000474" lon="8.487247098237276">
        <ele>358.70999999999998</ele>
        <time>2017-11-12T13:45:36Z</time>
      </trkpt>
      <trkpt lat="45.909931780770421" lon="8.4871647041291">
        <ele>357.75</ele>
        <time>2017-11-12T13:45:43Z</time>
      </trkpt>
      <trkpt lat="45.910028088837862" lon="8.487062025815249">
        <ele>356.79000000000002</ele>
        <time>2017-11-12T13:45:54Z</time>
      </trkpt>
      <trkpt lat="45.910147530958056" lon="8.486969489604235">
        <ele>356.31</ele>
        <time>2017-11-12T13:46:06Z</time>
      </trkpt>
      <trkpt lat="45.910234283655882" lon="8.486969070509076">
        <ele>354.86000000000001</ele>
        <time>2017-11-12T13:46:14Z</time>
      </trkpt>
      <trkpt lat="45.910271247848868" lon="8.487104857340455">
        <ele>353.42000000000002</ele>
        <time>2017-11-12T13:46:24Z</time>
      </trkpt>
      <trkpt lat="45.910302009433508" lon="8.487220611423254">
        <ele>351.5</ele>
        <time>2017-11-12T13:46:34Z</time>
      </trkpt>
      <trkpt lat="45.910323970019817" lon="8.487277776002884">
        <ele>350.54000000000002</ele>
        <time>2017-11-12T13:46:40Z</time>
      </trkpt>
      <trkpt lat="45.910397982224822" lon="8.487354721873999">
        <ele>348.62</ele>
        <time>2017-11-12T13:46:50Z</time>
      </trkpt>
      <trkpt lat="45.910491021350026" lon="8.48744323477149">
        <ele>347.17000000000002</ele>
        <time>2017-11-12T13:47:00Z</time>
      </trkpt>
      <trkpt lat="45.910523794591427" lon="8.487476678565145">
        <ele>346.20999999999998</ele>
        <time>2017-11-12T13:47:05Z</time>
      </trkpt>
      <trkpt lat="45.910596633329988" lon="8.487527053803206">
        <ele>344.76999999999998</ele>
        <time>2017-11-12T13:47:15Z</time>
      </trkpt>
      <trkpt lat="45.91066955588758" lon="8.487464860081673">
        <ele>343.32999999999998</ele>
        <time>2017-11-12T13:47:26Z</time>
      </trkpt>
      <trkpt lat="45.910680033266544" lon="8.487431164830923">
        <ele>342.85000000000002</ele>
        <time>2017-11-12T13:47:38Z</time>
      </trkpt>
      <trkpt lat="45.910710878670216" lon="8.487377101555467">
        <ele>341.88999999999999</ele>
        <time>2017-11-12T13:47:47Z</time>
      </trkpt>
      <trkpt lat="45.910733677446842" lon="8.48735379986465">
        <ele>341.41000000000003</ele>
        <time>2017-11-12T13:47:58Z</time>
      </trkpt>
      <trkpt lat="45.910758655518293" lon="8.487306525930762">
        <ele>340.44</ele>
        <time>2017-11-12T13:48:05Z</time>
      </trkpt>
      <trkpt lat="45.910805677995086" lon="8.487257407978177">
        <ele>339</ele>
        <time>2017-11-12T13:48:15Z</time>
      </trkpt>
      <trkpt lat="45.910868961364031" lon="8.487183647230268">
        <ele>337.56</ele>
        <time>2017-11-12T13:48:26Z</time>
      </trkpt>
      <trkpt lat="45.910887401551008" lon="8.487168224528432">
        <ele>337.07999999999998</ele>
        <time>2017-11-12T13:48:29Z</time>
      </trkpt>
      <trkpt lat="45.910970130935311" lon="8.487244751304388">
        <ele>336.12</ele>
        <time>2017-11-12T13:48:40Z</time>
      </trkpt>
      <trkpt lat="45.911017572507262" lon="8.487369809299707">
        <ele>334.19999999999999</ele>
        <time>2017-11-12T13:48:50Z</time>
      </trkpt>
      <trkpt lat="45.911037689074874" lon="8.487406605854631">
        <ele>333.23000000000002</ele>
        <time>2017-11-12T13:48:55Z</time>
      </trkpt>
      <trkpt lat="45.911123435944319" lon="8.487391853705049">
        <ele>331.31</ele>
        <time>2017-11-12T13:49:07Z</time>
      </trkpt>
      <trkpt lat="45.911164171993732" lon="8.487309375777841">
        <ele>329.87</ele>
        <time>2017-11-12T13:49:16Z</time>
      </trkpt>
      <trkpt lat="45.911189066246152" lon="8.487259168177843">
        <ele>328.91000000000003</ele>
        <time>2017-11-12T13:49:21Z</time>
      </trkpt>
      <trkpt lat="45.911263162270188" lon="8.487120280042291">
        <ele>326.99000000000001</ele>
        <time>2017-11-12T13:49:34Z</time>
      </trkpt>
      <trkpt lat="45.911329630762339" lon="8.487003603950143">
        <ele>325.06</ele>
        <time>2017-11-12T13:49:46Z</time>
      </trkpt>
      <trkpt lat="45.911412024870515" lon="8.486872846260667">
        <ele>322.66000000000003</ele>
        <time>2017-11-12T13:49:59Z</time>
      </trkpt>
      <trkpt lat="45.911507327109575" lon="8.486869409680367">
        <ele>320.74000000000001</ele>
        <time>2017-11-12T13:50:10Z</time>
      </trkpt>
      <trkpt lat="45.911589050665498" lon="8.486980721354485">
        <ele>318.81</ele>
        <time>2017-11-12T13:50:21Z</time>
      </trkpt>
      <trkpt lat="45.911606401205063" lon="8.487025145441294">
        <ele>318.32999999999998</ele>
        <time>2017-11-12T13:50:24Z</time>
      </trkpt>
      <trkpt lat="45.911655686795712" lon="8.487209295853972">
        <ele>316.41000000000003</ele>
        <time>2017-11-12T13:50:37Z</time>
      </trkpt>
      <trkpt lat="45.911696422845125" lon="8.487289594486356">
        <ele>314.97000000000003</ele>
        <time>2017-11-12T13:50:44Z</time>
      </trkpt>
      <trkpt lat="45.911753503605723" lon="8.487344915047288">
        <ele>313.52999999999997</ele>
        <time>2017-11-12T13:50:53Z</time>
      </trkpt>
      <trkpt lat="45.911828186362982" lon="8.487451197579503">
        <ele>311.12</ele>
        <time>2017-11-12T13:51:05Z</time>
      </trkpt>
      <trkpt lat="45.911842519417405" lon="8.487627049908042">
        <ele>308.72000000000003</ele>
        <time>2017-11-12T13:51:18Z</time>
      </trkpt>
      <trkpt lat="45.911826509982347" lon="8.487829891964793">
        <ele>306.31999999999999</ele>
        <time>2017-11-12T13:51:32Z</time>
      </trkpt>
      <trkpt lat="45.911823660135269" lon="8.487840285524726">
        <ele>306.31999999999999</ele>
        <time>2017-11-12T13:51:33Z</time>
      </trkpt>
      <trkpt lat="45.911816619336605" lon="8.487921757623553">
        <ele>305.36000000000001</ele>
        <time>2017-11-12T13:51:40Z</time>
      </trkpt>
      <trkpt lat="45.911804297938943" lon="8.487996775656939">
        <ele>304.88</ele>
        <time>2017-11-12T13:51:45Z</time>
      </trkpt>
      <trkpt lat="45.911806561052799" lon="8.488029800355434">
        <ele>303.91000000000003</ele>
        <time>2017-11-12T13:51:49Z</time>
      </trkpt>
      <trkpt lat="45.91178460046649" lon="8.488166425377131">
        <ele>302.47000000000003</ele>
        <time>2017-11-12T13:52:02Z</time>
      </trkpt>
      <trkpt lat="45.911773787811399" lon="8.488192744553089">
        <ele>301.99000000000001</ele>
        <time>2017-11-12T13:52:10Z</time>
      </trkpt>
      <trkpt lat="45.911776470020413" lon="8.488179333508015">
        <ele>301.99000000000001</ele>
        <time>2017-11-12T13:52:21Z</time>
      </trkpt>
      <trkpt lat="45.911769345402718" lon="8.488162821158767">
        <ele>301.99000000000001</ele>
        <time>2017-11-12T13:52:38Z</time>
      </trkpt>
      <trkpt lat="45.911781080067158" lon="8.48814588971436">
        <ele>302.47000000000003</ele>
        <time>2017-11-12T13:52:49Z</time>
      </trkpt>
      <trkpt lat="45.911775128915906" lon="8.488059053197503">
        <ele>303.43000000000001</ele>
        <time>2017-11-12T13:52:58Z</time>
      </trkpt>
      <trkpt lat="45.911776889115572" lon="8.488014964386821">
        <ele>303.91000000000003</ele>
        <time>2017-11-12T13:53:08Z</time>
      </trkpt>
      <trkpt lat="45.911790383979678" lon="8.488055448979139">
        <ele>303.43000000000001</ele>
        <time>2017-11-12T13:53:16Z</time>
      </trkpt>
      <trkpt lat="45.911791138350964" lon="8.488048827275634">
        <ele>303.43000000000001</ele>
        <time>2017-11-12T13:53:27Z</time>
      </trkpt>
      <trkpt lat="45.911778900772333" lon="8.488098699599505">
        <ele>302.94999999999999</ele>
        <time>2017-11-12T13:53:36Z</time>
      </trkpt>
      <trkpt lat="45.911770854145288" lon="8.488166676834226">
        <ele>302.47000000000003</ele>
        <time>2017-11-12T13:53:44Z</time>
      </trkpt>
      <trkpt lat="45.911767920479178" lon="8.488151086494327">
        <ele>301.50999999999999</ele>
        <time>2017-11-12T13:53:58Z</time>
      </trkpt>
      <trkpt lat="45.911747300997376" lon="8.488182099536061">
        <ele>301.02999999999997</ele>
        <time>2017-11-12T13:54:08Z</time>
      </trkpt>
      <trkpt lat="45.911746714264154" lon="8.488218393176794">
        <ele>301.02999999999997</ele>
        <time>2017-11-12T13:54:21Z</time>
      </trkpt>
      <trkpt lat="45.911743445321918" lon="8.488232893869281">
        <ele>301.02999999999997</ele>
        <time>2017-11-12T13:54:33Z</time>
      </trkpt>
      <trkpt lat="45.91174696572125" lon="8.488245885819197">
        <ele>301.02999999999997</ele>
        <time>2017-11-12T13:54:42Z</time>
      </trkpt>
      <trkpt lat="45.911757024005055" lon="8.48822602070868">
        <ele>301.99000000000001</ele>
        <time>2017-11-12T13:54:51Z</time>
      </trkpt>
      <trkpt lat="45.911758868023753" lon="8.48819375038147">
        <ele>301.99000000000001</ele>
        <time>2017-11-12T13:55:12Z</time>
      </trkpt>
      <trkpt lat="45.911708576604724" lon="8.488175813108683">
        <ele>301.99000000000001</ele>
        <time>2017-11-12T13:55:28Z</time>
      </trkpt>
      <trkpt lat="45.911760041490197" lon="8.488184614107013">
        <ele>302.47000000000003</ele>
        <time>2017-11-12T13:55:41Z</time>
      </trkpt>
      <trkpt lat="45.911791138350964" lon="8.488197270780802">
        <ele>302.47000000000003</ele>
        <time>2017-11-12T13:55:55Z</time>
      </trkpt>
      <trkpt lat="45.911803208291531" lon="8.48819618113339">
        <ele>302.47000000000003</ele>
        <time>2017-11-12T13:56:13Z</time>
      </trkpt>
      <trkpt lat="45.911798179149628" lon="8.488190229982138">
        <ele>302.47000000000003</ele>
        <time>2017-11-12T13:56:28Z</time>
      </trkpt>
      <trkpt lat="45.911800945177674" lon="8.488178914412856">
        <ele>302.47000000000003</ele>
        <time>2017-11-12T13:56:40Z</time>
      </trkpt>
      <trkpt lat="45.911791222169995" lon="8.48816491663456">
        <ele>302.47000000000003</ele>
        <time>2017-11-12T13:56:55Z</time>
      </trkpt>
      <trkpt lat="45.911790635436773" lon="8.488167012110353">
        <ele>302.47000000000003</ele>
        <time>2017-11-12T13:57:08Z</time>
      </trkpt>
      <trkpt lat="45.911791222169995" lon="8.488178160041571">
        <ele>302.47000000000003</ele>
        <time>2017-11-12T13:57:20Z</time>
      </trkpt>
      <trkpt lat="45.911791138350964" lon="8.488175142556429">
        <ele>302.47000000000003</ele>
        <time>2017-11-12T13:57:34Z</time>
      </trkpt>
      <trkpt lat="45.911767082288861" lon="8.488200036808848">
        <ele>301.50999999999999</ele>
        <time>2017-11-12T13:57:43Z</time>
      </trkpt>
      <trkpt lat="45.911787282675505" lon="8.488215040415525">
        <ele>301.02999999999997</ele>
        <time>2017-11-12T13:58:01Z</time>
      </trkpt>
      <trkpt lat="45.911758784204721" lon="8.488200036808848">
        <ele>301.99000000000001</ele>
        <time>2017-11-12T13:58:14Z</time>
      </trkpt>
      <trkpt lat="45.911732716485858" lon="8.488172292709351">
        <ele>301.99000000000001</ele>
        <time>2017-11-12T13:58:27Z</time>
      </trkpt>
      <trkpt lat="45.911755431443453" lon="8.488195007666946">
        <ele>301.99000000000001</ele>
        <time>2017-11-12T13:58:40Z</time>
      </trkpt>
      <trkpt lat="45.911728022620082" lon="8.488199282437563">
        <ele>301.99000000000001</ele>
        <time>2017-11-12T13:59:00Z</time>
      </trkpt>
      <trkpt lat="45.911740595474839" lon="8.488214621320367">
        <ele>301.50999999999999</ele>
        <time>2017-11-12T13:59:13Z</time>
      </trkpt>
      <trkpt lat="45.911747300997376" lon="8.488229708746076">
        <ele>301.99000000000001</ele>
        <time>2017-11-12T13:59:26Z</time>
      </trkpt>
      <trkpt lat="45.911748139187694" lon="8.488199198618531">
        <ele>301.50999999999999</ele>
        <time>2017-11-12T13:59:45Z</time>
      </trkpt>
      <trkpt lat="45.91174746863544" lon="8.488169359043241">
        <ele>301.50999999999999</ele>
        <time>2017-11-12T14:00:03Z</time>
      </trkpt>
      <trkpt lat="45.911734057590365" lon="8.488164329901338">
        <ele>301.50999999999999</ele>
        <time>2017-11-12T14:00:19Z</time>
      </trkpt>
      <trkpt lat="45.911727854982018" lon="8.488205149769783">
        <ele>301.50999999999999</ele>
        <time>2017-11-12T14:00:33Z</time>
      </trkpt>
      <trkpt lat="45.911731543019414" lon="8.488242365419865">
        <ele>302.94999999999999</ele>
        <time>2017-11-12T14:00:47Z</time>
      </trkpt>
      <trkpt lat="45.911748139187694" lon="8.488247729837894">
        <ele>301.50999999999999</ele>
        <time>2017-11-12T14:01:03Z</time>
      </trkpt>
      <trkpt lat="45.911755096167326" lon="8.48835744895041">
        <ele>300.06999999999999</ele>
        <time>2017-11-12T14:01:12Z</time>
      </trkpt>
      <trkpt lat="45.911755515262485" lon="8.488432466983795">
        <ele>299.11000000000001</ele>
        <time>2017-11-12T14:01:17Z</time>
      </trkpt>
      <trkpt lat="45.911761298775673" lon="8.488489715382457">
        <ele>298.14999999999998</ele>
        <time>2017-11-12T14:01:21Z</time>
      </trkpt>
      <trkpt lat="45.911797843873501" lon="8.488668417558074">
        <ele>296.22000000000003</ele>
        <time>2017-11-12T14:01:33Z</time>
      </trkpt>
      <trkpt lat="45.911797257140279" lon="8.488704543560743">
        <ele>295.74000000000001</ele>
        <time>2017-11-12T14:01:36Z</time>
      </trkpt>
      <trkpt lat="45.911800861358643" lon="8.488736897706986">
        <ele>295.74000000000001</ele>
        <time>2017-11-12T14:01:38Z</time>
      </trkpt>
      <trkpt lat="45.911789378151298" lon="8.488843180239201">
        <ele>294.77999999999997</ele>
        <time>2017-11-12T14:01:46Z</time>
      </trkpt>
      <trkpt lat="45.911751911044121" lon="8.488933453336358">
        <ele>294.77999999999997</ele>
        <time>2017-11-12T14:01:51Z</time>
      </trkpt>
      <trkpt lat="45.911715114489198" lon="8.48895650357008">
        <ele>295.25999999999999</ele>
        <time>2017-11-12T14:01:54Z</time>
      </trkpt>
      <trkpt lat="45.911597097292542" lon="8.488950133323669">
        <ele>295.74000000000001</ele>
        <time>2017-11-12T14:02:07Z</time>
      </trkpt>
    </trkseg>
  </trk>

</gpx>